<?xml version="1.0" encoding="UTF-8" standalone="no" ?>
<gpx xmlns="http://www.topografix.com/GPX/1/1" xmlns:xsi="http://www.w3.org/2001/XMLSchema-instance" xsi:schemaLocation="http://www.topografix.com/GPX/1/1 http://www.topografix.com/GPX/1/1/gpx.xsd" version="1.1" creator="VisuGPX - https://www.visugpx.com">
  <metadata>
    <name>Issenheim - Thann (Alsace)</name>
    <desc><![CDATA[Chemin pédestre des abolitions de l'esclavage & des droits de l'homme : étape 10]]></desc>
  </metadata>
  <wpt lat="47.87758" lon="7.16989">
    <ele>579.5</ele>
    <name><![CDATA[Carrefour de l'heure]]></name>
  </wpt>
  <wpt lat="47.85898" lon="7.15062">
    <ele>897.2</ele>
    <name><![CDATA[Cimetière militaire]]></name>
    <type><![CDATA[patrimoine]]></type>
  </wpt>
  <wpt lat="47.87333" lon="7.15837">
    <ele>477.3</ele>
    <name><![CDATA[Croix Zimmermann]]></name>
  </wpt>
  <wpt lat="47.85333" lon="7.13584">
    <ele>1035.1</ele>
    <name><![CDATA[Ferme-auberge du Molkenrain]]></name>
    <type><![CDATA[restaurant]]></type>
  </wpt>
  <wpt lat="47.80909" lon="7.1076">
    <ele>333.8</ele>
    <name><![CDATA[Gare de Tann]]></name>
    <type><![CDATA[ville]]></type>
  </wpt>
  <wpt lat="47.90281" lon="7.25147">
    <ele>250.4</ele>
    <name><![CDATA[Issenheim]]></name>
    <type><![CDATA[ville]]></type>
  </wpt>
  <wpt lat="47.88453" lon="7.19562">
    <ele>325.8</ele>
    <name><![CDATA[Jungholz]]></name>
    <type><![CDATA[ville]]></type>
  </wpt>
  <wpt lat="47.84825" lon="7.11745">
    <ele>914.2</ele>
    <name><![CDATA[Le Camp Turenne]]></name>
  </wpt>
  <wpt lat="47.8514" lon="7.13274">
    <ele>1083.1</ele>
    <name><![CDATA[Refuge des Amis de la nature]]></name>
    <type><![CDATA[hebergement]]></type>
  </wpt>
  <wpt lat="47.88189" lon="7.18847">
    <ele>361.2</ele>
    <name><![CDATA[Thierenbach]]></name>
    <type><![CDATA[patrimoine]]></type>
  </wpt>
  <wpt lat="47.82223" lon="7.12131">
    <ele>583.4</ele>
    <name><![CDATA[Waldkapelle (Chapelle de la forêt)]]></name>
    <type><![CDATA[patrimoine]]></type>
  </wpt>
  <wpt lat="47.90324" lon="7.25362">
    <ele>247.7</ele>
    <name><![CDATA[Hotel A la Demi-Lune]]></name>
    <type><![CDATA[hebergement]]></type>
  </wpt>
  <wpt lat="47.85342" lon="7.13483">
    <ele>1051.4</ele>
    <type><![CDATA[hebergement]]></type>
  </wpt>
  <wpt lat="47.8112" lon="7.10095">
    <ele>340.7</ele>
    <name><![CDATA[Hotel]]></name>
    <type><![CDATA[hebergement]]></type>
  </wpt>
  <wpt lat="47.80838" lon="7.10265">
    <ele>342.2</ele>
    <name><![CDATA[Hotel du Parc]]></name>
    <type><![CDATA[hebergement]]></type>
  </wpt>
  <wpt lat="47.80788" lon="7.10119">
    <ele>342.8</ele>
    <name><![CDATA[Gîte d'étape St Thiébaut]]></name>
    <type><![CDATA[hebergement]]></type>
  </wpt>
  <trk>
    <name><![CDATA[20190315210346-RLnq2]]></name>
    <trkseg>
      <trkpt lat="47.90322" lon="7.2537">
        <ele>247.8</ele>
        <time>2012-03-27T06:13:51Z</time>
      </trkpt>
      <trkpt lat="47.90293" lon="7.2537">
        <ele>248</ele>
        <time>2012-03-27T06:14:01Z</time>
      </trkpt>
      <trkpt lat="47.90256" lon="7.25357">
        <ele>248.4</ele>
        <time>2012-03-27T06:14:18Z</time>
      </trkpt>
      <trkpt lat="47.9024" lon="7.25337">
        <ele>248.5</ele>
        <time>2012-03-27T06:14:20Z</time>
      </trkpt>
      <trkpt lat="47.90235" lon="7.25264">
        <ele>248</ele>
        <time>2012-03-27T06:14:28Z</time>
      </trkpt>
      <trkpt lat="47.90232" lon="7.25202">
        <ele>249.6</ele>
        <time>2012-03-27T06:14:33Z</time>
      </trkpt>
      <trkpt lat="47.90225" lon="7.25174">
        <ele>248.6381836</ele>
        <time>2012-03-27T06:14:48Z</time>
      </trkpt>
      <trkpt lat="47.90228" lon="7.25157">
        <ele>249.1187744</ele>
        <time>2012-03-27T06:15:04Z</time>
      </trkpt>
      <trkpt lat="47.90223" lon="7.2513">
        <ele>249.5994873</ele>
        <time>2012-03-27T06:15:06Z</time>
      </trkpt>
      <trkpt lat="47.90223" lon="7.25127">
        <ele>250.0802002</ele>
        <time>2012-03-27T06:15:09Z</time>
      </trkpt>
      <trkpt lat="47.9022" lon="7.25114">
        <ele>251.0413818</ele>
        <time>2012-03-27T06:15:25Z</time>
      </trkpt>
      <trkpt lat="47.90222" lon="7.25101">
        <ele>250.560791</ele>
        <time>2012-03-27T06:15:37Z</time>
      </trkpt>
      <trkpt lat="47.90224" lon="7.25074">
        <ele>251.0413818</ele>
        <time>2012-03-27T06:15:44Z</time>
      </trkpt>
      <trkpt lat="47.90229" lon="7.2504">
        <ele>251.5220947</ele>
        <time>2012-03-27T06:16:04Z</time>
      </trkpt>
      <trkpt lat="47.9023" lon="7.25037">
        <ele>251.5220947</ele>
        <time>2012-03-27T06:16:14Z</time>
      </trkpt>
      <trkpt lat="47.90231" lon="7.25033">
        <ele>252.0028076</ele>
        <time>2012-03-27T06:16:19Z</time>
      </trkpt>
      <trkpt lat="47.9024" lon="7.25011">
        <ele>252.4833984</ele>
        <time>2012-03-27T06:16:21Z</time>
      </trkpt>
      <trkpt lat="47.90237" lon="7.24989">
        <ele>252.4833984</ele>
        <time>2012-03-27T06:16:27Z</time>
      </trkpt>
      <trkpt lat="47.90237" lon="7.24971">
        <ele>252.4833984</ele>
        <time>2012-03-27T06:16:41Z</time>
      </trkpt>
      <trkpt lat="47.90237" lon="7.24937">
        <ele>252.4833984</ele>
        <time>2012-03-27T06:16:51Z</time>
      </trkpt>
      <trkpt lat="47.90235" lon="7.24918">
        <ele>252.4833984</ele>
        <time>2012-03-27T06:16:53Z</time>
      </trkpt>
      <trkpt lat="47.90234" lon="7.24905">
        <ele>252.4833984</ele>
        <time>2012-03-27T06:17:04Z</time>
      </trkpt>
      <trkpt lat="47.90232" lon="7.24896">
        <ele>253.925415</ele>
        <time>2012-03-27T06:17:15Z</time>
      </trkpt>
      <trkpt lat="47.90238" lon="7.24874">
        <ele>253.4447021</ele>
        <time>2012-03-27T06:17:17Z</time>
      </trkpt>
      <trkpt lat="47.90237" lon="7.24855">
        <ele>253.925415</ele>
        <time>2012-03-27T06:17:18Z</time>
      </trkpt>
      <trkpt lat="47.90231" lon="7.24837">
        <ele>252.9639893</ele>
        <time>2012-03-27T06:17:27Z</time>
      </trkpt>
      <trkpt lat="47.90231" lon="7.24834">
        <ele>253.925415</ele>
        <time>2012-03-27T06:17:31Z</time>
      </trkpt>
      <trkpt lat="47.90235" lon="7.24815">
        <ele>253.925415</ele>
        <time>2012-03-27T06:17:32Z</time>
      </trkpt>
      <trkpt lat="47.90237" lon="7.24794">
        <ele>251.5220947</ele>
        <time>2012-03-27T06:17:36Z</time>
      </trkpt>
      <trkpt lat="47.90236" lon="7.2479">
        <ele>254.4060059</ele>
        <time>2012-03-27T06:17:44Z</time>
      </trkpt>
      <trkpt lat="47.90237" lon="7.24789">
        <ele>254.4060059</ele>
        <time>2012-03-27T06:17:47Z</time>
      </trkpt>
      <trkpt lat="47.90236" lon="7.24769">
        <ele>252.0028076</ele>
        <time>2012-03-27T06:17:57Z</time>
      </trkpt>
      <trkpt lat="47.90235" lon="7.24757">
        <ele>255.3673096</ele>
        <time>2012-03-27T06:18:01Z</time>
      </trkpt>
      <trkpt lat="47.90235" lon="7.24755">
        <ele>254.8865967</ele>
        <time>2012-03-27T06:18:09Z</time>
      </trkpt>
      <trkpt lat="47.90232" lon="7.24744">
        <ele>251.5220947</ele>
        <time>2012-03-27T06:18:20Z</time>
      </trkpt>
      <trkpt lat="47.90229" lon="7.24725">
        <ele>252.9639893</ele>
        <time>2012-03-27T06:18:42Z</time>
      </trkpt>
      <trkpt lat="47.90229" lon="7.2472">
        <ele>255.8480225</ele>
        <time>2012-03-27T06:18:46Z</time>
      </trkpt>
      <trkpt lat="47.90228" lon="7.24701">
        <ele>253.925415</ele>
        <time>2012-03-27T06:18:50Z</time>
      </trkpt>
      <trkpt lat="47.90226" lon="7.24693">
        <ele>254.8865967</ele>
        <time>2012-03-27T06:19:05Z</time>
      </trkpt>
      <trkpt lat="47.90227" lon="7.24681">
        <ele>255.3673096</ele>
        <time>2012-03-27T06:19:28Z</time>
      </trkpt>
      <trkpt lat="47.90223" lon="7.2466">
        <ele>254.8865967</ele>
        <time>2012-03-27T06:19:42Z</time>
      </trkpt>
      <trkpt lat="47.90227" lon="7.24629">
        <ele>254.8865967</ele>
        <time>2012-03-27T06:19:47Z</time>
      </trkpt>
      <trkpt lat="47.90227" lon="7.24616">
        <ele>254.8865967</ele>
        <time>2012-03-27T06:19:52Z</time>
      </trkpt>
      <trkpt lat="47.9023" lon="7.24612">
        <ele>254.8865967</ele>
        <time>2012-03-27T06:20:11Z</time>
      </trkpt>
      <trkpt lat="47.90228" lon="7.24594">
        <ele>254.8865967</ele>
        <time>2012-03-27T06:20:22Z</time>
      </trkpt>
      <trkpt lat="47.90223" lon="7.2459">
        <ele>254.8865967</ele>
        <time>2012-03-27T06:20:41Z</time>
      </trkpt>
      <trkpt lat="47.90217" lon="7.24585">
        <ele>254.8865967</ele>
        <time>2012-03-27T06:20:45Z</time>
      </trkpt>
      <trkpt lat="47.90211" lon="7.24583">
        <ele>255.3673096</ele>
        <time>2012-03-27T06:20:52Z</time>
      </trkpt>
      <trkpt lat="47.90206" lon="7.24582">
        <ele>255.3673096</ele>
        <time>2012-03-27T06:21:14Z</time>
      </trkpt>
      <trkpt lat="47.902" lon="7.24582">
        <ele>255.3673096</ele>
        <time>2012-03-27T06:21:15Z</time>
      </trkpt>
      <trkpt lat="47.90199" lon="7.24582">
        <ele>254.8865967</ele>
        <time>2012-03-27T06:21:36Z</time>
      </trkpt>
      <trkpt lat="47.90175" lon="7.24584">
        <ele>255.8480225</ele>
        <time>2012-03-27T06:22:02Z</time>
      </trkpt>
      <trkpt lat="47.9017" lon="7.24583">
        <ele>254.8865967</ele>
        <time>2012-03-27T06:22:25Z</time>
      </trkpt>
      <trkpt lat="47.90165" lon="7.2458">
        <ele>254.8865967</ele>
        <time>2012-03-27T06:22:39Z</time>
      </trkpt>
      <trkpt lat="47.90137" lon="7.24581">
        <ele>255.3673096</ele>
        <time>2012-03-27T06:22:57Z</time>
      </trkpt>
      <trkpt lat="47.90136" lon="7.2458">
        <ele>255.3673096</ele>
        <time>2012-03-27T06:23:12Z</time>
      </trkpt>
      <trkpt lat="47.90116" lon="7.2455">
        <ele>255.3673096</ele>
        <time>2012-03-27T06:23:32Z</time>
      </trkpt>
      <trkpt lat="47.90107" lon="7.24497">
        <ele>255.8480225</ele>
        <time>2012-03-27T06:23:50Z</time>
      </trkpt>
      <trkpt lat="47.901" lon="7.24451">
        <ele>255.8480225</ele>
        <time>2012-03-27T06:23:53Z</time>
      </trkpt>
      <trkpt lat="47.90096" lon="7.24423">
        <ele>256.3287354</ele>
        <time>2012-03-27T06:23:56Z</time>
      </trkpt>
      <trkpt lat="47.90092" lon="7.24393">
        <ele>256.3287354</ele>
        <time>2012-03-27T06:24:12Z</time>
      </trkpt>
      <trkpt lat="47.90086" lon="7.24367">
        <ele>257.2900391</ele>
        <time>2012-03-27T06:24:40Z</time>
      </trkpt>
      <trkpt lat="47.9008" lon="7.2433">
        <ele>257.2900391</ele>
        <time>2012-03-27T06:25:06Z</time>
      </trkpt>
      <trkpt lat="47.90075" lon="7.24299">
        <ele>257.770752</ele>
        <time>2012-03-27T06:25:11Z</time>
      </trkpt>
      <trkpt lat="47.90075" lon="7.24293">
        <ele>257.770752</ele>
        <time>2012-03-27T06:25:35Z</time>
      </trkpt>
      <trkpt lat="47.90073" lon="7.24288">
        <ele>257.770752</ele>
        <time>2012-03-27T06:25:52Z</time>
      </trkpt>
      <trkpt lat="47.90068" lon="7.24257">
        <ele>258.2513428</ele>
        <time>2012-03-27T06:26:07Z</time>
      </trkpt>
      <trkpt lat="47.90058" lon="7.24201">
        <ele>258.2513428</ele>
        <time>2012-03-27T06:26:26Z</time>
      </trkpt>
      <trkpt lat="47.90044" lon="7.24153">
        <ele>258.7319336</ele>
        <time>2012-03-27T06:26:44Z</time>
      </trkpt>
      <trkpt lat="47.90041" lon="7.24145">
        <ele>259.2126465</ele>
        <time>2012-03-27T06:27:06Z</time>
      </trkpt>
      <trkpt lat="47.90023" lon="7.24102">
        <ele>259.2126465</ele>
        <time>2012-03-27T06:27:29Z</time>
      </trkpt>
      <trkpt lat="47.9001" lon="7.24078">
        <ele>259.2126465</ele>
        <time>2012-03-27T06:27:47Z</time>
      </trkpt>
      <trkpt lat="47.90004" lon="7.24054">
        <ele>259.2126465</ele>
        <time>2012-03-27T06:27:50Z</time>
      </trkpt>
      <trkpt lat="47.90001" lon="7.24015">
        <ele>259.2126465</ele>
        <time>2012-03-27T06:28:04Z</time>
      </trkpt>
      <trkpt lat="47.89999" lon="7.23982">
        <ele>259.6933594</ele>
        <time>2012-03-27T06:28:13Z</time>
      </trkpt>
      <trkpt lat="47.89998" lon="7.2394">
        <ele>259.6933594</ele>
        <time>2012-03-27T06:28:26Z</time>
      </trkpt>
      <trkpt lat="47.90004" lon="7.23895">
        <ele>259.6933594</ele>
        <time>2012-03-27T06:28:37Z</time>
      </trkpt>
      <trkpt lat="47.90001" lon="7.23866">
        <ele>260.1739502</ele>
        <time>2012-03-27T06:28:41Z</time>
      </trkpt>
      <trkpt lat="47.9" lon="7.23862">
        <ele>259.6933594</ele>
        <time>2012-03-27T06:28:46Z</time>
      </trkpt>
      <trkpt lat="47.8999" lon="7.23856">
        <ele>260.1739502</ele>
        <time>2012-03-27T06:28:49Z</time>
      </trkpt>
      <trkpt lat="47.89983" lon="7.23852">
        <ele>260.1739502</ele>
        <time>2012-03-27T06:29:07Z</time>
      </trkpt>
      <trkpt lat="47.89975" lon="7.23831">
        <ele>260.1739502</ele>
        <time>2012-03-27T06:29:27Z</time>
      </trkpt>
      <trkpt lat="47.89974" lon="7.23815">
        <ele>260.654541</ele>
        <time>2012-03-27T06:29:28Z</time>
      </trkpt>
      <trkpt lat="47.89977" lon="7.23812">
        <ele>260.1739502</ele>
        <time>2012-03-27T06:29:47Z</time>
      </trkpt>
      <trkpt lat="47.89977" lon="7.23803">
        <ele>260.654541</ele>
        <time>2012-03-27T06:30:03Z</time>
      </trkpt>
      <trkpt lat="47.89977" lon="7.23795">
        <ele>260.1739502</ele>
        <time>2012-03-27T06:30:20Z</time>
      </trkpt>
      <trkpt lat="47.89978" lon="7.23759">
        <ele>260.654541</ele>
        <time>2012-03-27T06:30:40Z</time>
      </trkpt>
      <trkpt lat="47.89973" lon="7.23723">
        <ele>260.654541</ele>
        <time>2012-03-27T06:30:50Z</time>
      </trkpt>
      <trkpt lat="47.89972" lon="7.23722">
        <ele>260.654541</ele>
        <time>2012-03-27T06:31:01Z</time>
      </trkpt>
      <trkpt lat="47.89969" lon="7.23681">
        <ele>261.1352539</ele>
        <time>2012-03-27T06:31:05Z</time>
      </trkpt>
      <trkpt lat="47.89965" lon="7.23648">
        <ele>261.1352539</ele>
        <time>2012-03-27T06:31:12Z</time>
      </trkpt>
      <trkpt lat="47.89963" lon="7.23616">
        <ele>261.6159668</ele>
        <time>2012-03-27T06:31:32Z</time>
      </trkpt>
      <trkpt lat="47.89957" lon="7.23585">
        <ele>261.6159668</ele>
        <time>2012-03-27T06:31:47Z</time>
      </trkpt>
      <trkpt lat="47.89955" lon="7.2357">
        <ele>262.0965576</ele>
        <time>2012-03-27T06:32:04Z</time>
      </trkpt>
      <trkpt lat="47.89949" lon="7.23551">
        <ele>262.5771484</ele>
        <time>2012-03-27T06:32:29Z</time>
      </trkpt>
      <trkpt lat="47.89949" lon="7.23543">
        <ele>261.6159668</ele>
        <time>2012-03-27T06:32:53Z</time>
      </trkpt>
      <trkpt lat="47.89947" lon="7.23527">
        <ele>262.5771484</ele>
        <time>2012-03-27T06:33:03Z</time>
      </trkpt>
      <trkpt lat="47.89941" lon="7.23488">
        <ele>262.5771484</ele>
        <time>2012-03-27T06:33:25Z</time>
      </trkpt>
      <trkpt lat="47.89937" lon="7.2347">
        <ele>262.5771484</ele>
        <time>2012-03-27T06:33:44Z</time>
      </trkpt>
      <trkpt lat="47.89929" lon="7.2344">
        <ele>263.0578613</ele>
        <time>2012-03-27T06:33:45Z</time>
      </trkpt>
      <trkpt lat="47.89919" lon="7.23395">
        <ele>263.5385742</ele>
        <time>2012-03-27T06:33:49Z</time>
      </trkpt>
      <trkpt lat="47.89908" lon="7.23352">
        <ele>264.0192871</ele>
        <time>2012-03-27T06:34:11Z</time>
      </trkpt>
      <trkpt lat="47.89903" lon="7.23337">
        <ele>264.4998779</ele>
        <time>2012-03-27T06:34:28Z</time>
      </trkpt>
      <trkpt lat="47.89882" lon="7.23315">
        <ele>264.4998779</ele>
        <time>2012-03-27T06:34:45Z</time>
      </trkpt>
      <trkpt lat="47.89862" lon="7.23296">
        <ele>264.9805908</ele>
        <time>2012-03-27T06:34:59Z</time>
      </trkpt>
      <trkpt lat="47.89861" lon="7.23294">
        <ele>264.9805908</ele>
        <time>2012-03-27T06:35:03Z</time>
      </trkpt>
      <trkpt lat="47.8986" lon="7.23286">
        <ele>265.4613037</ele>
        <time>2012-03-27T06:35:21Z</time>
      </trkpt>
      <trkpt lat="47.89854" lon="7.23251">
        <ele>264.9805908</ele>
        <time>2012-03-27T06:35:42Z</time>
      </trkpt>
      <trkpt lat="47.8984" lon="7.23228">
        <ele>265.9418945</ele>
        <time>2012-03-27T06:35:55Z</time>
      </trkpt>
      <trkpt lat="47.89824" lon="7.23201">
        <ele>265.4613037</ele>
        <time>2012-03-27T06:36:15Z</time>
      </trkpt>
      <trkpt lat="47.89813" lon="7.23185">
        <ele>265.4613037</ele>
        <time>2012-03-27T06:36:24Z</time>
      </trkpt>
      <trkpt lat="47.89808" lon="7.23179">
        <ele>265.4613037</ele>
        <time>2012-03-27T06:36:44Z</time>
      </trkpt>
      <trkpt lat="47.89791" lon="7.23159">
        <ele>265.4613037</ele>
        <time>2012-03-27T06:37:05Z</time>
      </trkpt>
      <trkpt lat="47.89769" lon="7.23126">
        <ele>265.4613037</ele>
        <time>2012-03-27T06:37:28Z</time>
      </trkpt>
      <trkpt lat="47.89756" lon="7.23107">
        <ele>265.9418945</ele>
        <time>2012-03-27T06:37:50Z</time>
      </trkpt>
      <trkpt lat="47.89737" lon="7.23086">
        <ele>265.4613037</ele>
        <time>2012-03-27T06:38:15Z</time>
      </trkpt>
      <trkpt lat="47.89728" lon="7.23074">
        <ele>265.4613037</ele>
        <time>2012-03-27T06:38:38Z</time>
      </trkpt>
      <trkpt lat="47.89705" lon="7.2305">
        <ele>265.4613037</ele>
        <time>2012-03-27T06:38:55Z</time>
      </trkpt>
      <trkpt lat="47.89688" lon="7.23028">
        <ele>265.9418945</ele>
        <time>2012-03-27T06:38:56Z</time>
      </trkpt>
      <trkpt lat="47.89666" lon="7.23004">
        <ele>265.4613037</ele>
        <time>2012-03-27T06:38:59Z</time>
      </trkpt>
      <trkpt lat="47.89643" lon="7.22978">
        <ele>265.4613037</ele>
        <time>2012-03-27T06:39:06Z</time>
      </trkpt>
      <trkpt lat="47.89614" lon="7.2296">
        <ele>265.4613037</ele>
        <time>2012-03-27T06:39:27Z</time>
      </trkpt>
      <trkpt lat="47.89592" lon="7.22937">
        <ele>264.9805908</ele>
        <time>2012-03-27T06:39:53Z</time>
      </trkpt>
      <trkpt lat="47.89578" lon="7.22914">
        <ele>264.9805908</ele>
        <time>2012-03-27T06:40:15Z</time>
      </trkpt>
      <trkpt lat="47.89577" lon="7.22913">
        <ele>264.9805908</ele>
        <time>2012-03-27T06:40:29Z</time>
      </trkpt>
      <trkpt lat="47.89574" lon="7.22913">
        <ele>264.9805908</ele>
        <time>2012-03-27T06:40:50Z</time>
      </trkpt>
      <trkpt lat="47.89567" lon="7.22907">
        <ele>264.9805908</ele>
        <time>2012-03-27T06:41:08Z</time>
      </trkpt>
      <trkpt lat="47.89549" lon="7.22878">
        <ele>265.9418945</ele>
        <time>2012-03-27T06:41:25Z</time>
      </trkpt>
      <trkpt lat="47.89522" lon="7.22851">
        <ele>265.9418945</ele>
        <time>2012-03-27T06:41:43Z</time>
      </trkpt>
      <trkpt lat="47.89501" lon="7.22829">
        <ele>265.9418945</ele>
        <time>2012-03-27T06:41:54Z</time>
      </trkpt>
      <trkpt lat="47.89488" lon="7.22815">
        <ele>265.9418945</ele>
        <time>2012-03-27T06:42:15Z</time>
      </trkpt>
      <trkpt lat="47.89465" lon="7.22792">
        <ele>265.9418945</ele>
        <time>2012-03-27T06:42:35Z</time>
      </trkpt>
      <trkpt lat="47.89448" lon="7.22778">
        <ele>264.9805908</ele>
        <time>2012-03-27T06:42:56Z</time>
      </trkpt>
      <trkpt lat="47.89433" lon="7.22766">
        <ele>265.4613037</ele>
        <time>2012-03-27T06:43:20Z</time>
      </trkpt>
      <trkpt lat="47.89412" lon="7.22747">
        <ele>264.9805908</ele>
        <time>2012-03-27T06:43:37Z</time>
      </trkpt>
      <trkpt lat="47.89399" lon="7.22738">
        <ele>264.9805908</ele>
        <time>2012-03-27T06:43:52Z</time>
      </trkpt>
      <trkpt lat="47.89373" lon="7.22719">
        <ele>264.9805908</ele>
        <time>2012-03-27T06:44:08Z</time>
      </trkpt>
      <trkpt lat="47.8935" lon="7.22707">
        <ele>265.4613037</ele>
        <time>2012-03-27T06:44:24Z</time>
      </trkpt>
      <trkpt lat="47.89324" lon="7.22694">
        <ele>264.9805908</ele>
        <time>2012-03-27T06:44:25Z</time>
      </trkpt>
      <trkpt lat="47.89297" lon="7.2268">
        <ele>264.9805908</ele>
        <time>2012-03-27T06:44:27Z</time>
      </trkpt>
      <trkpt lat="47.89276" lon="7.22664">
        <ele>264.4998779</ele>
        <time>2012-03-27T06:44:35Z</time>
      </trkpt>
      <trkpt lat="47.8926" lon="7.22659">
        <ele>264.9805908</ele>
        <time>2012-03-27T06:44:42Z</time>
      </trkpt>
      <trkpt lat="47.89247" lon="7.22643">
        <ele>264.9805908</ele>
        <time>2012-03-27T06:45:08Z</time>
      </trkpt>
      <trkpt lat="47.89229" lon="7.22624">
        <ele>264.9805908</ele>
        <time>2012-03-27T06:45:27Z</time>
      </trkpt>
      <trkpt lat="47.89227" lon="7.22623">
        <ele>264.9805908</ele>
        <time>2012-03-27T06:45:29Z</time>
      </trkpt>
      <trkpt lat="47.89225" lon="7.22623">
        <ele>264.9805908</ele>
        <time>2012-03-27T06:45:38Z</time>
      </trkpt>
      <trkpt lat="47.89217" lon="7.22621">
        <ele>264.9805908</ele>
        <time>2012-03-27T06:45:58Z</time>
      </trkpt>
      <trkpt lat="47.8921" lon="7.22617">
        <ele>264.9805908</ele>
        <time>2012-03-27T06:46:18Z</time>
      </trkpt>
      <trkpt lat="47.89177" lon="7.22609">
        <ele>264.9805908</ele>
        <time>2012-03-27T06:46:23Z</time>
      </trkpt>
      <trkpt lat="47.89154" lon="7.22605">
        <ele>265.4613037</ele>
        <time>2012-03-27T06:46:33Z</time>
      </trkpt>
      <trkpt lat="47.89152" lon="7.22604">
        <ele>264.9805908</ele>
        <time>2012-03-27T06:46:35Z</time>
      </trkpt>
      <trkpt lat="47.89142" lon="7.22607">
        <ele>265.4613037</ele>
        <time>2012-03-27T06:46:52Z</time>
      </trkpt>
      <trkpt lat="47.89117" lon="7.22609">
        <ele>264.9805908</ele>
        <time>2012-03-27T06:47:11Z</time>
      </trkpt>
      <trkpt lat="47.89092" lon="7.22612">
        <ele>265.4613037</ele>
        <time>2012-03-27T06:47:32Z</time>
      </trkpt>
      <trkpt lat="47.89086" lon="7.22616">
        <ele>264.9805908</ele>
        <time>2012-03-27T06:47:49Z</time>
      </trkpt>
      <trkpt lat="47.89075" lon="7.22619">
        <ele>265.4613037</ele>
        <time>2012-03-27T06:48:16Z</time>
      </trkpt>
      <trkpt lat="47.89073" lon="7.22619">
        <ele>265.4613037</ele>
        <time>2012-03-27T06:48:35Z</time>
      </trkpt>
      <trkpt lat="47.89052" lon="7.22623">
        <ele>265.9418945</ele>
        <time>2012-03-27T06:48:42Z</time>
      </trkpt>
      <trkpt lat="47.8903" lon="7.22613">
        <ele>265.9418945</ele>
        <time>2012-03-27T06:49:11Z</time>
      </trkpt>
      <trkpt lat="47.89007" lon="7.22619">
        <ele>265.9418945</ele>
        <time>2012-03-27T06:49:28Z</time>
      </trkpt>
      <trkpt lat="47.89004" lon="7.2262">
        <ele>265.9418945</ele>
        <time>2012-03-27T06:49:32Z</time>
      </trkpt>
      <trkpt lat="47.89004" lon="7.22619">
        <ele>265.9418945</ele>
        <time>2012-03-27T06:49:51Z</time>
      </trkpt>
      <trkpt lat="47.89016" lon="7.2259">
        <ele>265.9418945</ele>
        <time>2012-03-27T06:50:13Z</time>
      </trkpt>
      <trkpt lat="47.89018" lon="7.22576">
        <ele>265.9418945</ele>
        <time>2012-03-27T06:50:33Z</time>
      </trkpt>
      <trkpt lat="47.89033" lon="7.22526">
        <ele>266.9031982</ele>
        <time>2012-03-27T06:50:52Z</time>
      </trkpt>
      <trkpt lat="47.89037" lon="7.22495">
        <ele>268.3450928</ele>
        <time>2012-03-27T06:51:19Z</time>
      </trkpt>
      <trkpt lat="47.89039" lon="7.22484">
        <ele>267.864502</ele>
        <time>2012-03-27T06:51:35Z</time>
      </trkpt>
      <trkpt lat="47.8904" lon="7.22455">
        <ele>268.3450928</ele>
        <time>2012-03-27T06:52:09Z</time>
      </trkpt>
      <trkpt lat="47.89041" lon="7.22413">
        <ele>269.3065186</ele>
        <time>2012-03-27T06:52:55Z</time>
      </trkpt>
      <trkpt lat="47.89043" lon="7.22369">
        <ele>269.7871094</ele>
        <time>2012-03-27T06:53:12Z</time>
      </trkpt>
      <trkpt lat="47.89043" lon="7.22333">
        <ele>270.7484131</ele>
        <time>2012-03-27T06:53:30Z</time>
      </trkpt>
      <trkpt lat="47.89046" lon="7.22281">
        <ele>272.1904297</ele>
        <time>2012-03-27T06:53:54Z</time>
      </trkpt>
      <trkpt lat="47.89048" lon="7.22274">
        <ele>273.1518555</ele>
        <time>2012-03-27T06:54:12Z</time>
      </trkpt>
      <trkpt lat="47.89049" lon="7.2227">
        <ele>273.1518555</ele>
        <time>2012-03-27T06:54:31Z</time>
      </trkpt>
      <trkpt lat="47.89044" lon="7.22259">
        <ele>274.59375</ele>
        <time>2012-03-27T06:54:53Z</time>
      </trkpt>
      <trkpt lat="47.89034" lon="7.22217">
        <ele>276.5163574</ele>
        <time>2012-03-27T06:55:03Z</time>
      </trkpt>
      <trkpt lat="47.89028" lon="7.22185">
        <ele>278.9196777</ele>
        <time>2012-03-27T06:55:07Z</time>
      </trkpt>
      <trkpt lat="47.89024" lon="7.22147">
        <ele>281.8035889</ele>
        <time>2012-03-27T06:55:10Z</time>
      </trkpt>
      <trkpt lat="47.89019" lon="7.22121">
        <ele>284.2069092</ele>
        <time>2012-03-27T06:55:30Z</time>
      </trkpt>
      <trkpt lat="47.89012" lon="7.22092">
        <ele>286.6102295</ele>
        <time>2012-03-27T06:55:31Z</time>
      </trkpt>
      <trkpt lat="47.89005" lon="7.22059">
        <ele>289.0135498</ele>
        <time>2012-03-27T06:55:51Z</time>
      </trkpt>
      <trkpt lat="47.88999" lon="7.22045">
        <ele>289.9748535</ele>
        <time>2012-03-27T06:55:55Z</time>
      </trkpt>
      <trkpt lat="47.88997" lon="7.22039">
        <ele>290.4555664</ele>
        <time>2012-03-27T06:56:12Z</time>
      </trkpt>
      <trkpt lat="47.88996" lon="7.22034">
        <ele>291.8974609</ele>
        <time>2012-03-27T06:56:20Z</time>
      </trkpt>
      <trkpt lat="47.88988" lon="7.22002">
        <ele>293.8200684</ele>
        <time>2012-03-27T06:56:25Z</time>
      </trkpt>
      <trkpt lat="47.88988" lon="7.22001">
        <ele>294.3007813</ele>
        <time>2012-03-27T06:56:38Z</time>
      </trkpt>
      <trkpt lat="47.88987" lon="7.21967">
        <ele>296.7041016</ele>
        <time>2012-03-27T06:56:42Z</time>
      </trkpt>
      <trkpt lat="47.88989" lon="7.21962">
        <ele>296.7041016</ele>
        <time>2012-03-27T06:56:48Z</time>
      </trkpt>
      <trkpt lat="47.88991" lon="7.21949">
        <ele>298.1461182</ele>
        <time>2012-03-27T06:57:02Z</time>
      </trkpt>
      <trkpt lat="47.88993" lon="7.21937">
        <ele>298.626709</ele>
        <time>2012-03-27T06:57:19Z</time>
      </trkpt>
      <trkpt lat="47.88996" lon="7.21929">
        <ele>299.1072998</ele>
        <time>2012-03-27T06:57:33Z</time>
      </trkpt>
      <trkpt lat="47.88998" lon="7.2191">
        <ele>300.5493164</ele>
        <time>2012-03-27T06:57:36Z</time>
      </trkpt>
      <trkpt lat="47.88998" lon="7.21904">
        <ele>301.0299072</ele>
        <time>2012-03-27T06:57:44Z</time>
      </trkpt>
      <trkpt lat="47.88998" lon="7.21894">
        <ele>301.5106201</ele>
        <time>2012-03-27T06:57:47Z</time>
      </trkpt>
      <trkpt lat="47.88997" lon="7.21873">
        <ele>303.4332275</ele>
        <time>2012-03-27T06:57:57Z</time>
      </trkpt>
      <trkpt lat="47.88994" lon="7.21849">
        <ele>305.355957</ele>
        <time>2012-03-27T06:58:06Z</time>
      </trkpt>
      <trkpt lat="47.88991" lon="7.21826">
        <ele>306.3172607</ele>
        <time>2012-03-27T06:58:12Z</time>
      </trkpt>
      <trkpt lat="47.8899" lon="7.2182">
        <ele>307.2785645</ele>
        <time>2012-03-27T06:58:23Z</time>
      </trkpt>
      <trkpt lat="47.8899" lon="7.21808">
        <ele>307.7592773</ele>
        <time>2012-03-27T06:58:27Z</time>
      </trkpt>
      <trkpt lat="47.88988" lon="7.21804">
        <ele>307.7592773</ele>
        <time>2012-03-27T06:58:41Z</time>
      </trkpt>
      <trkpt lat="47.8899" lon="7.2179">
        <ele>309.2011719</ele>
        <time>2012-03-27T06:58:50Z</time>
      </trkpt>
      <trkpt lat="47.88989" lon="7.21777">
        <ele>310.1624756</ele>
        <time>2012-03-27T06:58:52Z</time>
      </trkpt>
      <trkpt lat="47.88987" lon="7.21768">
        <ele>311.6044922</ele>
        <time>2012-03-27T06:59:00Z</time>
      </trkpt>
      <trkpt lat="47.88986" lon="7.21752">
        <ele>312.5657959</ele>
        <time>2012-03-27T06:59:16Z</time>
      </trkpt>
      <trkpt lat="47.88987" lon="7.21747">
        <ele>313.0465088</ele>
        <time>2012-03-27T06:59:32Z</time>
      </trkpt>
      <trkpt lat="47.88984" lon="7.21726">
        <ele>314.4884033</ele>
        <time>2012-03-27T06:59:46Z</time>
      </trkpt>
      <trkpt lat="47.88984" lon="7.21712">
        <ele>315.4498291</ele>
        <time>2012-03-27T06:59:54Z</time>
      </trkpt>
      <trkpt lat="47.88985" lon="7.21707">
        <ele>315.9304199</ele>
        <time>2012-03-27T07:00:14Z</time>
      </trkpt>
      <trkpt lat="47.88985" lon="7.2169">
        <ele>316.4110107</ele>
        <time>2012-03-27T07:00:47Z</time>
      </trkpt>
      <trkpt lat="47.8899" lon="7.21669">
        <ele>318.8143311</ele>
        <time>2012-03-27T07:00:51Z</time>
      </trkpt>
      <trkpt lat="47.8899" lon="7.21647">
        <ele>320.2563477</ele>
        <time>2012-03-27T07:01:08Z</time>
      </trkpt>
      <trkpt lat="47.88989" lon="7.21657">
        <ele>319.2950439</ele>
        <time>2012-03-27T07:01:27Z</time>
      </trkpt>
      <trkpt lat="47.88989" lon="7.21661">
        <ele>319.2950439</ele>
        <time>2012-03-27T07:02:11Z</time>
      </trkpt>
      <trkpt lat="47.88984" lon="7.21671">
        <ele>320.2563477</ele>
        <time>2012-03-27T07:02:25Z</time>
      </trkpt>
      <trkpt lat="47.88979" lon="7.21675">
        <ele>320.7370605</ele>
        <time>2012-03-27T07:02:37Z</time>
      </trkpt>
      <trkpt lat="47.88979" lon="7.21677">
        <ele>320.2563477</ele>
        <time>2012-03-27T07:02:54Z</time>
      </trkpt>
      <trkpt lat="47.88976" lon="7.21678">
        <ele>320.7370605</ele>
        <time>2012-03-27T07:03:02Z</time>
      </trkpt>
      <trkpt lat="47.88978" lon="7.2167">
        <ele>320.7370605</ele>
        <time>2012-03-27T07:03:14Z</time>
      </trkpt>
      <trkpt lat="47.88986" lon="7.21648">
        <ele>320.7370605</ele>
        <time>2012-03-27T07:03:25Z</time>
      </trkpt>
      <trkpt lat="47.88988" lon="7.21621">
        <ele>322.659668</ele>
        <time>2012-03-27T07:03:41Z</time>
      </trkpt>
      <trkpt lat="47.88987" lon="7.21601">
        <ele>324.1015625</ele>
        <time>2012-03-27T07:04:03Z</time>
      </trkpt>
      <trkpt lat="47.88985" lon="7.21569">
        <ele>326.5048828</ele>
        <time>2012-03-27T07:04:23Z</time>
      </trkpt>
      <trkpt lat="47.88984" lon="7.21556">
        <ele>327.4661865</ele>
        <time>2012-03-27T07:04:45Z</time>
      </trkpt>
      <trkpt lat="47.88978" lon="7.21537">
        <ele>329.388916</ele>
        <time>2012-03-27T07:05:05Z</time>
      </trkpt>
      <trkpt lat="47.88973" lon="7.21522">
        <ele>330.8309326</ele>
        <time>2012-03-27T07:05:23Z</time>
      </trkpt>
      <trkpt lat="47.88962" lon="7.21496">
        <ele>332.2728271</ele>
        <time>2012-03-27T07:05:29Z</time>
      </trkpt>
      <trkpt lat="47.88953" lon="7.21465">
        <ele>334.6761475</ele>
        <time>2012-03-27T07:05:33Z</time>
      </trkpt>
      <trkpt lat="47.88939" lon="7.21443">
        <ele>337.0794678</ele>
        <time>2012-03-27T07:05:35Z</time>
      </trkpt>
      <trkpt lat="47.88925" lon="7.21417">
        <ele>339.482666</ele>
        <time>2012-03-27T07:05:37Z</time>
      </trkpt>
      <trkpt lat="47.88913" lon="7.21394">
        <ele>341.4052734</ele>
        <time>2012-03-27T07:05:51Z</time>
      </trkpt>
      <trkpt lat="47.88904" lon="7.21374">
        <ele>341.8859863</ele>
        <time>2012-03-27T07:06:03Z</time>
      </trkpt>
      <trkpt lat="47.88898" lon="7.2137">
        <ele>341.8859863</ele>
        <time>2012-03-27T07:06:04Z</time>
      </trkpt>
      <trkpt lat="47.88896" lon="7.21367">
        <ele>341.8859863</ele>
        <time>2012-03-27T07:06:27Z</time>
      </trkpt>
      <trkpt lat="47.88896" lon="7.21364">
        <ele>342.3666992</ele>
        <time>2012-03-27T07:06:52Z</time>
      </trkpt>
      <trkpt lat="47.88894" lon="7.21363">
        <ele>342.3666992</ele>
        <time>2012-03-27T07:07:16Z</time>
      </trkpt>
      <trkpt lat="47.88891" lon="7.21361">
        <ele>342.3666992</ele>
        <time>2012-03-27T07:07:35Z</time>
      </trkpt>
      <trkpt lat="47.88883" lon="7.21347">
        <ele>342.84729</ele>
        <time>2012-03-27T07:07:52Z</time>
      </trkpt>
      <trkpt lat="47.88883" lon="7.21345">
        <ele>342.84729</ele>
        <time>2012-03-27T07:08:10Z</time>
      </trkpt>
      <trkpt lat="47.88865" lon="7.21316">
        <ele>342.3666992</ele>
        <time>2012-03-27T07:08:12Z</time>
      </trkpt>
      <trkpt lat="47.88846" lon="7.21289">
        <ele>340.9246826</ele>
        <time>2012-03-27T07:08:33Z</time>
      </trkpt>
      <trkpt lat="47.88828" lon="7.21264">
        <ele>339.9633789</ele>
        <time>2012-03-27T07:08:57Z</time>
      </trkpt>
      <trkpt lat="47.88817" lon="7.21235">
        <ele>339.0020752</ele>
        <time>2012-03-27T07:09:23Z</time>
      </trkpt>
      <trkpt lat="47.8881" lon="7.21218">
        <ele>339.0020752</ele>
        <time>2012-03-27T07:09:44Z</time>
      </trkpt>
      <trkpt lat="47.88806" lon="7.21216">
        <ele>338.5214844</ele>
        <time>2012-03-27T07:09:49Z</time>
      </trkpt>
      <trkpt lat="47.88805" lon="7.21213">
        <ele>338.5214844</ele>
        <time>2012-03-27T07:10:05Z</time>
      </trkpt>
      <trkpt lat="47.8879" lon="7.21183">
        <ele>336.598877</ele>
        <time>2012-03-27T07:10:48Z</time>
      </trkpt>
      <trkpt lat="47.8877" lon="7.21157">
        <ele>333.2341309</ele>
        <time>2012-03-27T07:11:03Z</time>
      </trkpt>
      <trkpt lat="47.88746" lon="7.21131">
        <ele>330.3502197</ele>
        <time>2012-03-27T07:11:25Z</time>
      </trkpt>
      <trkpt lat="47.88726" lon="7.21109">
        <ele>327.4661865</ele>
        <time>2012-03-27T07:11:27Z</time>
      </trkpt>
      <trkpt lat="47.88722" lon="7.21103">
        <ele>326.9855957</ele>
        <time>2012-03-27T07:11:47Z</time>
      </trkpt>
      <trkpt lat="47.88719" lon="7.21097">
        <ele>326.0241699</ele>
        <time>2012-03-27T07:12:09Z</time>
      </trkpt>
      <trkpt lat="47.88719" lon="7.21097">
        <ele>326.5048828</ele>
        <time>2012-03-27T07:12:27Z</time>
      </trkpt>
      <trkpt lat="47.88705" lon="7.21089">
        <ele>325.5435791</ele>
        <time>2012-03-27T07:12:52Z</time>
      </trkpt>
      <trkpt lat="47.88682" lon="7.21063">
        <ele>323.1403809</ele>
        <time>2012-03-27T07:13:14Z</time>
      </trkpt>
      <trkpt lat="47.8868" lon="7.21061">
        <ele>322.659668</ele>
        <time>2012-03-27T07:13:33Z</time>
      </trkpt>
      <trkpt lat="47.8866" lon="7.2104">
        <ele>320.7370605</ele>
        <time>2012-03-27T07:13:48Z</time>
      </trkpt>
      <trkpt lat="47.88643" lon="7.21017">
        <ele>319.2950439</ele>
        <time>2012-03-27T07:14:10Z</time>
      </trkpt>
      <trkpt lat="47.88628" lon="7.20989">
        <ele>317.8530273</ele>
        <time>2012-03-27T07:14:20Z</time>
      </trkpt>
      <trkpt lat="47.8862" lon="7.20954">
        <ele>316.4110107</ele>
        <time>2012-03-27T07:14:34Z</time>
      </trkpt>
      <trkpt lat="47.88617" lon="7.20915">
        <ele>315.4498291</ele>
        <time>2012-03-27T07:14:53Z</time>
      </trkpt>
      <trkpt lat="47.88617" lon="7.20886">
        <ele>314.4884033</ele>
        <time>2012-03-27T07:15:13Z</time>
      </trkpt>
      <trkpt lat="47.88611" lon="7.20853">
        <ele>314.4884033</ele>
        <time>2012-03-27T07:15:29Z</time>
      </trkpt>
      <trkpt lat="47.88599" lon="7.20822">
        <ele>315.4498291</ele>
        <time>2012-03-27T07:15:42Z</time>
      </trkpt>
      <trkpt lat="47.88591" lon="7.20801">
        <ele>316.8917236</ele>
        <time>2012-03-27T07:16:00Z</time>
      </trkpt>
      <trkpt lat="47.88581" lon="7.20774">
        <ele>318.8143311</ele>
        <time>2012-03-27T07:16:12Z</time>
      </trkpt>
      <trkpt lat="47.88579" lon="7.20749">
        <ele>321.2177734</ele>
        <time>2012-03-27T07:16:26Z</time>
      </trkpt>
      <trkpt lat="47.88576" lon="7.20726">
        <ele>323.1403809</ele>
        <time>2012-03-27T07:16:40Z</time>
      </trkpt>
      <trkpt lat="47.88573" lon="7.20706">
        <ele>323.1403809</ele>
        <time>2012-03-27T07:16:47Z</time>
      </trkpt>
      <trkpt lat="47.88566" lon="7.20679">
        <ele>322.659668</ele>
        <time>2012-03-27T07:17:08Z</time>
      </trkpt>
      <trkpt lat="47.88554" lon="7.20642">
        <ele>320.2563477</ele>
        <time>2012-03-27T07:17:09Z</time>
      </trkpt>
      <trkpt lat="47.88543" lon="7.20627">
        <ele>318.3336182</ele>
        <time>2012-03-27T07:17:24Z</time>
      </trkpt>
      <trkpt lat="47.88537" lon="7.20612">
        <ele>317.8530273</ele>
        <time>2012-03-27T07:17:40Z</time>
      </trkpt>
      <trkpt lat="47.88547" lon="7.20597">
        <ele>318.3336182</ele>
        <time>2012-03-27T07:17:46Z</time>
      </trkpt>
      <trkpt lat="47.88552" lon="7.20592">
        <ele>318.8143311</ele>
        <time>2012-03-27T07:17:55Z</time>
      </trkpt>
      <trkpt lat="47.88568" lon="7.20558">
        <ele>319.2950439</ele>
        <time>2012-03-27T07:18:13Z</time>
      </trkpt>
      <trkpt lat="47.88569" lon="7.20556">
        <ele>319.7756348</ele>
        <time>2012-03-27T07:18:33Z</time>
      </trkpt>
      <trkpt lat="47.8857" lon="7.20522">
        <ele>320.7370605</ele>
        <time>2012-03-27T07:18:55Z</time>
      </trkpt>
      <trkpt lat="47.88576" lon="7.20501">
        <ele>321.6983643</ele>
        <time>2012-03-27T07:19:16Z</time>
      </trkpt>
      <trkpt lat="47.88578" lon="7.2049">
        <ele>322.1789551</ele>
        <time>2012-03-27T07:19:37Z</time>
      </trkpt>
      <trkpt lat="47.88574" lon="7.20471">
        <ele>322.1789551</ele>
        <time>2012-03-27T07:19:55Z</time>
      </trkpt>
      <trkpt lat="47.88572" lon="7.2044">
        <ele>322.659668</ele>
        <time>2012-03-27T07:20:01Z</time>
      </trkpt>
      <trkpt lat="47.88569" lon="7.20406">
        <ele>323.6209717</ele>
        <time>2012-03-27T07:20:17Z</time>
      </trkpt>
      <trkpt lat="47.88566" lon="7.20367">
        <ele>325.0629883</ele>
        <time>2012-03-27T07:20:33Z</time>
      </trkpt>
      <trkpt lat="47.88562" lon="7.20335">
        <ele>325.5435791</ele>
        <time>2012-03-27T07:20:53Z</time>
      </trkpt>
      <trkpt lat="47.88555" lon="7.20298">
        <ele>325.0629883</ele>
        <time>2012-03-27T07:21:06Z</time>
      </trkpt>
      <trkpt lat="47.88548" lon="7.20264">
        <ele>325.0629883</ele>
        <time>2012-03-27T07:21:24Z</time>
      </trkpt>
      <trkpt lat="47.88546" lon="7.20254">
        <ele>325.0629883</ele>
        <time>2012-03-27T07:21:42Z</time>
      </trkpt>
      <trkpt lat="47.88541" lon="7.20227">
        <ele>324.5822754</ele>
        <time>2012-03-27T07:22:01Z</time>
      </trkpt>
      <trkpt lat="47.88537" lon="7.20198">
        <ele>324.5822754</ele>
        <time>2012-03-27T07:22:21Z</time>
      </trkpt>
      <trkpt lat="47.88529" lon="7.20162">
        <ele>324.5822754</ele>
        <time>2012-03-27T07:22:41Z</time>
      </trkpt>
      <trkpt lat="47.88527" lon="7.20138">
        <ele>325.5435791</ele>
        <time>2012-03-27T07:23:04Z</time>
      </trkpt>
      <trkpt lat="47.88524" lon="7.20114">
        <ele>325.5435791</ele>
        <time>2012-03-27T07:23:25Z</time>
      </trkpt>
      <trkpt lat="47.88518" lon="7.20075">
        <ele>324.5822754</ele>
        <time>2012-03-27T07:23:39Z</time>
      </trkpt>
      <trkpt lat="47.8851" lon="7.20048">
        <ele>322.659668</ele>
        <time>2012-03-27T07:24:01Z</time>
      </trkpt>
      <trkpt lat="47.88501" lon="7.20017">
        <ele>321.2177734</ele>
        <time>2012-03-27T07:24:04Z</time>
      </trkpt>
      <trkpt lat="47.88488" lon="7.19985">
        <ele>320.2563477</ele>
        <time>2012-03-27T07:24:23Z</time>
      </trkpt>
      <trkpt lat="47.88486" lon="7.19942">
        <ele>318.8143311</ele>
        <time>2012-03-27T07:24:46Z</time>
      </trkpt>
      <trkpt lat="47.88478" lon="7.19907">
        <ele>317.8530273</ele>
        <time>2012-03-27T07:25:15Z</time>
      </trkpt>
      <trkpt lat="47.88477" lon="7.19894">
        <ele>318.3336182</ele>
        <time>2012-03-27T07:25:41Z</time>
      </trkpt>
      <trkpt lat="47.88485" lon="7.19877">
        <ele>318.8143311</ele>
        <time>2012-03-27T07:26:06Z</time>
      </trkpt>
      <trkpt lat="47.88486" lon="7.19873">
        <ele>319.2950439</ele>
        <time>2012-03-27T07:26:37Z</time>
      </trkpt>
      <trkpt lat="47.88497" lon="7.19844">
        <ele>320.2563477</ele>
        <time>2012-03-27T07:27:05Z</time>
      </trkpt>
      <trkpt lat="47.88503" lon="7.19814">
        <ele>320.7370605</ele>
        <time>2012-03-27T07:27:44Z</time>
      </trkpt>
      <trkpt lat="47.88504" lon="7.19804">
        <ele>321.2177734</ele>
        <time>2012-03-27T07:28:15Z</time>
      </trkpt>
      <trkpt lat="47.88504" lon="7.19761">
        <ele>321.2177734</ele>
        <time>2012-03-27T07:29:15Z</time>
      </trkpt>
      <trkpt lat="47.88508" lon="7.1972">
        <ele>321.6983643</ele>
        <time>2012-03-27T07:29:55Z</time>
      </trkpt>
      <trkpt lat="47.88512" lon="7.19667">
        <ele>322.659668</ele>
        <time>2012-03-27T07:30:26Z</time>
      </trkpt>
      <trkpt lat="47.8851" lon="7.19631">
        <ele>322.659668</ele>
        <time>2012-03-27T07:30:49Z</time>
      </trkpt>
      <trkpt lat="47.8848" lon="7.19586">
        <ele>324.1015625</ele>
        <time>2012-03-27T07:31:06Z</time>
      </trkpt>
      <trkpt lat="47.88449" lon="7.19566">
        <ele>325.5435791</ele>
        <time>2012-03-27T07:31:19Z</time>
      </trkpt>
      <trkpt lat="47.88439" lon="7.19562">
        <ele>325.5435791</ele>
        <time>2012-03-27T07:31:34Z</time>
      </trkpt>
      <trkpt lat="47.88438" lon="7.19555">
        <ele>325.5435791</ele>
        <time>2012-03-27T07:31:50Z</time>
      </trkpt>
      <trkpt lat="47.88431" lon="7.19542">
        <ele>327.4661865</ele>
        <time>2012-03-27T07:32:05Z</time>
      </trkpt>
      <trkpt lat="47.8841" lon="7.19517">
        <ele>329.388916</ele>
        <time>2012-03-27T07:32:22Z</time>
      </trkpt>
      <trkpt lat="47.88395" lon="7.19511">
        <ele>330.8309326</ele>
        <time>2012-03-27T07:32:38Z</time>
      </trkpt>
      <trkpt lat="47.88378" lon="7.19508">
        <ele>331.7921143</ele>
        <time>2012-03-27T07:32:56Z</time>
      </trkpt>
      <trkpt lat="47.88369" lon="7.19509">
        <ele>333.2341309</ele>
        <time>2012-03-27T07:33:04Z</time>
      </trkpt>
      <trkpt lat="47.88353" lon="7.19485">
        <ele>334.6761475</ele>
        <time>2012-03-27T07:33:07Z</time>
      </trkpt>
      <trkpt lat="47.88342" lon="7.19458">
        <ele>336.1181641</ele>
        <time>2012-03-27T07:33:23Z</time>
      </trkpt>
      <trkpt lat="47.88325" lon="7.19439">
        <ele>337.5600586</ele>
        <time>2012-03-27T07:33:40Z</time>
      </trkpt>
      <trkpt lat="47.8831" lon="7.19421">
        <ele>338.5214844</ele>
        <time>2012-03-27T07:33:54Z</time>
      </trkpt>
      <trkpt lat="47.88291" lon="7.194">
        <ele>339.0020752</ele>
        <time>2012-03-27T07:34:13Z</time>
      </trkpt>
      <trkpt lat="47.88291" lon="7.19392">
        <ele>339.482666</ele>
        <time>2012-03-27T07:34:28Z</time>
      </trkpt>
      <trkpt lat="47.88287" lon="7.19385">
        <ele>339.9633789</ele>
        <time>2012-03-27T07:34:39Z</time>
      </trkpt>
      <trkpt lat="47.88283" lon="7.19362">
        <ele>339.9633789</ele>
        <time>2012-03-27T07:34:54Z</time>
      </trkpt>
      <trkpt lat="47.88274" lon="7.1934">
        <ele>340.4440918</ele>
        <time>2012-03-27T07:35:17Z</time>
      </trkpt>
      <trkpt lat="47.88268" lon="7.19322">
        <ele>340.9246826</ele>
        <time>2012-03-27T07:35:40Z</time>
      </trkpt>
      <trkpt lat="47.88281" lon="7.19344">
        <ele>341.4052734</ele>
        <time>2012-03-27T07:36:12Z</time>
      </trkpt>
      <trkpt lat="47.88286" lon="7.19329">
        <ele>343.3278809</ele>
        <time>2012-03-27T07:36:40Z</time>
      </trkpt>
      <trkpt lat="47.88282" lon="7.19309">
        <ele>343.3278809</ele>
        <time>2012-03-27T07:37:02Z</time>
      </trkpt>
      <trkpt lat="47.88272" lon="7.19284">
        <ele>343.3278809</ele>
        <time>2012-03-27T07:37:21Z</time>
      </trkpt>
      <trkpt lat="47.88262" lon="7.19252">
        <ele>343.8085938</ele>
        <time>2012-03-27T07:37:41Z</time>
      </trkpt>
      <trkpt lat="47.8825" lon="7.19205">
        <ele>344.7700195</ele>
        <time>2012-03-27T07:38:00Z</time>
      </trkpt>
      <trkpt lat="47.88237" lon="7.19165">
        <ele>346.2120361</ele>
        <time>2012-03-27T07:38:14Z</time>
      </trkpt>
      <trkpt lat="47.88235" lon="7.19132">
        <ele>347.6539307</ele>
        <time>2012-03-27T07:38:31Z</time>
      </trkpt>
      <trkpt lat="47.88226" lon="7.19095">
        <ele>349.0958252</ele>
        <time>2012-03-27T07:38:50Z</time>
      </trkpt>
      <trkpt lat="47.88218" lon="7.19078">
        <ele>350.057251</ele>
        <time>2012-03-27T07:39:10Z</time>
      </trkpt>
      <trkpt lat="47.88211" lon="7.19056">
        <ele>351.0184326</ele>
        <time>2012-03-27T07:39:26Z</time>
      </trkpt>
      <trkpt lat="47.88208" lon="7.19044">
        <ele>350.5378418</ele>
        <time>2012-03-27T07:39:37Z</time>
      </trkpt>
      <trkpt lat="47.88201" lon="7.19026">
        <ele>351.4991455</ele>
        <time>2012-03-27T07:40:03Z</time>
      </trkpt>
      <trkpt lat="47.88198" lon="7.19">
        <ele>352.9411621</ele>
        <time>2012-03-27T07:40:23Z</time>
      </trkpt>
      <trkpt lat="47.88192" lon="7.18975">
        <ele>353.9025879</ele>
        <time>2012-03-27T07:41:46Z</time>
      </trkpt>
      <trkpt lat="47.88182" lon="7.18947">
        <ele>355.3444824</ele>
        <time>2012-03-27T07:42:25Z</time>
      </trkpt>
      <trkpt lat="47.88184" lon="7.18934">
        <ele>355.8251953</ele>
        <time>2012-03-27T07:42:42Z</time>
      </trkpt>
      <trkpt lat="47.88181" lon="7.18918">
        <ele>356.3057861</ele>
        <time>2012-03-27T07:43:03Z</time>
      </trkpt>
      <trkpt lat="47.88168" lon="7.18883">
        <ele>357.7478027</ele>
        <time>2012-03-27T07:43:08Z</time>
      </trkpt>
      <trkpt lat="47.88162" lon="7.1886">
        <ele>358.2283936</ele>
        <time>2012-03-27T07:43:10Z</time>
      </trkpt>
      <trkpt lat="47.88153" lon="7.18857">
        <ele>357.2670898</ele>
        <time>2012-03-27T07:43:28Z</time>
      </trkpt>
      <trkpt lat="47.88148" lon="7.18857">
        <ele>356.786377</ele>
        <time>2012-03-27T07:43:29Z</time>
      </trkpt>
      <trkpt lat="47.88137" lon="7.18871">
        <ele>354.8637695</ele>
        <time>2012-03-27T07:43:33Z</time>
      </trkpt>
      <trkpt lat="47.88131" lon="7.18879">
        <ele>354.3831787</ele>
        <time>2012-03-27T07:43:48Z</time>
      </trkpt>
      <trkpt lat="47.88127" lon="7.18883">
        <ele>353.9025879</ele>
        <time>2012-03-27T07:44:00Z</time>
      </trkpt>
      <trkpt lat="47.88124" lon="7.18883">
        <ele>353.421875</ele>
        <time>2012-03-27T07:44:16Z</time>
      </trkpt>
      <trkpt lat="47.88108" lon="7.18902">
        <ele>351.9798584</ele>
        <time>2012-03-27T07:44:31Z</time>
      </trkpt>
      <trkpt lat="47.88108" lon="7.18904">
        <ele>351.9798584</ele>
        <time>2012-03-27T07:44:46Z</time>
      </trkpt>
      <trkpt lat="47.88105" lon="7.18916">
        <ele>351.9798584</ele>
        <time>2012-03-27T07:45:06Z</time>
      </trkpt>
      <trkpt lat="47.88097" lon="7.18941">
        <ele>350.5378418</ele>
        <time>2012-03-27T07:45:19Z</time>
      </trkpt>
      <trkpt lat="47.88095" lon="7.18953">
        <ele>350.057251</ele>
        <time>2012-03-27T07:45:36Z</time>
      </trkpt>
      <trkpt lat="47.88077" lon="7.18971">
        <ele>349.5765381</ele>
        <time>2012-03-27T07:46:06Z</time>
      </trkpt>
      <trkpt lat="47.88065" lon="7.18982">
        <ele>349.0958252</ele>
        <time>2012-03-27T07:46:38Z</time>
      </trkpt>
      <trkpt lat="47.88053" lon="7.18993">
        <ele>349.5765381</ele>
        <time>2012-03-27T07:46:42Z</time>
      </trkpt>
      <trkpt lat="47.88033" lon="7.19011">
        <ele>349.5765381</ele>
        <time>2012-03-27T07:46:58Z</time>
      </trkpt>
      <trkpt lat="47.88021" lon="7.19018">
        <ele>350.057251</ele>
        <time>2012-03-27T07:47:18Z</time>
      </trkpt>
      <trkpt lat="47.88014" lon="7.19016">
        <ele>350.5378418</ele>
        <time>2012-03-27T07:47:39Z</time>
      </trkpt>
      <trkpt lat="47.88012" lon="7.19021">
        <ele>350.5378418</ele>
        <time>2012-03-27T07:48:02Z</time>
      </trkpt>
      <trkpt lat="47.88015" lon="7.19026">
        <ele>350.057251</ele>
        <time>2012-03-27T07:48:26Z</time>
      </trkpt>
      <trkpt lat="47.88015" lon="7.19031">
        <ele>350.057251</ele>
        <time>2012-03-27T07:48:49Z</time>
      </trkpt>
      <trkpt lat="47.87999" lon="7.19034">
        <ele>352.4605713</ele>
        <time>2012-03-27T07:49:14Z</time>
      </trkpt>
      <trkpt lat="47.87987" lon="7.19011">
        <ele>355.3444824</ele>
        <time>2012-03-27T07:49:44Z</time>
      </trkpt>
      <trkpt lat="47.87963" lon="7.19013">
        <ele>358.2283936</ele>
        <time>2012-03-27T07:50:08Z</time>
      </trkpt>
      <trkpt lat="47.87953" lon="7.18989">
        <ele>360.6317139</ele>
        <time>2012-03-27T07:50:32Z</time>
      </trkpt>
      <trkpt lat="47.87921" lon="7.18989">
        <ele>363.0350342</ele>
        <time>2012-03-27T07:51:13Z</time>
      </trkpt>
      <trkpt lat="47.8789" lon="7.19003">
        <ele>363.9963379</ele>
        <time>2012-03-27T07:52:04Z</time>
      </trkpt>
      <trkpt lat="47.87873" lon="7.18978">
        <ele>365.9189453</ele>
        <time>2012-03-27T07:52:43Z</time>
      </trkpt>
      <trkpt lat="47.87845" lon="7.18947">
        <ele>368.3222656</ele>
        <time>2012-03-27T07:53:01Z</time>
      </trkpt>
      <trkpt lat="47.87819" lon="7.18907">
        <ele>371.6868896</ele>
        <time>2012-03-27T07:53:19Z</time>
      </trkpt>
      <trkpt lat="47.87796" lon="7.1888">
        <ele>374.5708008</ele>
        <time>2012-03-27T07:53:36Z</time>
      </trkpt>
      <trkpt lat="47.87785" lon="7.1887">
        <ele>376.0128174</ele>
        <time>2012-03-27T07:53:51Z</time>
      </trkpt>
      <trkpt lat="47.87792" lon="7.18861">
        <ele>376.9742432</ele>
        <time>2012-03-27T07:54:09Z</time>
      </trkpt>
      <trkpt lat="47.87783" lon="7.18856">
        <ele>378.8968506</ele>
        <time>2012-03-27T07:54:26Z</time>
      </trkpt>
      <trkpt lat="47.87777" lon="7.18846">
        <ele>382.2613525</ele>
        <time>2012-03-27T07:54:46Z</time>
      </trkpt>
      <trkpt lat="47.87759" lon="7.18827">
        <ele>385.1453857</ele>
        <time>2012-03-27T07:55:06Z</time>
      </trkpt>
      <trkpt lat="47.87753" lon="7.18818">
        <ele>388.5100098</ele>
        <time>2012-03-27T07:55:28Z</time>
      </trkpt>
      <trkpt lat="47.87745" lon="7.18817">
        <ele>391.8745117</ele>
        <time>2012-03-27T07:55:53Z</time>
      </trkpt>
      <trkpt lat="47.87737" lon="7.188">
        <ele>394.7585449</ele>
        <time>2012-03-27T07:56:14Z</time>
      </trkpt>
      <trkpt lat="47.8773" lon="7.18791">
        <ele>398.1231689</ele>
        <time>2012-03-27T07:56:34Z</time>
      </trkpt>
      <trkpt lat="47.87724" lon="7.18792">
        <ele>401.0070801</ele>
        <time>2012-03-27T07:56:50Z</time>
      </trkpt>
      <trkpt lat="47.87717" lon="7.18779">
        <ele>403.8911133</ele>
        <time>2012-03-27T07:57:11Z</time>
      </trkpt>
      <trkpt lat="47.87704" lon="7.1876">
        <ele>407.2556152</ele>
        <time>2012-03-27T07:57:51Z</time>
      </trkpt>
      <trkpt lat="47.87699" lon="7.18736">
        <ele>410.1396484</ele>
        <time>2012-03-27T07:58:10Z</time>
      </trkpt>
      <trkpt lat="47.877" lon="7.18717">
        <ele>412.5428467</ele>
        <time>2012-03-27T07:58:27Z</time>
      </trkpt>
      <trkpt lat="47.87704" lon="7.18681">
        <ele>414.946167</ele>
        <time>2012-03-27T07:58:44Z</time>
      </trkpt>
      <trkpt lat="47.87709" lon="7.18666">
        <ele>417.3496094</ele>
        <time>2012-03-27T07:59:02Z</time>
      </trkpt>
      <trkpt lat="47.8771" lon="7.18641">
        <ele>420.2333984</ele>
        <time>2012-03-27T07:59:20Z</time>
      </trkpt>
      <trkpt lat="47.87709" lon="7.18631">
        <ele>421.675415</ele>
        <time>2012-03-27T07:59:39Z</time>
      </trkpt>
      <trkpt lat="47.87716" lon="7.18612">
        <ele>424.5594482</ele>
        <time>2012-03-27T08:00:01Z</time>
      </trkpt>
      <trkpt lat="47.87728" lon="7.18594">
        <ele>427.9239502</ele>
        <time>2012-03-27T08:00:24Z</time>
      </trkpt>
      <trkpt lat="47.87731" lon="7.18581">
        <ele>430.8079834</ele>
        <time>2012-03-27T08:00:41Z</time>
      </trkpt>
      <trkpt lat="47.87734" lon="7.18565">
        <ele>433.6918945</ele>
        <time>2012-03-27T08:01:06Z</time>
      </trkpt>
      <trkpt lat="47.87738" lon="7.18549">
        <ele>436.5759277</ele>
        <time>2012-03-27T08:01:28Z</time>
      </trkpt>
      <trkpt lat="47.87752" lon="7.18529">
        <ele>439.9404297</ele>
        <time>2012-03-27T08:01:46Z</time>
      </trkpt>
      <trkpt lat="47.87758" lon="7.18513">
        <ele>443.3050537</ele>
        <time>2012-03-27T08:02:03Z</time>
      </trkpt>
      <trkpt lat="47.87767" lon="7.18494">
        <ele>446.1890869</ele>
        <time>2012-03-27T08:02:21Z</time>
      </trkpt>
      <trkpt lat="47.87775" lon="7.18486">
        <ele>448.5924072</ele>
        <time>2012-03-27T08:02:44Z</time>
      </trkpt>
      <trkpt lat="47.87786" lon="7.18462">
        <ele>451.9570313</ele>
        <time>2012-03-27T08:03:05Z</time>
      </trkpt>
      <trkpt lat="47.87789" lon="7.18445">
        <ele>454.8408203</ele>
        <time>2012-03-27T08:03:26Z</time>
      </trkpt>
      <trkpt lat="47.87793" lon="7.18427">
        <ele>457.2442627</ele>
        <time>2012-03-27T08:03:43Z</time>
      </trkpt>
      <trkpt lat="47.87802" lon="7.1841">
        <ele>458.2055664</ele>
        <time>2012-03-27T08:04:02Z</time>
      </trkpt>
      <trkpt lat="47.87808" lon="7.18388">
        <ele>459.647583</ele>
        <time>2012-03-27T08:04:22Z</time>
      </trkpt>
      <trkpt lat="47.87816" lon="7.18364">
        <ele>461.5701904</ele>
        <time>2012-03-27T08:04:44Z</time>
      </trkpt>
      <trkpt lat="47.87823" lon="7.18338">
        <ele>463.012085</ele>
        <time>2012-03-27T08:05:04Z</time>
      </trkpt>
      <trkpt lat="47.87825" lon="7.18303">
        <ele>463.9733887</ele>
        <time>2012-03-27T08:05:22Z</time>
      </trkpt>
      <trkpt lat="47.87816" lon="7.1827">
        <ele>463.9733887</ele>
        <time>2012-03-27T08:05:42Z</time>
      </trkpt>
      <trkpt lat="47.87809" lon="7.18247">
        <ele>465.4155273</ele>
        <time>2012-03-27T08:06:02Z</time>
      </trkpt>
      <trkpt lat="47.87812" lon="7.18227">
        <ele>467.3381348</ele>
        <time>2012-03-27T08:06:23Z</time>
      </trkpt>
      <trkpt lat="47.87808" lon="7.18202">
        <ele>468.7800293</ele>
        <time>2012-03-27T08:06:43Z</time>
      </trkpt>
      <trkpt lat="47.87811" lon="7.18173">
        <ele>468.7800293</ele>
        <time>2012-03-27T08:06:59Z</time>
      </trkpt>
      <trkpt lat="47.87814" lon="7.18134">
        <ele>469.2607422</ele>
        <time>2012-03-27T08:07:23Z</time>
      </trkpt>
      <trkpt lat="47.87818" lon="7.18104">
        <ele>470.2219238</ele>
        <time>2012-03-27T08:07:41Z</time>
      </trkpt>
      <trkpt lat="47.87839" lon="7.18084">
        <ele>472.1446533</ele>
        <time>2012-03-27T08:08:05Z</time>
      </trkpt>
      <trkpt lat="47.87852" lon="7.18053">
        <ele>474.0672607</ele>
        <time>2012-03-27T08:08:22Z</time>
      </trkpt>
      <trkpt lat="47.87851" lon="7.18023">
        <ele>476.4705811</ele>
        <time>2012-03-27T08:08:40Z</time>
      </trkpt>
      <trkpt lat="47.8785" lon="7.17996">
        <ele>478.8739014</ele>
        <time>2012-03-27T08:09:00Z</time>
      </trkpt>
      <trkpt lat="47.87846" lon="7.17969">
        <ele>481.7578125</ele>
        <time>2012-03-27T08:09:20Z</time>
      </trkpt>
      <trkpt lat="47.87844" lon="7.17941">
        <ele>483.6804199</ele>
        <time>2012-03-27T08:09:37Z</time>
      </trkpt>
      <trkpt lat="47.87846" lon="7.1791">
        <ele>485.6030273</ele>
        <time>2012-03-27T08:09:57Z</time>
      </trkpt>
      <trkpt lat="47.87848" lon="7.17894">
        <ele>487.0450439</ele>
        <time>2012-03-27T08:10:15Z</time>
      </trkpt>
      <trkpt lat="47.87847" lon="7.17867">
        <ele>488.9677734</ele>
        <time>2012-03-27T08:10:34Z</time>
      </trkpt>
      <trkpt lat="47.87839" lon="7.17838">
        <ele>490.8903809</ele>
        <time>2012-03-27T08:10:54Z</time>
      </trkpt>
      <trkpt lat="47.8784" lon="7.17808">
        <ele>493.2935791</ele>
        <time>2012-03-27T08:11:12Z</time>
      </trkpt>
      <trkpt lat="47.87841" lon="7.17789">
        <ele>495.2161865</ele>
        <time>2012-03-27T08:11:37Z</time>
      </trkpt>
      <trkpt lat="47.87843" lon="7.1776">
        <ele>498.1003418</ele>
        <time>2012-03-27T08:12:03Z</time>
      </trkpt>
      <trkpt lat="47.87841" lon="7.17743">
        <ele>500.50354</ele>
        <time>2012-03-27T08:12:24Z</time>
      </trkpt>
      <trkpt lat="47.87834" lon="7.17722">
        <ele>502.9067383</ele>
        <time>2012-03-27T08:12:43Z</time>
      </trkpt>
      <trkpt lat="47.87843" lon="7.17708">
        <ele>505.7908936</ele>
        <time>2012-03-27T08:13:00Z</time>
      </trkpt>
      <trkpt lat="47.87839" lon="7.17695">
        <ele>507.713501</ele>
        <time>2012-03-27T08:13:15Z</time>
      </trkpt>
      <trkpt lat="47.87842" lon="7.1767">
        <ele>510.59729</ele>
        <time>2012-03-27T08:13:35Z</time>
      </trkpt>
      <trkpt lat="47.87839" lon="7.17651">
        <ele>513.9620361</ele>
        <time>2012-03-27T08:13:58Z</time>
      </trkpt>
      <trkpt lat="47.87839" lon="7.17625">
        <ele>515.4040527</ele>
        <time>2012-03-27T08:14:14Z</time>
      </trkpt>
      <trkpt lat="47.87832" lon="7.17601">
        <ele>515.8846436</ele>
        <time>2012-03-27T08:14:35Z</time>
      </trkpt>
      <trkpt lat="47.87828" lon="7.17575">
        <ele>517.807251</ele>
        <time>2012-03-27T08:15:00Z</time>
      </trkpt>
      <trkpt lat="47.87821" lon="7.17556">
        <ele>517.3266602</ele>
        <time>2012-03-27T08:15:20Z</time>
      </trkpt>
      <trkpt lat="47.87816" lon="7.1753">
        <ele>516.8459473</ele>
        <time>2012-03-27T08:15:37Z</time>
      </trkpt>
      <trkpt lat="47.87814" lon="7.17497">
        <ele>517.3266602</ele>
        <time>2012-03-27T08:16:35Z</time>
      </trkpt>
      <trkpt lat="47.87813" lon="7.17472">
        <ele>517.807251</ele>
        <time>2012-03-27T08:16:58Z</time>
      </trkpt>
      <trkpt lat="47.87801" lon="7.17443">
        <ele>519.7298584</ele>
        <time>2012-03-27T08:17:22Z</time>
      </trkpt>
      <trkpt lat="47.87795" lon="7.17423">
        <ele>521.1719971</ele>
        <time>2012-03-27T08:18:00Z</time>
      </trkpt>
      <trkpt lat="47.87797" lon="7.17392">
        <ele>523.0946045</ele>
        <time>2012-03-27T08:18:42Z</time>
      </trkpt>
      <trkpt lat="47.878" lon="7.1738">
        <ele>524.0557861</ele>
        <time>2012-03-27T08:19:04Z</time>
      </trkpt>
      <trkpt lat="47.87805" lon="7.1738">
        <ele>523.5751953</ele>
        <time>2012-03-27T08:19:27Z</time>
      </trkpt>
      <trkpt lat="47.87814" lon="7.17375">
        <ele>524.0557861</ele>
        <time>2012-03-27T08:19:54Z</time>
      </trkpt>
      <trkpt lat="47.8781" lon="7.17376">
        <ele>523.5751953</ele>
        <time>2012-03-27T08:20:16Z</time>
      </trkpt>
      <trkpt lat="47.87815" lon="7.17377">
        <ele>522.6138916</ele>
        <time>2012-03-27T08:20:42Z</time>
      </trkpt>
      <trkpt lat="47.87802" lon="7.17363">
        <ele>525.0172119</ele>
        <time>2012-03-27T08:21:07Z</time>
      </trkpt>
      <trkpt lat="47.87809" lon="7.17333">
        <ele>528.3818359</ele>
        <time>2012-03-27T08:21:30Z</time>
      </trkpt>
      <trkpt lat="47.87821" lon="7.1731">
        <ele>531.2657471</ele>
        <time>2012-03-27T08:21:58Z</time>
      </trkpt>
      <trkpt lat="47.87831" lon="7.17272">
        <ele>534.1496582</ele>
        <time>2012-03-27T08:22:21Z</time>
      </trkpt>
      <trkpt lat="47.87832" lon="7.17245">
        <ele>537.5142822</ele>
        <time>2012-03-27T08:22:49Z</time>
      </trkpt>
      <trkpt lat="47.87833" lon="7.17216">
        <ele>540.3983154</ele>
        <time>2012-03-27T08:23:14Z</time>
      </trkpt>
      <trkpt lat="47.87831" lon="7.17166">
        <ele>543.2821045</ele>
        <time>2012-03-27T08:23:31Z</time>
      </trkpt>
      <trkpt lat="47.87831" lon="7.17139">
        <ele>545.6855469</ele>
        <time>2012-03-27T08:23:44Z</time>
      </trkpt>
      <trkpt lat="47.87821" lon="7.17103">
        <ele>548.5693359</ele>
        <time>2012-03-27T08:23:59Z</time>
      </trkpt>
      <trkpt lat="47.87817" lon="7.17084">
        <ele>551.934082</ele>
        <time>2012-03-27T08:24:23Z</time>
      </trkpt>
      <trkpt lat="47.87809" lon="7.17047">
        <ele>554.8178711</ele>
        <time>2012-03-27T08:24:44Z</time>
      </trkpt>
      <trkpt lat="47.87804" lon="7.17036">
        <ele>558.1828613</ele>
        <time>2012-03-27T08:25:15Z</time>
      </trkpt>
      <trkpt lat="47.87792" lon="7.17016">
        <ele>559.6247559</ele>
        <time>2012-03-27T08:25:28Z</time>
      </trkpt>
      <trkpt lat="47.87783" lon="7.17003">
        <ele>561.0666504</ele>
        <time>2012-03-27T08:25:43Z</time>
      </trkpt>
      <trkpt lat="47.87769" lon="7.16995">
        <ele>562.9892578</ele>
        <time>2012-03-27T08:26:04Z</time>
      </trkpt>
      <trkpt lat="47.87752" lon="7.16982">
        <ele>564.9118652</ele>
        <time>2012-03-27T08:26:20Z</time>
      </trkpt>
      <trkpt lat="47.8775" lon="7.16978">
        <ele>564.9118652</ele>
        <time>2012-03-27T08:26:38Z</time>
      </trkpt>
      <trkpt lat="47.87747" lon="7.16974">
        <ele>564.4311523</ele>
        <time>2012-03-27T08:26:55Z</time>
      </trkpt>
      <trkpt lat="47.87738" lon="7.1697">
        <ele>562.0280762</ele>
        <time>2012-03-27T08:27:15Z</time>
      </trkpt>
      <trkpt lat="47.87727" lon="7.1697">
        <ele>559.6247559</ele>
        <time>2012-03-27T08:27:32Z</time>
      </trkpt>
      <trkpt lat="47.8771" lon="7.16947">
        <ele>557.7021484</ele>
        <time>2012-03-27T08:27:45Z</time>
      </trkpt>
      <trkpt lat="47.87695" lon="7.16927">
        <ele>557.2214355</ele>
        <time>2012-03-27T08:27:54Z</time>
      </trkpt>
      <trkpt lat="47.87689" lon="7.16903">
        <ele>557.2214355</ele>
        <time>2012-03-27T08:28:11Z</time>
      </trkpt>
      <trkpt lat="47.87688" lon="7.1688">
        <ele>556.7407227</ele>
        <time>2012-03-27T08:28:30Z</time>
      </trkpt>
      <trkpt lat="47.87668" lon="7.16838">
        <ele>554.8178711</ele>
        <time>2012-03-27T08:28:48Z</time>
      </trkpt>
      <trkpt lat="47.87667" lon="7.1681">
        <ele>554.3374023</ele>
        <time>2012-03-27T08:29:10Z</time>
      </trkpt>
      <trkpt lat="47.87664" lon="7.16791">
        <ele>554.8178711</ele>
        <time>2012-03-27T08:29:21Z</time>
      </trkpt>
      <trkpt lat="47.87654" lon="7.16772">
        <ele>555.298584</ele>
        <time>2012-03-27T08:29:37Z</time>
      </trkpt>
      <trkpt lat="47.87645" lon="7.16743">
        <ele>555.298584</ele>
        <time>2012-03-27T08:29:53Z</time>
      </trkpt>
      <trkpt lat="47.87631" lon="7.167">
        <ele>555.298584</ele>
        <time>2012-03-27T08:30:12Z</time>
      </trkpt>
      <trkpt lat="47.87628" lon="7.16681">
        <ele>556.7407227</ele>
        <time>2012-03-27T08:30:29Z</time>
      </trkpt>
      <trkpt lat="47.87614" lon="7.1665">
        <ele>553.8566895</ele>
        <time>2012-03-27T08:30:49Z</time>
      </trkpt>
      <trkpt lat="47.87603" lon="7.16643">
        <ele>551.934082</ele>
        <time>2012-03-27T08:31:07Z</time>
      </trkpt>
      <trkpt lat="47.87588" lon="7.1662">
        <ele>548.5693359</ele>
        <time>2012-03-27T08:31:24Z</time>
      </trkpt>
      <trkpt lat="47.8758" lon="7.16606">
        <ele>545.204834</ele>
        <time>2012-03-27T08:31:42Z</time>
      </trkpt>
      <trkpt lat="47.87578" lon="7.16585">
        <ele>542.3209229</ele>
        <time>2012-03-27T08:32:01Z</time>
      </trkpt>
      <trkpt lat="47.87592" lon="7.16563">
        <ele>538.9562988</ele>
        <time>2012-03-27T08:32:16Z</time>
      </trkpt>
      <trkpt lat="47.87601" lon="7.16534">
        <ele>536.0723877</ele>
        <time>2012-03-27T08:32:29Z</time>
      </trkpt>
      <trkpt lat="47.87607" lon="7.16507">
        <ele>533.1883545</ele>
        <time>2012-03-27T08:32:46Z</time>
      </trkpt>
      <trkpt lat="47.87614" lon="7.16479">
        <ele>529.8237305</ele>
        <time>2012-03-27T08:33:05Z</time>
      </trkpt>
      <trkpt lat="47.87614" lon="7.16449">
        <ele>526.4591064</ele>
        <time>2012-03-27T08:33:19Z</time>
      </trkpt>
      <trkpt lat="47.8761" lon="7.16416">
        <ele>523.5751953</ele>
        <time>2012-03-27T08:33:40Z</time>
      </trkpt>
      <trkpt lat="47.87614" lon="7.1639">
        <ele>520.2105713</ele>
        <time>2012-03-27T08:34:04Z</time>
      </trkpt>
      <trkpt lat="47.87614" lon="7.16374">
        <ele>517.3266602</ele>
        <time>2012-03-27T08:34:22Z</time>
      </trkpt>
      <trkpt lat="47.87617" lon="7.16349">
        <ele>514.9233398</ele>
        <time>2012-03-27T08:34:38Z</time>
      </trkpt>
      <trkpt lat="47.87618" lon="7.1633">
        <ele>511.5587158</ele>
        <time>2012-03-27T08:34:57Z</time>
      </trkpt>
      <trkpt lat="47.87601" lon="7.16329">
        <ele>508.6746826</ele>
        <time>2012-03-27T08:35:19Z</time>
      </trkpt>
      <trkpt lat="47.87589" lon="7.1633">
        <ele>505.7908936</ele>
        <time>2012-03-27T08:35:37Z</time>
      </trkpt>
      <trkpt lat="47.87558" lon="7.16332">
        <ele>504.8294678</ele>
        <time>2012-03-27T08:35:38Z</time>
      </trkpt>
      <trkpt lat="47.8755" lon="7.16326">
        <ele>504.8294678</ele>
        <time>2012-03-27T08:35:55Z</time>
      </trkpt>
      <trkpt lat="47.87536" lon="7.16317">
        <ele>503.8681641</ele>
        <time>2012-03-27T08:36:11Z</time>
      </trkpt>
      <trkpt lat="47.87518" lon="7.16303">
        <ele>503.8681641</ele>
        <time>2012-03-27T08:36:12Z</time>
      </trkpt>
      <trkpt lat="47.87503" lon="7.163">
        <ele>503.8681641</ele>
        <time>2012-03-27T08:36:27Z</time>
      </trkpt>
      <trkpt lat="47.87492" lon="7.16303">
        <ele>500.50354</ele>
        <time>2012-03-27T08:36:45Z</time>
      </trkpt>
      <trkpt lat="47.87489" lon="7.16306">
        <ele>500.50354</ele>
        <time>2012-03-27T08:37:05Z</time>
      </trkpt>
      <trkpt lat="47.87474" lon="7.16306">
        <ele>499.0615234</ele>
        <time>2012-03-27T08:37:22Z</time>
      </trkpt>
      <trkpt lat="47.87464" lon="7.16289">
        <ele>497.138916</ele>
        <time>2012-03-27T08:37:58Z</time>
      </trkpt>
      <trkpt lat="47.87463" lon="7.16287">
        <ele>497.138916</ele>
        <time>2012-03-27T08:38:15Z</time>
      </trkpt>
      <trkpt lat="47.87457" lon="7.16264">
        <ele>493.774292</ele>
        <time>2012-03-27T08:38:29Z</time>
      </trkpt>
      <trkpt lat="47.87454" lon="7.16241">
        <ele>490.40979</ele>
        <time>2012-03-27T08:38:40Z</time>
      </trkpt>
      <trkpt lat="47.87461" lon="7.1621">
        <ele>487.5256348</ele>
        <time>2012-03-27T08:38:58Z</time>
      </trkpt>
      <trkpt lat="47.87461" lon="7.16178">
        <ele>484.1611328</ele>
        <time>2012-03-27T08:39:16Z</time>
      </trkpt>
      <trkpt lat="47.87472" lon="7.16132">
        <ele>484.6418457</ele>
        <time>2012-03-27T08:39:44Z</time>
      </trkpt>
      <trkpt lat="47.87457" lon="7.16126">
        <ele>481.7578125</ele>
        <time>2012-03-27T08:40:09Z</time>
      </trkpt>
      <trkpt lat="47.87451" lon="7.16112">
        <ele>478.3931885</ele>
        <time>2012-03-27T08:40:45Z</time>
      </trkpt>
      <trkpt lat="47.8744" lon="7.16107">
        <ele>474.5479736</ele>
        <time>2012-03-27T08:41:00Z</time>
      </trkpt>
      <trkpt lat="47.87428" lon="7.16085">
        <ele>471.6639404</ele>
        <time>2012-03-27T08:41:12Z</time>
      </trkpt>
      <trkpt lat="47.87422" lon="7.16063">
        <ele>468.2993164</ele>
        <time>2012-03-27T08:41:22Z</time>
      </trkpt>
      <trkpt lat="47.87437" lon="7.16031">
        <ele>467.3381348</ele>
        <time>2012-03-27T08:41:29Z</time>
      </trkpt>
      <trkpt lat="47.87441" lon="7.16008">
        <ele>467.8187256</ele>
        <time>2012-03-27T08:41:42Z</time>
      </trkpt>
      <trkpt lat="47.87452" lon="7.15982">
        <ele>470.7026367</ele>
        <time>2012-03-27T08:41:58Z</time>
      </trkpt>
      <trkpt lat="47.87458" lon="7.15967">
        <ele>471.6639404</ele>
        <time>2012-03-27T08:42:07Z</time>
      </trkpt>
      <trkpt lat="47.8745" lon="7.15956">
        <ele>469.2607422</ele>
        <time>2012-03-27T08:42:20Z</time>
      </trkpt>
      <trkpt lat="47.87444" lon="7.15966">
        <ele>467.3381348</ele>
        <time>2012-03-27T08:42:34Z</time>
      </trkpt>
      <trkpt lat="47.87436" lon="7.15965">
        <ele>466.8574219</ele>
        <time>2012-03-27T08:42:43Z</time>
      </trkpt>
      <trkpt lat="47.87424" lon="7.1596">
        <ele>464.9348145</ele>
        <time>2012-03-27T08:42:46Z</time>
      </trkpt>
      <trkpt lat="47.8741" lon="7.15946">
        <ele>463.9733887</ele>
        <time>2012-03-27T08:42:59Z</time>
      </trkpt>
      <trkpt lat="47.87402" lon="7.1593">
        <ele>464.4541016</ele>
        <time>2012-03-27T08:43:01Z</time>
      </trkpt>
      <trkpt lat="47.87395" lon="7.15912">
        <ele>464.4541016</ele>
        <time>2012-03-27T08:43:09Z</time>
      </trkpt>
      <trkpt lat="47.87387" lon="7.15896">
        <ele>465.4155273</ele>
        <time>2012-03-27T08:43:24Z</time>
      </trkpt>
      <trkpt lat="47.87384" lon="7.15885">
        <ele>465.8961182</ele>
        <time>2012-03-27T08:43:36Z</time>
      </trkpt>
      <trkpt lat="47.87379" lon="7.15887">
        <ele>465.8961182</ele>
        <time>2012-03-27T08:43:49Z</time>
      </trkpt>
      <trkpt lat="47.87371" lon="7.15878">
        <ele>467.3381348</ele>
        <time>2012-03-27T08:44:08Z</time>
      </trkpt>
      <trkpt lat="47.8737" lon="7.15876">
        <ele>467.3381348</ele>
        <time>2012-03-27T08:44:30Z</time>
      </trkpt>
      <trkpt lat="47.87364" lon="7.15871">
        <ele>468.2993164</ele>
        <time>2012-03-27T08:44:47Z</time>
      </trkpt>
      <trkpt lat="47.87356" lon="7.15854">
        <ele>469.741333</ele>
        <time>2012-03-27T08:45:01Z</time>
      </trkpt>
      <trkpt lat="47.87353" lon="7.15838">
        <ele>470.7026367</ele>
        <time>2012-03-27T08:45:16Z</time>
      </trkpt>
      <trkpt lat="47.87343" lon="7.15826">
        <ele>471.6639404</ele>
        <time>2012-03-27T08:45:23Z</time>
      </trkpt>
      <trkpt lat="47.87347" lon="7.15825">
        <ele>472.1446533</ele>
        <time>2012-03-27T08:45:27Z</time>
      </trkpt>
      <trkpt lat="47.87342" lon="7.15818">
        <ele>472.6253662</ele>
        <time>2012-03-27T08:45:37Z</time>
      </trkpt>
      <trkpt lat="47.87328" lon="7.15809">
        <ele>474.5479736</ele>
        <time>2012-03-27T08:45:40Z</time>
      </trkpt>
      <trkpt lat="47.87314" lon="7.15797">
        <ele>475.5092773</ele>
        <time>2012-03-27T08:45:50Z</time>
      </trkpt>
      <trkpt lat="47.87295" lon="7.15784">
        <ele>477.4318848</ele>
        <time>2012-03-27T08:45:57Z</time>
      </trkpt>
      <trkpt lat="47.87292" lon="7.15778">
        <ele>477.9124756</ele>
        <time>2012-03-27T08:46:15Z</time>
      </trkpt>
      <trkpt lat="47.87283" lon="7.15776">
        <ele>478.3931885</ele>
        <time>2012-03-27T08:46:30Z</time>
      </trkpt>
      <trkpt lat="47.87273" lon="7.15771">
        <ele>479.3544922</ele>
        <time>2012-03-27T08:46:45Z</time>
      </trkpt>
      <trkpt lat="47.87268" lon="7.15769">
        <ele>479.3544922</ele>
        <time>2012-03-27T08:46:56Z</time>
      </trkpt>
      <trkpt lat="47.87259" lon="7.15763">
        <ele>479.835083</ele>
        <time>2012-03-27T08:47:14Z</time>
      </trkpt>
      <trkpt lat="47.8725" lon="7.15762">
        <ele>480.315918</ele>
        <time>2012-03-27T08:47:32Z</time>
      </trkpt>
      <trkpt lat="47.87245" lon="7.15751">
        <ele>481.2772217</ele>
        <time>2012-03-27T08:47:51Z</time>
      </trkpt>
      <trkpt lat="47.87233" lon="7.15743">
        <ele>481.7578125</ele>
        <time>2012-03-27T08:48:09Z</time>
      </trkpt>
      <trkpt lat="47.87222" lon="7.15737">
        <ele>483.1998291</ele>
        <time>2012-03-27T08:48:34Z</time>
      </trkpt>
      <trkpt lat="47.87215" lon="7.1573">
        <ele>484.1611328</ele>
        <time>2012-03-27T08:49:51Z</time>
      </trkpt>
      <trkpt lat="47.87203" lon="7.1571">
        <ele>485.6030273</ele>
        <time>2012-03-27T08:49:53Z</time>
      </trkpt>
      <trkpt lat="47.87177" lon="7.15698">
        <ele>487.5256348</ele>
        <time>2012-03-27T08:50:09Z</time>
      </trkpt>
      <trkpt lat="47.87167" lon="7.15675">
        <ele>488.9677734</ele>
        <time>2012-03-27T08:50:35Z</time>
      </trkpt>
      <trkpt lat="47.87156" lon="7.15659">
        <ele>490.40979</ele>
        <time>2012-03-27T08:50:53Z</time>
      </trkpt>
      <trkpt lat="47.87138" lon="7.15651">
        <ele>491.3709717</ele>
        <time>2012-03-27T08:51:12Z</time>
      </trkpt>
      <trkpt lat="47.87129" lon="7.15659">
        <ele>489.9290771</ele>
        <time>2012-03-27T08:51:33Z</time>
      </trkpt>
      <trkpt lat="47.87131" lon="7.1566">
        <ele>489.9290771</ele>
        <time>2012-03-27T08:51:51Z</time>
      </trkpt>
      <trkpt lat="47.87133" lon="7.15672">
        <ele>490.40979</ele>
        <time>2012-03-27T08:52:16Z</time>
      </trkpt>
      <trkpt lat="47.87149" lon="7.157">
        <ele>493.2935791</ele>
        <time>2012-03-27T08:52:42Z</time>
      </trkpt>
      <trkpt lat="47.8716" lon="7.15721">
        <ele>495.6968994</ele>
        <time>2012-03-27T08:53:08Z</time>
      </trkpt>
      <trkpt lat="47.87174" lon="7.15736">
        <ele>497.138916</ele>
        <time>2012-03-27T08:53:35Z</time>
      </trkpt>
      <trkpt lat="47.87178" lon="7.15772">
        <ele>499.5422363</ele>
        <time>2012-03-27T08:53:55Z</time>
      </trkpt>
      <trkpt lat="47.87162" lon="7.15767">
        <ele>501.4648438</ele>
        <time>2012-03-27T08:54:18Z</time>
      </trkpt>
      <trkpt lat="47.87141" lon="7.15741">
        <ele>504.8294678</ele>
        <time>2012-03-27T08:54:41Z</time>
      </trkpt>
      <trkpt lat="47.87115" lon="7.15719">
        <ele>507.713501</ele>
        <time>2012-03-27T08:55:00Z</time>
      </trkpt>
      <trkpt lat="47.87101" lon="7.15687">
        <ele>510.1166992</ele>
        <time>2012-03-27T08:55:41Z</time>
      </trkpt>
      <trkpt lat="47.87081" lon="7.15652">
        <ele>513.0007324</ele>
        <time>2012-03-27T08:56:03Z</time>
      </trkpt>
      <trkpt lat="47.8707" lon="7.15629">
        <ele>515.4040527</ele>
        <time>2012-03-27T08:56:11Z</time>
      </trkpt>
      <trkpt lat="47.87061" lon="7.15607">
        <ele>517.807251</ele>
        <time>2012-03-27T08:56:25Z</time>
      </trkpt>
      <trkpt lat="47.87051" lon="7.15583">
        <ele>520.6912842</ele>
        <time>2012-03-27T08:56:45Z</time>
      </trkpt>
      <trkpt lat="47.87048" lon="7.15576">
        <ele>521.1719971</ele>
        <time>2012-03-27T08:57:00Z</time>
      </trkpt>
      <trkpt lat="47.87047" lon="7.1557">
        <ele>524.0557861</ele>
        <time>2012-03-27T08:57:12Z</time>
      </trkpt>
      <trkpt lat="47.87036" lon="7.15561">
        <ele>525.0172119</ele>
        <time>2012-03-27T08:57:28Z</time>
      </trkpt>
      <trkpt lat="47.87029" lon="7.15554">
        <ele>525.9783936</ele>
        <time>2012-03-27T08:57:44Z</time>
      </trkpt>
      <trkpt lat="47.8702" lon="7.15535">
        <ele>526.9398193</ele>
        <time>2012-03-27T08:57:48Z</time>
      </trkpt>
      <trkpt lat="47.87006" lon="7.1551">
        <ele>529.3431396</ele>
        <time>2012-03-27T08:58:03Z</time>
      </trkpt>
      <trkpt lat="47.86995" lon="7.1549">
        <ele>530.3044434</ele>
        <time>2012-03-27T08:58:19Z</time>
      </trkpt>
      <trkpt lat="47.86997" lon="7.15505">
        <ele>531.7463379</ele>
        <time>2012-03-27T08:58:31Z</time>
      </trkpt>
      <trkpt lat="47.87006" lon="7.15527">
        <ele>533.6689453</ele>
        <time>2012-03-27T08:58:49Z</time>
      </trkpt>
      <trkpt lat="47.87014" lon="7.15547">
        <ele>535.5915527</ele>
        <time>2012-03-27T08:59:06Z</time>
      </trkpt>
      <trkpt lat="47.87017" lon="7.1555">
        <ele>535.5915527</ele>
        <time>2012-03-27T08:59:22Z</time>
      </trkpt>
      <trkpt lat="47.87027" lon="7.1557">
        <ele>537.0336914</ele>
        <time>2012-03-27T08:59:33Z</time>
      </trkpt>
      <trkpt lat="47.87036" lon="7.15585">
        <ele>539.4368896</ele>
        <time>2012-03-27T08:59:50Z</time>
      </trkpt>
      <trkpt lat="47.87027" lon="7.1559">
        <ele>541.3594971</ele>
        <time>2012-03-27T09:00:09Z</time>
      </trkpt>
      <trkpt lat="47.8701" lon="7.15578">
        <ele>543.2821045</ele>
        <time>2012-03-27T09:00:11Z</time>
      </trkpt>
      <trkpt lat="47.86998" lon="7.15558">
        <ele>544.7242432</ele>
        <time>2012-03-27T09:00:23Z</time>
      </trkpt>
      <trkpt lat="47.86985" lon="7.15546">
        <ele>548.0888672</ele>
        <time>2012-03-27T09:00:36Z</time>
      </trkpt>
      <trkpt lat="47.86976" lon="7.15541">
        <ele>549.5307617</ele>
        <time>2012-03-27T09:00:49Z</time>
      </trkpt>
      <trkpt lat="47.86969" lon="7.15539">
        <ele>550.9726563</ele>
        <time>2012-03-27T09:00:58Z</time>
      </trkpt>
      <trkpt lat="47.86976" lon="7.15554">
        <ele>553.8566895</ele>
        <time>2012-03-27T09:01:09Z</time>
      </trkpt>
      <trkpt lat="47.86981" lon="7.15554">
        <ele>553.3759766</ele>
        <time>2012-03-27T09:01:24Z</time>
      </trkpt>
      <trkpt lat="47.8699" lon="7.15568">
        <ele>551.4533691</ele>
        <time>2012-03-27T09:01:41Z</time>
      </trkpt>
      <trkpt lat="47.86999" lon="7.15584">
        <ele>550.9726563</ele>
        <time>2012-03-27T09:01:59Z</time>
      </trkpt>
      <trkpt lat="47.87001" lon="7.15587">
        <ele>553.3759766</ele>
        <time>2012-03-27T09:02:14Z</time>
      </trkpt>
      <trkpt lat="47.86994" lon="7.15584">
        <ele>554.3374023</ele>
        <time>2012-03-27T09:02:34Z</time>
      </trkpt>
      <trkpt lat="47.86986" lon="7.15571">
        <ele>555.298584</ele>
        <time>2012-03-27T09:02:49Z</time>
      </trkpt>
      <trkpt lat="47.86978" lon="7.15559">
        <ele>557.2214355</ele>
        <time>2012-03-27T09:03:05Z</time>
      </trkpt>
      <trkpt lat="47.86964" lon="7.15543">
        <ele>559.6247559</ele>
        <time>2012-03-27T09:03:23Z</time>
      </trkpt>
      <trkpt lat="47.86952" lon="7.15519">
        <ele>561.5473633</ele>
        <time>2012-03-27T09:03:40Z</time>
      </trkpt>
      <trkpt lat="47.86949" lon="7.15517">
        <ele>563.9504395</ele>
        <time>2012-03-27T09:03:54Z</time>
      </trkpt>
      <trkpt lat="47.86956" lon="7.15546">
        <ele>565.873291</ele>
        <time>2012-03-27T09:04:12Z</time>
      </trkpt>
      <trkpt lat="47.86967" lon="7.15567">
        <ele>567.3151855</ele>
        <time>2012-03-27T09:04:35Z</time>
      </trkpt>
      <trkpt lat="47.86973" lon="7.15582">
        <ele>568.2763672</ele>
        <time>2012-03-27T09:04:52Z</time>
      </trkpt>
      <trkpt lat="47.86981" lon="7.15599">
        <ele>570.6796875</ele>
        <time>2012-03-27T09:05:41Z</time>
      </trkpt>
      <trkpt lat="47.86981" lon="7.15622">
        <ele>572.1218262</ele>
        <time>2012-03-27T09:06:33Z</time>
      </trkpt>
      <trkpt lat="47.86987" lon="7.15639">
        <ele>574.0444336</ele>
        <time>2012-03-27T09:06:36Z</time>
      </trkpt>
      <trkpt lat="47.86991" lon="7.15658">
        <ele>575.0058594</ele>
        <time>2012-03-27T09:06:54Z</time>
      </trkpt>
      <trkpt lat="47.86995" lon="7.15681">
        <ele>577.4091797</ele>
        <time>2012-03-27T09:06:58Z</time>
      </trkpt>
      <trkpt lat="47.86993" lon="7.1569">
        <ele>578.8510742</ele>
        <time>2012-03-27T09:07:14Z</time>
      </trkpt>
      <trkpt lat="47.86991" lon="7.15687">
        <ele>579.331543</ele>
        <time>2012-03-27T09:07:17Z</time>
      </trkpt>
      <trkpt lat="47.86988" lon="7.15704">
        <ele>576.9284668</ele>
        <time>2012-03-27T09:07:28Z</time>
      </trkpt>
      <trkpt lat="47.86986" lon="7.15703">
        <ele>576.4477539</ele>
        <time>2012-03-27T09:07:36Z</time>
      </trkpt>
      <trkpt lat="47.86961" lon="7.15705">
        <ele>575.0058594</ele>
        <time>2012-03-27T09:07:50Z</time>
      </trkpt>
      <trkpt lat="47.86955" lon="7.15707">
        <ele>574.5251465</ele>
        <time>2012-03-27T09:08:29Z</time>
      </trkpt>
      <trkpt lat="47.86941" lon="7.15721">
        <ele>573.083252</ele>
        <time>2012-03-27T09:08:59Z</time>
      </trkpt>
      <trkpt lat="47.8694" lon="7.15725">
        <ele>573.083252</ele>
        <time>2012-03-27T09:09:18Z</time>
      </trkpt>
      <trkpt lat="47.86932" lon="7.15742">
        <ele>572.1218262</ele>
        <time>2012-03-27T09:09:22Z</time>
      </trkpt>
      <trkpt lat="47.86924" lon="7.15746">
        <ele>571.1604004</ele>
        <time>2012-03-27T09:09:37Z</time>
      </trkpt>
      <trkpt lat="47.86913" lon="7.15746">
        <ele>571.1604004</ele>
        <time>2012-03-27T09:09:57Z</time>
      </trkpt>
      <trkpt lat="47.86909" lon="7.15747">
        <ele>572.1218262</ele>
        <time>2012-03-27T09:10:13Z</time>
      </trkpt>
      <trkpt lat="47.86901" lon="7.15756">
        <ele>573.5639648</ele>
        <time>2012-03-27T09:10:32Z</time>
      </trkpt>
      <trkpt lat="47.8688" lon="7.1575">
        <ele>576.9284668</ele>
        <time>2012-03-27T09:10:52Z</time>
      </trkpt>
      <trkpt lat="47.86871" lon="7.1575">
        <ele>577.4091797</ele>
        <time>2012-03-27T09:11:15Z</time>
      </trkpt>
      <trkpt lat="47.86865" lon="7.1575">
        <ele>579.8122559</ele>
        <time>2012-03-27T09:11:31Z</time>
      </trkpt>
      <trkpt lat="47.86863" lon="7.15745">
        <ele>582.2155762</ele>
        <time>2012-03-27T09:11:47Z</time>
      </trkpt>
      <trkpt lat="47.8686" lon="7.15742">
        <ele>584.1381836</ele>
        <time>2012-03-27T09:12:04Z</time>
      </trkpt>
      <trkpt lat="47.86844" lon="7.15741">
        <ele>587.0219727</ele>
        <time>2012-03-27T09:12:22Z</time>
      </trkpt>
      <trkpt lat="47.86846" lon="7.15725">
        <ele>588.4643555</ele>
        <time>2012-03-27T09:12:46Z</time>
      </trkpt>
      <trkpt lat="47.86841" lon="7.15719">
        <ele>589.4255371</ele>
        <time>2012-03-27T09:13:07Z</time>
      </trkpt>
      <trkpt lat="47.86831" lon="7.1572">
        <ele>592.3095703</ele>
        <time>2012-03-27T09:13:28Z</time>
      </trkpt>
      <trkpt lat="47.86828" lon="7.15719">
        <ele>595.1933594</ele>
        <time>2012-03-27T09:13:44Z</time>
      </trkpt>
      <trkpt lat="47.8682" lon="7.15715">
        <ele>597.5966797</ele>
        <time>2012-03-27T09:14:01Z</time>
      </trkpt>
      <trkpt lat="47.86816" lon="7.15715">
        <ele>600</ele>
        <time>2012-03-27T09:14:29Z</time>
      </trkpt>
      <trkpt lat="47.86808" lon="7.15692">
        <ele>603.364502</ele>
        <time>2012-03-27T09:14:51Z</time>
      </trkpt>
      <trkpt lat="47.86807" lon="7.15672">
        <ele>606.2485352</ele>
        <time>2012-03-27T09:15:09Z</time>
      </trkpt>
      <trkpt lat="47.86822" lon="7.15658">
        <ele>607.6906738</ele>
        <time>2012-03-27T09:16:42Z</time>
      </trkpt>
      <trkpt lat="47.86829" lon="7.15658">
        <ele>608.6518555</ele>
        <time>2012-03-27T09:17:03Z</time>
      </trkpt>
      <trkpt lat="47.8682" lon="7.15649">
        <ele>611.5358887</ele>
        <time>2012-03-27T09:17:23Z</time>
      </trkpt>
      <trkpt lat="47.86818" lon="7.1564">
        <ele>614.9003906</ele>
        <time>2012-03-27T09:17:44Z</time>
      </trkpt>
      <trkpt lat="47.86813" lon="7.15639">
        <ele>617.7841797</ele>
        <time>2012-03-27T09:18:02Z</time>
      </trkpt>
      <trkpt lat="47.8681" lon="7.15628">
        <ele>619.7070313</ele>
        <time>2012-03-27T09:18:16Z</time>
      </trkpt>
      <trkpt lat="47.86796" lon="7.15621">
        <ele>621.6296387</ele>
        <time>2012-03-27T09:18:31Z</time>
      </trkpt>
      <trkpt lat="47.86782" lon="7.15624">
        <ele>624.9943848</ele>
        <time>2012-03-27T09:18:50Z</time>
      </trkpt>
      <trkpt lat="47.86769" lon="7.15628">
        <ele>627.8781738</ele>
        <time>2012-03-27T09:19:04Z</time>
      </trkpt>
      <trkpt lat="47.86789" lon="7.15613">
        <ele>630.2814941</ele>
        <time>2012-03-27T09:19:20Z</time>
      </trkpt>
      <trkpt lat="47.86798" lon="7.15602">
        <ele>633.1652832</ele>
        <time>2012-03-27T09:19:33Z</time>
      </trkpt>
      <trkpt lat="47.868" lon="7.15595">
        <ele>634.6074219</ele>
        <time>2012-03-27T09:19:49Z</time>
      </trkpt>
      <trkpt lat="47.86792" lon="7.15587">
        <ele>637.0107422</ele>
        <time>2012-03-27T09:20:04Z</time>
      </trkpt>
      <trkpt lat="47.86786" lon="7.1558">
        <ele>640.3754883</ele>
        <time>2012-03-27T09:20:20Z</time>
      </trkpt>
      <trkpt lat="47.86776" lon="7.15573">
        <ele>642.2980957</ele>
        <time>2012-03-27T09:20:36Z</time>
      </trkpt>
      <trkpt lat="47.86773" lon="7.15568">
        <ele>644.7011719</ele>
        <time>2012-03-27T09:20:54Z</time>
      </trkpt>
      <trkpt lat="47.86767" lon="7.15574">
        <ele>646.1433105</ele>
        <time>2012-03-27T09:21:12Z</time>
      </trkpt>
      <trkpt lat="47.86758" lon="7.15577">
        <ele>647.5852051</ele>
        <time>2012-03-27T09:21:29Z</time>
      </trkpt>
      <trkpt lat="47.86749" lon="7.15564">
        <ele>648.5463867</ele>
        <time>2012-03-27T09:21:45Z</time>
      </trkpt>
      <trkpt lat="47.86745" lon="7.15565">
        <ele>651.4304199</ele>
        <time>2012-03-27T09:22:01Z</time>
      </trkpt>
      <trkpt lat="47.86732" lon="7.15568">
        <ele>653.3532715</ele>
        <time>2012-03-27T09:22:22Z</time>
      </trkpt>
      <trkpt lat="47.86725" lon="7.15568">
        <ele>655.7565918</ele>
        <time>2012-03-27T09:22:40Z</time>
      </trkpt>
      <trkpt lat="47.8671" lon="7.1556">
        <ele>658.1599121</ele>
        <time>2012-03-27T09:22:59Z</time>
      </trkpt>
      <trkpt lat="47.867" lon="7.15556">
        <ele>661.0437012</ele>
        <time>2012-03-27T09:23:21Z</time>
      </trkpt>
      <trkpt lat="47.86694" lon="7.15546">
        <ele>662.9663086</ele>
        <time>2012-03-27T09:23:39Z</time>
      </trkpt>
      <trkpt lat="47.86692" lon="7.15546">
        <ele>665.3696289</ele>
        <time>2012-03-27T09:23:51Z</time>
      </trkpt>
      <trkpt lat="47.86689" lon="7.15549">
        <ele>668.2536621</ele>
        <time>2012-03-27T09:24:06Z</time>
      </trkpt>
      <trkpt lat="47.8668" lon="7.15541">
        <ele>670.6569824</ele>
        <time>2012-03-27T09:24:21Z</time>
      </trkpt>
      <trkpt lat="47.86672" lon="7.15524">
        <ele>672.5795898</ele>
        <time>2012-03-27T09:24:32Z</time>
      </trkpt>
      <trkpt lat="47.86669" lon="7.15535">
        <ele>675.4633789</ele>
        <time>2012-03-27T09:24:48Z</time>
      </trkpt>
      <trkpt lat="47.8667" lon="7.15554">
        <ele>676.4248047</ele>
        <time>2012-03-27T09:25:03Z</time>
      </trkpt>
      <trkpt lat="47.86675" lon="7.15567">
        <ele>676.4248047</ele>
        <time>2012-03-27T09:25:17Z</time>
      </trkpt>
      <trkpt lat="47.86674" lon="7.15591">
        <ele>678.828125</ele>
        <time>2012-03-27T09:25:33Z</time>
      </trkpt>
      <trkpt lat="47.86671" lon="7.156">
        <ele>681.2314453</ele>
        <time>2012-03-27T09:25:59Z</time>
      </trkpt>
      <trkpt lat="47.86666" lon="7.15608">
        <ele>683.1538086</ele>
        <time>2012-03-27T09:26:16Z</time>
      </trkpt>
      <trkpt lat="47.86659" lon="7.15623">
        <ele>685.0769043</ele>
        <time>2012-03-27T09:26:18Z</time>
      </trkpt>
      <trkpt lat="47.86656" lon="7.15632">
        <ele>686.5187988</ele>
        <time>2012-03-27T09:26:31Z</time>
      </trkpt>
      <trkpt lat="47.86654" lon="7.15636">
        <ele>687.9606934</ele>
        <time>2012-03-27T09:26:47Z</time>
      </trkpt>
      <trkpt lat="47.86645" lon="7.15646">
        <ele>690.3640137</ele>
        <time>2012-03-27T09:27:22Z</time>
      </trkpt>
      <trkpt lat="47.86638" lon="7.15669">
        <ele>692.767334</ele>
        <time>2012-03-27T09:27:41Z</time>
      </trkpt>
      <trkpt lat="47.86631" lon="7.15677">
        <ele>693.7285156</ele>
        <time>2012-03-27T09:27:58Z</time>
      </trkpt>
      <trkpt lat="47.86631" lon="7.15678">
        <ele>693.7285156</ele>
        <time>2012-03-27T09:28:10Z</time>
      </trkpt>
      <trkpt lat="47.86631" lon="7.15692">
        <ele>694.2092285</ele>
        <time>2012-03-27T09:28:25Z</time>
      </trkpt>
      <trkpt lat="47.86628" lon="7.15701">
        <ele>694.2092285</ele>
        <time>2012-03-27T09:28:39Z</time>
      </trkpt>
      <trkpt lat="47.86626" lon="7.15706">
        <ele>697.5737305</ele>
        <time>2012-03-27T09:28:50Z</time>
      </trkpt>
      <trkpt lat="47.86623" lon="7.15724">
        <ele>699.9770508</ele>
        <time>2012-03-27T09:29:04Z</time>
      </trkpt>
      <trkpt lat="47.86626" lon="7.15736">
        <ele>699.4963379</ele>
        <time>2012-03-27T09:29:18Z</time>
      </trkpt>
      <trkpt lat="47.86626" lon="7.15747">
        <ele>699.4963379</ele>
        <time>2012-03-27T09:29:31Z</time>
      </trkpt>
      <trkpt lat="47.86619" lon="7.15731">
        <ele>699.4963379</ele>
        <time>2012-03-27T09:30:01Z</time>
      </trkpt>
      <trkpt lat="47.86617" lon="7.15715">
        <ele>699.9770508</ele>
        <time>2012-03-27T09:30:19Z</time>
      </trkpt>
      <trkpt lat="47.86615" lon="7.15701">
        <ele>700.4580078</ele>
        <time>2012-03-27T09:30:34Z</time>
      </trkpt>
      <trkpt lat="47.86614" lon="7.15676">
        <ele>700.9384766</ele>
        <time>2012-03-27T09:30:47Z</time>
      </trkpt>
      <trkpt lat="47.86611" lon="7.15685">
        <ele>703.3417969</ele>
        <time>2012-03-27T09:31:00Z</time>
      </trkpt>
      <trkpt lat="47.86605" lon="7.15688">
        <ele>705.7451172</ele>
        <time>2012-03-27T09:31:14Z</time>
      </trkpt>
      <trkpt lat="47.86606" lon="7.15681">
        <ele>705.7451172</ele>
        <time>2012-03-27T09:31:41Z</time>
      </trkpt>
      <trkpt lat="47.86605" lon="7.15663">
        <ele>709.1096191</ele>
        <time>2012-03-27T09:31:55Z</time>
      </trkpt>
      <trkpt lat="47.86602" lon="7.15644">
        <ele>711.0322266</ele>
        <time>2012-03-27T09:32:15Z</time>
      </trkpt>
      <trkpt lat="47.86599" lon="7.15633">
        <ele>712.4741211</ele>
        <time>2012-03-27T09:32:34Z</time>
      </trkpt>
      <trkpt lat="47.86596" lon="7.15632">
        <ele>714.3967285</ele>
        <time>2012-03-27T09:32:53Z</time>
      </trkpt>
      <trkpt lat="47.86593" lon="7.15642">
        <ele>716.800293</ele>
        <time>2012-03-27T09:33:06Z</time>
      </trkpt>
      <trkpt lat="47.86592" lon="7.15649">
        <ele>719.6843262</ele>
        <time>2012-03-27T09:33:30Z</time>
      </trkpt>
      <trkpt lat="47.86588" lon="7.15664">
        <ele>721.1262207</ele>
        <time>2012-03-27T09:33:46Z</time>
      </trkpt>
      <trkpt lat="47.86583" lon="7.1567">
        <ele>723.529541</ele>
        <time>2012-03-27T09:34:29Z</time>
      </trkpt>
      <trkpt lat="47.86576" lon="7.15653">
        <ele>726.894043</ele>
        <time>2012-03-27T09:34:48Z</time>
      </trkpt>
      <trkpt lat="47.86566" lon="7.1565">
        <ele>729.777832</ele>
        <time>2012-03-27T09:35:14Z</time>
      </trkpt>
      <trkpt lat="47.86563" lon="7.15651">
        <ele>731.2199707</ele>
        <time>2012-03-27T09:35:36Z</time>
      </trkpt>
      <trkpt lat="47.86563" lon="7.15646">
        <ele>733.623291</ele>
        <time>2012-03-27T09:35:51Z</time>
      </trkpt>
      <trkpt lat="47.86558" lon="7.15651">
        <ele>734.1040039</ele>
        <time>2012-03-27T09:36:10Z</time>
      </trkpt>
      <trkpt lat="47.86547" lon="7.15654">
        <ele>736.987793</ele>
        <time>2012-03-27T09:36:27Z</time>
      </trkpt>
      <trkpt lat="47.86536" lon="7.15666">
        <ele>739.3911133</ele>
        <time>2012-03-27T09:36:46Z</time>
      </trkpt>
      <trkpt lat="47.86546" lon="7.15686">
        <ele>741.7944336</ele>
        <time>2012-03-27T09:37:07Z</time>
      </trkpt>
      <trkpt lat="47.86548" lon="7.15689">
        <ele>741.7944336</ele>
        <time>2012-03-27T09:37:26Z</time>
      </trkpt>
      <trkpt lat="47.8655" lon="7.15686">
        <ele>741.3137207</ele>
        <time>2012-03-27T09:38:01Z</time>
      </trkpt>
      <trkpt lat="47.86539" lon="7.15685">
        <ele>743.717041</ele>
        <time>2012-03-27T09:38:19Z</time>
      </trkpt>
      <trkpt lat="47.86534" lon="7.1567">
        <ele>745.6396484</ele>
        <time>2012-03-27T09:38:43Z</time>
      </trkpt>
      <trkpt lat="47.86532" lon="7.15679">
        <ele>748.5236816</ele>
        <time>2012-03-27T09:39:04Z</time>
      </trkpt>
      <trkpt lat="47.86525" lon="7.15692">
        <ele>751.4077148</ele>
        <time>2012-03-27T09:39:24Z</time>
      </trkpt>
      <trkpt lat="47.86518" lon="7.15695">
        <ele>754.291748</ele>
        <time>2012-03-27T09:39:50Z</time>
      </trkpt>
      <trkpt lat="47.86514" lon="7.15695">
        <ele>757.1755371</ele>
        <time>2012-03-27T09:40:09Z</time>
      </trkpt>
      <trkpt lat="47.86503" lon="7.15684">
        <ele>760.5400391</ele>
        <time>2012-03-27T09:40:27Z</time>
      </trkpt>
      <trkpt lat="47.86501" lon="7.15681">
        <ele>763.904541</ele>
        <time>2012-03-27T09:40:52Z</time>
      </trkpt>
      <trkpt lat="47.86495" lon="7.1568">
        <ele>766.7888184</ele>
        <time>2012-03-27T09:41:15Z</time>
      </trkpt>
      <trkpt lat="47.86496" lon="7.15675">
        <ele>767.75</ele>
        <time>2012-03-27T09:41:30Z</time>
      </trkpt>
      <trkpt lat="47.8649" lon="7.1568">
        <ele>770.1533203</ele>
        <time>2012-03-27T09:41:48Z</time>
      </trkpt>
      <trkpt lat="47.86484" lon="7.15684">
        <ele>773.5180664</ele>
        <time>2012-03-27T09:42:01Z</time>
      </trkpt>
      <trkpt lat="47.8648" lon="7.15686">
        <ele>775.9211426</ele>
        <time>2012-03-27T09:42:16Z</time>
      </trkpt>
      <trkpt lat="47.86467" lon="7.15707">
        <ele>778.3244629</ele>
        <time>2012-03-27T09:43:07Z</time>
      </trkpt>
      <trkpt lat="47.86466" lon="7.1571">
        <ele>781.2087402</ele>
        <time>2012-03-27T09:43:24Z</time>
      </trkpt>
      <trkpt lat="47.86463" lon="7.15704">
        <ele>782.6506348</ele>
        <time>2012-03-27T09:43:46Z</time>
      </trkpt>
      <trkpt lat="47.86461" lon="7.157">
        <ele>783.6118164</ele>
        <time>2012-03-27T09:44:04Z</time>
      </trkpt>
      <trkpt lat="47.86458" lon="7.15693">
        <ele>785.5344238</ele>
        <time>2012-03-27T09:44:31Z</time>
      </trkpt>
      <trkpt lat="47.86457" lon="7.15694">
        <ele>788.418457</ele>
        <time>2012-03-27T09:44:49Z</time>
      </trkpt>
      <trkpt lat="47.86452" lon="7.15711">
        <ele>791.782959</ele>
        <time>2012-03-27T09:45:05Z</time>
      </trkpt>
      <trkpt lat="47.86445" lon="7.15719">
        <ele>792.7443848</ele>
        <time>2012-03-27T09:45:20Z</time>
      </trkpt>
      <trkpt lat="47.86447" lon="7.15701">
        <ele>795.6281738</ele>
        <time>2012-03-27T09:45:35Z</time>
      </trkpt>
      <trkpt lat="47.8644" lon="7.15695">
        <ele>798.512207</ele>
        <time>2012-03-27T09:45:51Z</time>
      </trkpt>
      <trkpt lat="47.86427" lon="7.15701">
        <ele>801.3962402</ele>
        <time>2012-03-27T09:46:11Z</time>
      </trkpt>
      <trkpt lat="47.86417" lon="7.15703">
        <ele>804.7607422</ele>
        <time>2012-03-27T09:46:37Z</time>
      </trkpt>
      <trkpt lat="47.86413" lon="7.15704">
        <ele>805.722168</ele>
        <time>2012-03-27T09:46:53Z</time>
      </trkpt>
      <trkpt lat="47.86418" lon="7.15723">
        <ele>804.2802734</ele>
        <time>2012-03-27T09:46:58Z</time>
      </trkpt>
      <trkpt lat="47.86415" lon="7.15735">
        <ele>806.2026367</ele>
        <time>2012-03-27T09:47:14Z</time>
      </trkpt>
      <trkpt lat="47.86404" lon="7.15739">
        <ele>808.605957</ele>
        <time>2012-03-27T09:47:45Z</time>
      </trkpt>
      <trkpt lat="47.864" lon="7.15741">
        <ele>811.9707031</ele>
        <time>2012-03-27T09:48:15Z</time>
      </trkpt>
      <trkpt lat="47.86393" lon="7.15738">
        <ele>812.9321289</ele>
        <time>2012-03-27T09:48:35Z</time>
      </trkpt>
      <trkpt lat="47.86394" lon="7.15738">
        <ele>815.8161621</ele>
        <time>2012-03-27T09:48:49Z</time>
      </trkpt>
      <trkpt lat="47.86392" lon="7.15738">
        <ele>816.7773438</ele>
        <time>2012-03-27T09:49:05Z</time>
      </trkpt>
      <trkpt lat="47.86387" lon="7.15743">
        <ele>819.1806641</ele>
        <time>2012-03-27T09:49:21Z</time>
      </trkpt>
      <trkpt lat="47.86385" lon="7.15741">
        <ele>819.1806641</ele>
        <time>2012-03-27T09:49:36Z</time>
      </trkpt>
      <trkpt lat="47.86378" lon="7.15751">
        <ele>822.545166</ele>
        <time>2012-03-27T09:49:55Z</time>
      </trkpt>
      <trkpt lat="47.86372" lon="7.15736">
        <ele>825.909668</ele>
        <time>2012-03-27T09:50:11Z</time>
      </trkpt>
      <trkpt lat="47.86369" lon="7.15739">
        <ele>827.8322754</ele>
        <time>2012-03-27T09:50:31Z</time>
      </trkpt>
      <trkpt lat="47.86356" lon="7.1574">
        <ele>830.7165527</ele>
        <time>2012-03-27T09:50:53Z</time>
      </trkpt>
      <trkpt lat="47.86354" lon="7.15747">
        <ele>832.6391602</ele>
        <time>2012-03-27T09:51:05Z</time>
      </trkpt>
      <trkpt lat="47.86348" lon="7.15748">
        <ele>834.5617676</ele>
        <time>2012-03-27T09:51:26Z</time>
      </trkpt>
      <trkpt lat="47.86339" lon="7.15743">
        <ele>836.9648438</ele>
        <time>2012-03-27T09:51:41Z</time>
      </trkpt>
      <trkpt lat="47.86329" lon="7.15749">
        <ele>838.8876953</ele>
        <time>2012-03-27T09:52:02Z</time>
      </trkpt>
      <trkpt lat="47.86324" lon="7.1576">
        <ele>841.7714844</ele>
        <time>2012-03-27T09:52:26Z</time>
      </trkpt>
      <trkpt lat="47.86324" lon="7.15767">
        <ele>845.1362305</ele>
        <time>2012-03-27T09:52:39Z</time>
      </trkpt>
      <trkpt lat="47.86321" lon="7.15774">
        <ele>846.5783691</ele>
        <time>2012-03-27T09:52:54Z</time>
      </trkpt>
      <trkpt lat="47.86316" lon="7.1578">
        <ele>849.4621582</ele>
        <time>2012-03-27T09:53:11Z</time>
      </trkpt>
      <trkpt lat="47.86319" lon="7.15786">
        <ele>850.9040527</ele>
        <time>2012-03-27T09:53:18Z</time>
      </trkpt>
      <trkpt lat="47.86321" lon="7.1579">
        <ele>850.9040527</ele>
        <time>2012-03-27T09:53:33Z</time>
      </trkpt>
      <trkpt lat="47.86325" lon="7.1578">
        <ele>851.3847656</ele>
        <time>2012-03-27T09:53:52Z</time>
      </trkpt>
      <trkpt lat="47.86322" lon="7.15796">
        <ele>852.8266602</ele>
        <time>2012-03-27T09:54:17Z</time>
      </trkpt>
      <trkpt lat="47.86318" lon="7.15807">
        <ele>853.307373</ele>
        <time>2012-03-27T09:54:34Z</time>
      </trkpt>
      <trkpt lat="47.86307" lon="7.1581">
        <ele>856.1911621</ele>
        <time>2012-03-27T09:54:46Z</time>
      </trkpt>
      <trkpt lat="47.86304" lon="7.15806">
        <ele>857.1525879</ele>
        <time>2012-03-27T09:55:06Z</time>
      </trkpt>
      <trkpt lat="47.86291" lon="7.15799">
        <ele>859.0751953</ele>
        <time>2012-03-27T09:55:23Z</time>
      </trkpt>
      <trkpt lat="47.86282" lon="7.15809">
        <ele>861.9594727</ele>
        <time>2012-03-27T09:55:40Z</time>
      </trkpt>
      <trkpt lat="47.86271" lon="7.15804">
        <ele>864.8432617</ele>
        <time>2012-03-27T09:55:59Z</time>
      </trkpt>
      <trkpt lat="47.86264" lon="7.15797">
        <ele>867.246582</ele>
        <time>2012-03-27T09:56:16Z</time>
      </trkpt>
      <trkpt lat="47.86257" lon="7.15792">
        <ele>868.6884766</ele>
        <time>2012-03-27T09:56:33Z</time>
      </trkpt>
      <trkpt lat="47.86244" lon="7.15787">
        <ele>871.0917969</ele>
        <time>2012-03-27T09:56:55Z</time>
      </trkpt>
      <trkpt lat="47.86233" lon="7.15785">
        <ele>873.4951172</ele>
        <time>2012-03-27T09:57:12Z</time>
      </trkpt>
      <trkpt lat="47.86231" lon="7.15778">
        <ele>874.4562988</ele>
        <time>2012-03-27T09:57:31Z</time>
      </trkpt>
      <trkpt lat="47.86217" lon="7.15766">
        <ele>877.3405762</ele>
        <time>2012-03-27T09:57:47Z</time>
      </trkpt>
      <trkpt lat="47.86211" lon="7.15767">
        <ele>879.7436523</ele>
        <time>2012-03-27T09:58:04Z</time>
      </trkpt>
      <trkpt lat="47.86204" lon="7.15762">
        <ele>882.1469727</ele>
        <time>2012-03-27T09:58:29Z</time>
      </trkpt>
      <trkpt lat="47.86194" lon="7.15759">
        <ele>885.0310059</ele>
        <time>2012-03-27T09:58:43Z</time>
      </trkpt>
      <trkpt lat="47.86186" lon="7.15753">
        <ele>887.434082</ele>
        <time>2012-03-27T09:58:58Z</time>
      </trkpt>
      <trkpt lat="47.86179" lon="7.15747">
        <ele>889.8374023</ele>
        <time>2012-03-27T09:59:12Z</time>
      </trkpt>
      <trkpt lat="47.86176" lon="7.15749">
        <ele>892.2409668</ele>
        <time>2012-03-27T09:59:23Z</time>
      </trkpt>
      <trkpt lat="47.86176" lon="7.15761">
        <ele>894.1635742</ele>
        <time>2012-03-27T09:59:38Z</time>
      </trkpt>
      <trkpt lat="47.8618" lon="7.1577">
        <ele>897.0473633</ele>
        <time>2012-03-27T09:59:52Z</time>
      </trkpt>
      <trkpt lat="47.8617" lon="7.15762">
        <ele>898.4892578</ele>
        <time>2012-03-27T10:00:07Z</time>
      </trkpt>
      <trkpt lat="47.86164" lon="7.15755">
        <ele>900.8925781</ele>
        <time>2012-03-27T10:01:01Z</time>
      </trkpt>
      <trkpt lat="47.86159" lon="7.15752">
        <ele>902.8151855</ele>
        <time>2012-03-27T10:01:47Z</time>
      </trkpt>
      <trkpt lat="47.86155" lon="7.15743">
        <ele>904.2573242</ele>
        <time>2012-03-27T10:01:59Z</time>
      </trkpt>
      <trkpt lat="47.86156" lon="7.15736">
        <ele>907.6218262</ele>
        <time>2012-03-27T10:02:14Z</time>
      </trkpt>
      <trkpt lat="47.86156" lon="7.15729">
        <ele>909.0639648</ele>
        <time>2012-03-27T10:02:28Z</time>
      </trkpt>
      <trkpt lat="47.86151" lon="7.15725">
        <ele>909.5446777</ele>
        <time>2012-03-27T10:02:41Z</time>
      </trkpt>
      <trkpt lat="47.86149" lon="7.15725">
        <ele>908.1027832</ele>
        <time>2012-03-27T10:02:52Z</time>
      </trkpt>
      <trkpt lat="47.86148" lon="7.15724">
        <ele>908.1027832</ele>
        <time>2012-03-27T10:03:03Z</time>
      </trkpt>
      <trkpt lat="47.8615" lon="7.15717">
        <ele>906.1796875</ele>
        <time>2012-03-27T10:03:11Z</time>
      </trkpt>
      <trkpt lat="47.86155" lon="7.15709">
        <ele>904.2573242</ele>
        <time>2012-03-27T10:03:24Z</time>
      </trkpt>
      <trkpt lat="47.86156" lon="7.15703">
        <ele>902.8151855</ele>
        <time>2012-03-27T10:03:38Z</time>
      </trkpt>
      <trkpt lat="47.86157" lon="7.15696">
        <ele>901.373291</ele>
        <time>2012-03-27T10:03:52Z</time>
      </trkpt>
      <trkpt lat="47.86158" lon="7.15701">
        <ele>901.8540039</ele>
        <time>2012-03-27T10:03:56Z</time>
      </trkpt>
      <trkpt lat="47.86154" lon="7.15701">
        <ele>901.8540039</ele>
        <time>2012-03-27T10:04:11Z</time>
      </trkpt>
      <trkpt lat="47.86143" lon="7.15699">
        <ele>899.9313965</ele>
        <time>2012-03-27T10:04:13Z</time>
      </trkpt>
      <trkpt lat="47.86137" lon="7.15688">
        <ele>899.9313965</ele>
        <time>2012-03-27T10:04:18Z</time>
      </trkpt>
      <trkpt lat="47.86129" lon="7.15688">
        <ele>903.2958984</ele>
        <time>2012-03-27T10:04:30Z</time>
      </trkpt>
      <trkpt lat="47.86124" lon="7.15679">
        <ele>903.2958984</ele>
        <time>2012-03-27T10:04:39Z</time>
      </trkpt>
      <trkpt lat="47.86119" lon="7.15678">
        <ele>903.2958984</ele>
        <time>2012-03-27T10:04:54Z</time>
      </trkpt>
      <trkpt lat="47.8611" lon="7.15666">
        <ele>902.8151855</ele>
        <time>2012-03-27T10:05:07Z</time>
      </trkpt>
      <trkpt lat="47.86108" lon="7.15664">
        <ele>902.8151855</ele>
        <time>2012-03-27T10:05:26Z</time>
      </trkpt>
      <trkpt lat="47.86103" lon="7.15657">
        <ele>902.3344727</ele>
        <time>2012-03-27T10:05:43Z</time>
      </trkpt>
      <trkpt lat="47.86097" lon="7.15641">
        <ele>898.0087891</ele>
        <time>2012-03-27T10:05:56Z</time>
      </trkpt>
      <trkpt lat="47.86089" lon="7.15628">
        <ele>898.4892578</ele>
        <time>2012-03-27T10:06:07Z</time>
      </trkpt>
      <trkpt lat="47.86084" lon="7.15612">
        <ele>899.4506836</ele>
        <time>2012-03-27T10:06:26Z</time>
      </trkpt>
      <trkpt lat="47.8608" lon="7.15597">
        <ele>898.4892578</ele>
        <time>2012-03-27T10:06:43Z</time>
      </trkpt>
      <trkpt lat="47.86073" lon="7.15569">
        <ele>897.0473633</ele>
        <time>2012-03-27T10:07:04Z</time>
      </trkpt>
      <trkpt lat="47.86057" lon="7.1555">
        <ele>894.644043</ele>
        <time>2012-03-27T10:07:20Z</time>
      </trkpt>
      <trkpt lat="47.86048" lon="7.15535">
        <ele>893.6828613</ele>
        <time>2012-03-27T10:07:23Z</time>
      </trkpt>
      <trkpt lat="47.86048" lon="7.15523">
        <ele>892.2409668</ele>
        <time>2012-03-27T10:07:42Z</time>
      </trkpt>
      <trkpt lat="47.86033" lon="7.15495">
        <ele>889.8374023</ele>
        <time>2012-03-27T10:07:58Z</time>
      </trkpt>
      <trkpt lat="47.86019" lon="7.15479">
        <ele>887.434082</ele>
        <time>2012-03-27T10:08:18Z</time>
      </trkpt>
      <trkpt lat="47.86003" lon="7.15463">
        <ele>884.550293</ele>
        <time>2012-03-27T10:08:33Z</time>
      </trkpt>
      <trkpt lat="47.85998" lon="7.15439">
        <ele>884.0695801</ele>
        <time>2012-03-27T10:08:51Z</time>
      </trkpt>
      <trkpt lat="47.85996" lon="7.15433">
        <ele>884.0695801</ele>
        <time>2012-03-27T10:09:11Z</time>
      </trkpt>
      <trkpt lat="47.85995" lon="7.15402">
        <ele>883.1081543</ele>
        <time>2012-03-27T10:09:32Z</time>
      </trkpt>
      <trkpt lat="47.85992" lon="7.1538">
        <ele>883.1081543</ele>
        <time>2012-03-27T10:10:36Z</time>
      </trkpt>
      <trkpt lat="47.85986" lon="7.15354">
        <ele>881.6662598</ele>
        <time>2012-03-27T10:10:57Z</time>
      </trkpt>
      <trkpt lat="47.85978" lon="7.15336">
        <ele>880.7050781</ele>
        <time>2012-03-27T10:11:10Z</time>
      </trkpt>
      <trkpt lat="47.85968" lon="7.15313">
        <ele>879.7436523</ele>
        <time>2012-03-27T10:11:28Z</time>
      </trkpt>
      <trkpt lat="47.85955" lon="7.15293">
        <ele>878.3017578</ele>
        <time>2012-03-27T10:11:41Z</time>
      </trkpt>
      <trkpt lat="47.85954" lon="7.15281">
        <ele>878.7824707</ele>
        <time>2012-03-27T10:11:55Z</time>
      </trkpt>
      <trkpt lat="47.85958" lon="7.1528">
        <ele>879.2629395</ele>
        <time>2012-03-27T10:12:11Z</time>
      </trkpt>
      <trkpt lat="47.85951" lon="7.15275">
        <ele>878.7824707</ele>
        <time>2012-03-27T10:12:35Z</time>
      </trkpt>
      <trkpt lat="47.8594" lon="7.15261">
        <ele>879.2629395</ele>
        <time>2012-03-27T10:13:01Z</time>
      </trkpt>
      <trkpt lat="47.85927" lon="7.15252">
        <ele>880.7050781</ele>
        <time>2012-03-27T10:13:18Z</time>
      </trkpt>
      <trkpt lat="47.85934" lon="7.15245">
        <ele>881.185791</ele>
        <time>2012-03-27T10:13:27Z</time>
      </trkpt>
      <trkpt lat="47.85935" lon="7.15235">
        <ele>882.1469727</ele>
        <time>2012-03-27T10:13:47Z</time>
      </trkpt>
      <trkpt lat="47.85937" lon="7.15227">
        <ele>882.6276855</ele>
        <time>2012-03-27T10:14:09Z</time>
      </trkpt>
      <trkpt lat="47.85939" lon="7.15227">
        <ele>883.1081543</ele>
        <time>2012-03-27T10:14:42Z</time>
      </trkpt>
      <trkpt lat="47.85934" lon="7.15223">
        <ele>883.5888672</ele>
        <time>2012-03-27T10:15:02Z</time>
      </trkpt>
      <trkpt lat="47.85931" lon="7.15209">
        <ele>885.5114746</ele>
        <time>2012-03-27T10:15:22Z</time>
      </trkpt>
      <trkpt lat="47.85932" lon="7.15207">
        <ele>885.0310059</ele>
        <time>2012-03-27T10:15:42Z</time>
      </trkpt>
      <trkpt lat="47.8594" lon="7.15202">
        <ele>885.9921875</ele>
        <time>2012-03-27T10:16:12Z</time>
      </trkpt>
      <trkpt lat="47.85938" lon="7.15196">
        <ele>887.434082</ele>
        <time>2012-03-27T10:16:13Z</time>
      </trkpt>
      <trkpt lat="47.85929" lon="7.15193">
        <ele>887.434082</ele>
        <time>2012-03-27T10:16:19Z</time>
      </trkpt>
      <trkpt lat="47.85921" lon="7.1518">
        <ele>889.8374023</ele>
        <time>2012-03-27T10:16:20Z</time>
      </trkpt>
      <trkpt lat="47.8592" lon="7.15169">
        <ele>890.3181152</ele>
        <time>2012-03-27T10:16:23Z</time>
      </trkpt>
      <trkpt lat="47.85924" lon="7.15158">
        <ele>891.2792969</ele>
        <time>2012-03-27T10:16:40Z</time>
      </trkpt>
      <trkpt lat="47.85912" lon="7.15158">
        <ele>892.2409668</ele>
        <time>2012-03-27T10:17:00Z</time>
      </trkpt>
      <trkpt lat="47.85911" lon="7.15158">
        <ele>892.2409668</ele>
        <time>2012-03-27T10:17:19Z</time>
      </trkpt>
      <trkpt lat="47.85905" lon="7.15159">
        <ele>885.9921875</ele>
        <time>2012-03-27T10:17:32Z</time>
      </trkpt>
      <trkpt lat="47.85904" lon="7.15158">
        <ele>889.8374023</ele>
        <time>2012-03-27T10:17:54Z</time>
      </trkpt>
      <trkpt lat="47.85902" lon="7.15156">
        <ele>892.7216797</ele>
        <time>2012-03-27T10:18:13Z</time>
      </trkpt>
      <trkpt lat="47.85894" lon="7.1515">
        <ele>893.2021484</ele>
        <time>2012-03-27T10:18:20Z</time>
      </trkpt>
      <trkpt lat="47.85876" lon="7.15159">
        <ele>892.7216797</ele>
        <time>2012-03-27T10:18:37Z</time>
      </trkpt>
      <trkpt lat="47.85863" lon="7.15164">
        <ele>891.7600098</ele>
        <time>2012-03-27T10:18:51Z</time>
      </trkpt>
      <trkpt lat="47.85863" lon="7.15165">
        <ele>891.7600098</ele>
        <time>2012-03-27T10:19:06Z</time>
      </trkpt>
      <trkpt lat="47.85853" lon="7.15156">
        <ele>890.798584</ele>
        <time>2012-03-27T10:19:18Z</time>
      </trkpt>
      <trkpt lat="47.85842" lon="7.15147">
        <ele>890.798584</ele>
        <time>2012-03-27T10:19:35Z</time>
      </trkpt>
      <trkpt lat="47.8584" lon="7.15143">
        <ele>890.3181152</ele>
        <time>2012-03-27T10:19:47Z</time>
      </trkpt>
      <trkpt lat="47.85834" lon="7.15125">
        <ele>891.2792969</ele>
        <time>2012-03-27T10:20:03Z</time>
      </trkpt>
      <trkpt lat="47.85831" lon="7.1511">
        <ele>892.2409668</ele>
        <time>2012-03-27T10:20:22Z</time>
      </trkpt>
      <trkpt lat="47.85831" lon="7.15092">
        <ele>893.2021484</ele>
        <time>2012-03-27T10:20:31Z</time>
      </trkpt>
      <trkpt lat="47.85831" lon="7.15076">
        <ele>894.644043</ele>
        <time>2012-03-27T10:20:44Z</time>
      </trkpt>
      <trkpt lat="47.85832" lon="7.15054">
        <ele>896.0861816</ele>
        <time>2012-03-27T10:20:46Z</time>
      </trkpt>
      <trkpt lat="47.85832" lon="7.15047">
        <ele>897.5280762</ele>
        <time>2012-03-27T10:21:00Z</time>
      </trkpt>
      <trkpt lat="47.8583" lon="7.15031">
        <ele>897.5280762</ele>
        <time>2012-03-27T10:21:17Z</time>
      </trkpt>
      <trkpt lat="47.85823" lon="7.14999">
        <ele>898.0087891</ele>
        <time>2012-03-27T10:21:35Z</time>
      </trkpt>
      <trkpt lat="47.8582" lon="7.14983">
        <ele>898.0087891</ele>
        <time>2012-03-27T10:21:52Z</time>
      </trkpt>
      <trkpt lat="47.85812" lon="7.14959">
        <ele>898.0087891</ele>
        <time>2012-03-27T10:22:05Z</time>
      </trkpt>
      <trkpt lat="47.85812" lon="7.14959">
        <ele>898.0087891</ele>
        <time>2012-03-27T10:22:12Z</time>
      </trkpt>
      <trkpt lat="47.85809" lon="7.14941">
        <ele>898.0087891</ele>
        <time>2012-03-27T10:22:27Z</time>
      </trkpt>
      <trkpt lat="47.85813" lon="7.14917">
        <ele>899.9313965</ele>
        <time>2012-03-27T10:22:40Z</time>
      </trkpt>
      <trkpt lat="47.85831" lon="7.14925">
        <ele>902.8151855</ele>
        <time>2012-03-27T10:22:57Z</time>
      </trkpt>
      <trkpt lat="47.85843" lon="7.14929">
        <ele>903.7766113</ele>
        <time>2012-03-27T10:23:11Z</time>
      </trkpt>
      <trkpt lat="47.8583" lon="7.14923">
        <ele>902.3344727</ele>
        <time>2012-03-27T10:23:23Z</time>
      </trkpt>
      <trkpt lat="47.85825" lon="7.14923">
        <ele>901.373291</ele>
        <time>2012-03-27T10:23:36Z</time>
      </trkpt>
      <trkpt lat="47.85812" lon="7.14912">
        <ele>899.4506836</ele>
        <time>2012-03-27T10:23:41Z</time>
      </trkpt>
      <trkpt lat="47.85801" lon="7.14903">
        <ele>898.4892578</ele>
        <time>2012-03-27T10:23:47Z</time>
      </trkpt>
      <trkpt lat="47.85786" lon="7.1488">
        <ele>897.5280762</ele>
        <time>2012-03-27T10:24:00Z</time>
      </trkpt>
      <trkpt lat="47.85772" lon="7.14864">
        <ele>897.0473633</ele>
        <time>2012-03-27T10:24:16Z</time>
      </trkpt>
      <trkpt lat="47.85764" lon="7.14851">
        <ele>897.5280762</ele>
        <time>2012-03-27T10:25:02Z</time>
      </trkpt>
      <trkpt lat="47.85769" lon="7.14833">
        <ele>898.9699707</ele>
        <time>2012-03-27T10:25:24Z</time>
      </trkpt>
      <trkpt lat="47.8577" lon="7.14819">
        <ele>898.0087891</ele>
        <time>2012-03-27T10:25:46Z</time>
      </trkpt>
      <trkpt lat="47.85774" lon="7.14812">
        <ele>898.9699707</ele>
        <time>2012-03-27T10:26:00Z</time>
      </trkpt>
      <trkpt lat="47.85771" lon="7.14803">
        <ele>899.9313965</ele>
        <time>2012-03-27T10:26:18Z</time>
      </trkpt>
      <trkpt lat="47.85764" lon="7.1479">
        <ele>901.373291</ele>
        <time>2012-03-27T10:26:46Z</time>
      </trkpt>
      <trkpt lat="47.85759" lon="7.14792">
        <ele>901.373291</ele>
        <time>2012-03-27T10:27:04Z</time>
      </trkpt>
      <trkpt lat="47.85747" lon="7.14766">
        <ele>902.8151855</ele>
        <time>2012-03-27T10:27:29Z</time>
      </trkpt>
      <trkpt lat="47.85737" lon="7.14742">
        <ele>905.6992188</ele>
        <time>2012-03-27T10:27:48Z</time>
      </trkpt>
      <trkpt lat="47.85729" lon="7.1472">
        <ele>906.6604004</ele>
        <time>2012-03-27T10:28:07Z</time>
      </trkpt>
      <trkpt lat="47.85724" lon="7.147">
        <ele>909.0639648</ele>
        <time>2012-03-27T10:28:23Z</time>
      </trkpt>
      <trkpt lat="47.85729" lon="7.147">
        <ele>910.0251465</ele>
        <time>2012-03-27T10:28:43Z</time>
      </trkpt>
      <trkpt lat="47.85745" lon="7.14692">
        <ele>913.3898926</ele>
        <time>2012-03-27T10:29:01Z</time>
      </trkpt>
      <trkpt lat="47.85764" lon="7.14688">
        <ele>916.2736816</ele>
        <time>2012-03-27T10:29:23Z</time>
      </trkpt>
      <trkpt lat="47.8578" lon="7.14686">
        <ele>919.6384277</ele>
        <time>2012-03-27T10:29:42Z</time>
      </trkpt>
      <trkpt lat="47.85783" lon="7.14676">
        <ele>922.5222168</ele>
        <time>2012-03-27T10:30:05Z</time>
      </trkpt>
      <trkpt lat="47.85771" lon="7.14663">
        <ele>923.9641113</ele>
        <time>2012-03-27T10:30:26Z</time>
      </trkpt>
      <trkpt lat="47.85764" lon="7.14649">
        <ele>927.3291016</ele>
        <time>2012-03-27T10:30:49Z</time>
      </trkpt>
      <trkpt lat="47.85758" lon="7.14631">
        <ele>928.7709961</ele>
        <time>2012-03-27T10:31:12Z</time>
      </trkpt>
      <trkpt lat="47.8575" lon="7.14615">
        <ele>931.1743164</ele>
        <time>2012-03-27T10:31:29Z</time>
      </trkpt>
      <trkpt lat="47.85738" lon="7.14587">
        <ele>933.5773926</ele>
        <time>2012-03-27T10:31:48Z</time>
      </trkpt>
      <trkpt lat="47.8573" lon="7.14572">
        <ele>936.4614258</ele>
        <time>2012-03-27T10:32:07Z</time>
      </trkpt>
      <trkpt lat="47.85727" lon="7.1455">
        <ele>938.3840332</ele>
        <time>2012-03-27T10:32:37Z</time>
      </trkpt>
      <trkpt lat="47.85721" lon="7.14521">
        <ele>940.3068848</ele>
        <time>2012-03-27T10:32:53Z</time>
      </trkpt>
      <trkpt lat="47.85717" lon="7.14486">
        <ele>942.7102051</ele>
        <time>2012-03-27T10:33:06Z</time>
      </trkpt>
      <trkpt lat="47.85717" lon="7.14465">
        <ele>944.1520996</ele>
        <time>2012-03-27T10:33:23Z</time>
      </trkpt>
      <trkpt lat="47.85717" lon="7.14451">
        <ele>947.0358887</ele>
        <time>2012-03-27T10:33:47Z</time>
      </trkpt>
      <trkpt lat="47.85713" lon="7.14425">
        <ele>948.4777832</ele>
        <time>2012-03-27T10:34:13Z</time>
      </trkpt>
      <trkpt lat="47.85717" lon="7.14384">
        <ele>950.8811035</ele>
        <time>2012-03-27T10:34:36Z</time>
      </trkpt>
      <trkpt lat="47.85717" lon="7.14363">
        <ele>952.8037109</ele>
        <time>2012-03-27T10:34:57Z</time>
      </trkpt>
      <trkpt lat="47.85714" lon="7.14346">
        <ele>953.7651367</ele>
        <time>2012-03-27T10:35:12Z</time>
      </trkpt>
      <trkpt lat="47.85711" lon="7.14322">
        <ele>955.2070313</ele>
        <time>2012-03-27T10:35:14Z</time>
      </trkpt>
      <trkpt lat="47.85709" lon="7.14305">
        <ele>958.0913086</ele>
        <time>2012-03-27T10:35:29Z</time>
      </trkpt>
      <trkpt lat="47.85708" lon="7.14276">
        <ele>960.9750977</ele>
        <time>2012-03-27T10:35:50Z</time>
      </trkpt>
      <trkpt lat="47.85703" lon="7.14246">
        <ele>962.4169922</ele>
        <time>2012-03-27T10:36:04Z</time>
      </trkpt>
      <trkpt lat="47.85702" lon="7.14225">
        <ele>964.8203125</ele>
        <time>2012-03-27T10:36:22Z</time>
      </trkpt>
      <trkpt lat="47.857" lon="7.14205">
        <ele>964.8203125</ele>
        <time>2012-03-27T10:36:45Z</time>
      </trkpt>
      <trkpt lat="47.857" lon="7.14203">
        <ele>966.7429199</ele>
        <time>2012-03-27T10:37:05Z</time>
      </trkpt>
      <trkpt lat="47.85699" lon="7.14187">
        <ele>968.1848145</ele>
        <time>2012-03-27T10:37:29Z</time>
      </trkpt>
      <trkpt lat="47.857" lon="7.14168">
        <ele>969.1462402</ele>
        <time>2012-03-27T10:37:46Z</time>
      </trkpt>
      <trkpt lat="47.85705" lon="7.14154">
        <ele>971.5493164</ele>
        <time>2012-03-27T10:38:04Z</time>
      </trkpt>
      <trkpt lat="47.85715" lon="7.14133">
        <ele>973.4724121</ele>
        <time>2012-03-27T10:38:22Z</time>
      </trkpt>
      <trkpt lat="47.85731" lon="7.14122">
        <ele>975.3947754</ele>
        <time>2012-03-27T10:38:39Z</time>
      </trkpt>
      <trkpt lat="47.85738" lon="7.14097">
        <ele>977.7980957</ele>
        <time>2012-03-27T10:38:59Z</time>
      </trkpt>
      <trkpt lat="47.85741" lon="7.14069">
        <ele>980.201416</ele>
        <time>2012-03-27T10:39:17Z</time>
      </trkpt>
      <trkpt lat="47.8574" lon="7.1405">
        <ele>982.1240234</ele>
        <time>2012-03-27T10:39:26Z</time>
      </trkpt>
      <trkpt lat="47.85745" lon="7.1403">
        <ele>983.565918</ele>
        <time>2012-03-27T10:39:44Z</time>
      </trkpt>
      <trkpt lat="47.8575" lon="7.14007">
        <ele>985.0080566</ele>
        <time>2012-03-27T10:40:02Z</time>
      </trkpt>
      <trkpt lat="47.85748" lon="7.13991">
        <ele>986.4499512</ele>
        <time>2012-03-27T10:40:18Z</time>
      </trkpt>
      <trkpt lat="47.8574" lon="7.13966">
        <ele>988.3728027</ele>
        <time>2012-03-27T10:40:34Z</time>
      </trkpt>
      <trkpt lat="47.85741" lon="7.13942">
        <ele>991.2565918</ele>
        <time>2012-03-27T10:40:55Z</time>
      </trkpt>
      <trkpt lat="47.8574" lon="7.13929">
        <ele>991.7373047</ele>
        <time>2012-03-27T10:41:15Z</time>
      </trkpt>
      <trkpt lat="47.85742" lon="7.13916">
        <ele>993.1791992</ele>
        <time>2012-03-27T10:41:33Z</time>
      </trkpt>
      <trkpt lat="47.85757" lon="7.13899">
        <ele>995.1018066</ele>
        <time>2012-03-27T10:41:53Z</time>
      </trkpt>
      <trkpt lat="47.85763" lon="7.13883">
        <ele>996.0632324</ele>
        <time>2012-03-27T10:42:09Z</time>
      </trkpt>
      <trkpt lat="47.85764" lon="7.13867">
        <ele>998.9470215</ele>
        <time>2012-03-27T10:42:25Z</time>
      </trkpt>
      <trkpt lat="47.85774" lon="7.13855">
        <ele>999.9084473</ele>
        <time>2012-03-27T10:42:29Z</time>
      </trkpt>
      <trkpt lat="47.85772" lon="7.13834">
        <ele>1001.3503418</ele>
        <time>2012-03-27T10:42:42Z</time>
      </trkpt>
      <trkpt lat="47.85773" lon="7.13838">
        <ele>1001.3503418</ele>
        <time>2012-03-27T10:42:55Z</time>
      </trkpt>
      <trkpt lat="47.85771" lon="7.13855">
        <ele>999.4277344</ele>
        <time>2012-03-27T10:43:13Z</time>
      </trkpt>
      <trkpt lat="47.85759" lon="7.13861">
        <ele>999.4277344</ele>
        <time>2012-03-27T10:43:29Z</time>
      </trkpt>
      <trkpt lat="47.85746" lon="7.13846">
        <ele>999.4277344</ele>
        <time>2012-03-27T10:43:44Z</time>
      </trkpt>
      <trkpt lat="47.85744" lon="7.1384">
        <ele>999.4277344</ele>
        <time>2012-03-27T10:43:49Z</time>
      </trkpt>
      <trkpt lat="47.85734" lon="7.13822">
        <ele>998.9470215</ele>
        <time>2012-03-27T10:44:00Z</time>
      </trkpt>
      <trkpt lat="47.85725" lon="7.13806">
        <ele>996.5439453</ele>
        <time>2012-03-27T10:44:17Z</time>
      </trkpt>
      <trkpt lat="47.85714" lon="7.13791">
        <ele>993.6599121</ele>
        <time>2012-03-27T10:44:31Z</time>
      </trkpt>
      <trkpt lat="47.85702" lon="7.13774">
        <ele>992.6987305</ele>
        <time>2012-03-27T10:44:46Z</time>
      </trkpt>
      <trkpt lat="47.85695" lon="7.13766">
        <ele>992.2180176</ele>
        <time>2012-03-27T10:45:03Z</time>
      </trkpt>
      <trkpt lat="47.85693" lon="7.13761">
        <ele>992.2180176</ele>
        <time>2012-03-27T10:45:16Z</time>
      </trkpt>
      <trkpt lat="47.85686" lon="7.1374">
        <ele>993.6599121</ele>
        <time>2012-03-27T10:45:31Z</time>
      </trkpt>
      <trkpt lat="47.8568" lon="7.13721">
        <ele>996.5439453</ele>
        <time>2012-03-27T10:45:33Z</time>
      </trkpt>
      <trkpt lat="47.8567" lon="7.13706">
        <ele>997.0244141</ele>
        <time>2012-03-27T10:45:40Z</time>
      </trkpt>
      <trkpt lat="47.85662" lon="7.13692">
        <ele>998.4663086</ele>
        <time>2012-03-27T10:45:45Z</time>
      </trkpt>
      <trkpt lat="47.85653" lon="7.13676">
        <ele>1000.3891602</ele>
        <time>2012-03-27T10:45:58Z</time>
      </trkpt>
      <trkpt lat="47.85647" lon="7.13661">
        <ele>1001.8310547</ele>
        <time>2012-03-27T10:46:23Z</time>
      </trkpt>
      <trkpt lat="47.85639" lon="7.13647">
        <ele>1002.7922363</ele>
        <time>2012-03-27T10:46:40Z</time>
      </trkpt>
      <trkpt lat="47.85637" lon="7.13644">
        <ele>1003.2729492</ele>
        <time>2012-03-27T10:46:56Z</time>
      </trkpt>
      <trkpt lat="47.85632" lon="7.13636">
        <ele>1003.2729492</ele>
        <time>2012-03-27T10:47:05Z</time>
      </trkpt>
      <trkpt lat="47.8563" lon="7.1363">
        <ele>1004.2346191</ele>
        <time>2012-03-27T10:47:23Z</time>
      </trkpt>
      <trkpt lat="47.85621" lon="7.13619">
        <ele>1005.6765137</ele>
        <time>2012-03-27T10:47:40Z</time>
      </trkpt>
      <trkpt lat="47.85596" lon="7.13607">
        <ele>1005.1958008</ele>
        <time>2012-03-27T10:47:52Z</time>
      </trkpt>
      <trkpt lat="47.8558" lon="7.13598">
        <ele>1006.1569824</ele>
        <time>2012-03-27T10:48:09Z</time>
      </trkpt>
      <trkpt lat="47.85564" lon="7.13587">
        <ele>1009.0410156</ele>
        <time>2012-03-27T10:48:21Z</time>
      </trkpt>
      <trkpt lat="47.85555" lon="7.13579">
        <ele>1010.4829102</ele>
        <time>2012-03-27T10:48:40Z</time>
      </trkpt>
      <trkpt lat="47.8554" lon="7.13565">
        <ele>1012.4055176</ele>
        <time>2012-03-27T10:49:02Z</time>
      </trkpt>
      <trkpt lat="47.85527" lon="7.13554">
        <ele>1014.8088379</ele>
        <time>2012-03-27T10:49:15Z</time>
      </trkpt>
      <trkpt lat="47.85518" lon="7.13545">
        <ele>1016.7314453</ele>
        <time>2012-03-27T10:49:33Z</time>
      </trkpt>
      <trkpt lat="47.85501" lon="7.13535">
        <ele>1018.1733398</ele>
        <time>2012-03-27T10:49:54Z</time>
      </trkpt>
      <trkpt lat="47.85491" lon="7.13525">
        <ele>1020.0961914</ele>
        <time>2012-03-27T10:50:15Z</time>
      </trkpt>
      <trkpt lat="47.85475" lon="7.13517">
        <ele>1022.0187988</ele>
        <time>2012-03-27T10:50:37Z</time>
      </trkpt>
      <trkpt lat="47.85458" lon="7.13516">
        <ele>1024.4221191</ele>
        <time>2012-03-27T10:51:01Z</time>
      </trkpt>
      <trkpt lat="47.85459" lon="7.13515">
        <ele>1024.902832</ele>
        <time>2012-03-27T10:51:20Z</time>
      </trkpt>
      <trkpt lat="47.85443" lon="7.13521">
        <ele>1026.3447266</ele>
        <time>2012-03-27T10:51:45Z</time>
      </trkpt>
      <trkpt lat="47.85422" lon="7.1353">
        <ele>1029.2285156</ele>
        <time>2012-03-27T10:51:54Z</time>
      </trkpt>
      <trkpt lat="47.85404" lon="7.13538">
        <ele>1031.6318359</ele>
        <time>2012-03-27T10:51:58Z</time>
      </trkpt>
      <trkpt lat="47.85384" lon="7.13547">
        <ele>1034.996582</ele>
        <time>2012-03-27T10:52:15Z</time>
      </trkpt>
      <trkpt lat="47.85364" lon="7.13561">
        <ele>1035.9577637</ele>
        <time>2012-03-27T10:52:28Z</time>
      </trkpt>
      <trkpt lat="47.8535" lon="7.13572">
        <ele>1036.4387207</ele>
        <time>2012-03-27T10:52:42Z</time>
      </trkpt>
      <trkpt lat="47.85337" lon="7.13578">
        <ele>1036.9191895</ele>
        <time>2012-03-27T10:52:47Z</time>
      </trkpt>
      <trkpt lat="47.85329" lon="7.13581">
        <ele>1037.3999023</ele>
        <time>2012-03-27T10:53:04Z</time>
      </trkpt>
      <trkpt lat="47.85326" lon="7.13583">
        <ele>1037.3999023</ele>
        <time>2012-03-27T10:53:17Z</time>
      </trkpt>
      <trkpt lat="47.85319" lon="7.13574">
        <ele>1039.8032227</ele>
        <time>2012-03-27T10:53:34Z</time>
      </trkpt>
      <trkpt lat="47.85319" lon="7.13563">
        <ele>1041.7258301</ele>
        <time>2012-03-27T10:54:01Z</time>
      </trkpt>
      <trkpt lat="47.8532" lon="7.13556">
        <ele>1042.6872559</ele>
        <time>2012-03-27T10:54:07Z</time>
      </trkpt>
      <trkpt lat="47.85321" lon="7.1355">
        <ele>1043.1677246</ele>
        <time>2012-03-27T10:54:23Z</time>
      </trkpt>
      <trkpt lat="47.85325" lon="7.13532">
        <ele>1043.6484375</ele>
        <time>2012-03-27T10:54:56Z</time>
      </trkpt>
      <trkpt lat="47.8532" lon="7.13521">
        <ele>1045.5710449</ele>
        <time>2012-03-27T10:55:08Z</time>
      </trkpt>
      <trkpt lat="47.85316" lon="7.13511">
        <ele>1047.4936523</ele>
        <time>2012-03-27T10:55:22Z</time>
      </trkpt>
      <trkpt lat="47.85315" lon="7.13503">
        <ele>1050.3776855</ele>
        <time>2012-03-27T10:55:33Z</time>
      </trkpt>
      <trkpt lat="47.85314" lon="7.13498">
        <ele>1050.8581543</ele>
        <time>2012-03-27T10:55:52Z</time>
      </trkpt>
      <trkpt lat="47.85309" lon="7.1349">
        <ele>1053.2617188</ele>
        <time>2012-03-27T10:56:01Z</time>
      </trkpt>
      <trkpt lat="47.85301" lon="7.13479">
        <ele>1053.7424316</ele>
        <time>2012-03-27T10:56:06Z</time>
      </trkpt>
      <trkpt lat="47.85297" lon="7.13468">
        <ele>1055.6650391</ele>
        <time>2012-03-27T10:56:21Z</time>
      </trkpt>
      <trkpt lat="47.85297" lon="7.13461">
        <ele>1058.5488281</ele>
        <time>2012-03-27T10:56:35Z</time>
      </trkpt>
      <trkpt lat="47.85295" lon="7.13456">
        <ele>1059.029541</ele>
        <time>2012-03-27T10:56:51Z</time>
      </trkpt>
      <trkpt lat="47.85288" lon="7.13445">
        <ele>1061.9135742</ele>
        <time>2012-03-27T10:57:14Z</time>
      </trkpt>
      <trkpt lat="47.85286" lon="7.1344">
        <ele>1065.7587891</ele>
        <time>2012-03-27T10:57:28Z</time>
      </trkpt>
      <trkpt lat="47.85286" lon="7.13438">
        <ele>1064.3166504</ele>
        <time>2012-03-27T10:57:41Z</time>
      </trkpt>
      <trkpt lat="47.85286" lon="7.13435">
        <ele>1064.7973633</ele>
        <time>2012-03-27T10:57:53Z</time>
      </trkpt>
      <trkpt lat="47.85279" lon="7.13426">
        <ele>1068.1621094</ele>
        <time>2012-03-27T10:58:07Z</time>
      </trkpt>
      <trkpt lat="47.85278" lon="7.13427">
        <ele>1068.6428223</ele>
        <time>2012-03-27T10:58:21Z</time>
      </trkpt>
      <trkpt lat="47.8527" lon="7.13417">
        <ele>1070.0847168</ele>
        <time>2012-03-27T10:58:33Z</time>
      </trkpt>
      <trkpt lat="47.85261" lon="7.13406">
        <ele>1073.4494629</ele>
        <time>2012-03-27T10:58:46Z</time>
      </trkpt>
      <trkpt lat="47.85256" lon="7.13397">
        <ele>1076.333252</ele>
        <time>2012-03-27T10:58:59Z</time>
      </trkpt>
      <trkpt lat="47.85253" lon="7.13389">
        <ele>1077.2946777</ele>
        <time>2012-03-27T10:59:15Z</time>
      </trkpt>
      <trkpt lat="47.85249" lon="7.13376">
        <ele>1080.1784668</ele>
        <time>2012-03-27T10:59:31Z</time>
      </trkpt>
      <trkpt lat="47.85244" lon="7.13367">
        <ele>1081.6203613</ele>
        <time>2012-03-27T10:59:32Z</time>
      </trkpt>
      <trkpt lat="47.85237" lon="7.13354">
        <ele>1083.5429688</ele>
        <time>2012-03-27T10:59:50Z</time>
      </trkpt>
      <trkpt lat="47.85237" lon="7.13349">
        <ele>1084.0239258</ele>
        <time>2012-03-27T11:00:06Z</time>
      </trkpt>
      <trkpt lat="47.85233" lon="7.13343">
        <ele>1086.4272461</ele>
        <time>2012-03-27T11:00:26Z</time>
      </trkpt>
      <trkpt lat="47.85224" lon="7.13334">
        <ele>1088.3498535</ele>
        <time>2012-03-27T11:00:38Z</time>
      </trkpt>
      <trkpt lat="47.85216" lon="7.13327">
        <ele>1089.3110352</ele>
        <time>2012-03-27T11:00:51Z</time>
      </trkpt>
      <trkpt lat="47.85216" lon="7.13326">
        <ele>1089.791748</ele>
        <time>2012-03-27T11:01:08Z</time>
      </trkpt>
      <trkpt lat="47.85204" lon="7.13314">
        <ele>1090.2724609</ele>
        <time>2012-03-27T11:01:23Z</time>
      </trkpt>
      <trkpt lat="47.8519" lon="7.13299">
        <ele>1089.791748</ele>
        <time>2012-03-27T11:01:39Z</time>
      </trkpt>
      <trkpt lat="47.85182" lon="7.13275">
        <ele>1087.8691406</ele>
        <time>2012-03-27T11:01:59Z</time>
      </trkpt>
      <trkpt lat="47.85177" lon="7.13261">
        <ele>1085.9465332</ele>
        <time>2012-03-27T11:02:00Z</time>
      </trkpt>
      <trkpt lat="47.8517" lon="7.13261">
        <ele>1084.5046387</ele>
        <time>2012-03-27T11:02:03Z</time>
      </trkpt>
      <trkpt lat="47.85158" lon="7.13259">
        <ele>1081.1398926</ele>
        <time>2012-03-27T11:02:49Z</time>
      </trkpt>
      <trkpt lat="47.85151" lon="7.13255">
        <ele>1080.6591797</ele>
        <time>2012-03-27T11:04:04Z</time>
      </trkpt>
      <trkpt lat="47.85145" lon="7.13272">
        <ele>1080.1784668</ele>
        <time>2012-03-27T11:04:05Z</time>
      </trkpt>
      <trkpt lat="47.85141" lon="7.13277">
        <ele>1079.6977539</ele>
        <time>2012-03-27T11:10:13Z</time>
      </trkpt>
      <trkpt lat="47.85141" lon="7.13277">
        <ele>1079.6977539</ele>
        <time>2012-03-27T11:11:45Z</time>
      </trkpt>
      <trkpt lat="47.85141" lon="7.13278">
        <ele>1082.1010742</ele>
        <time>2012-03-27T11:23:53Z</time>
      </trkpt>
      <trkpt lat="47.85137" lon="7.1327">
        <ele>1082.1010742</ele>
        <time>2012-03-27T11:38:02Z</time>
      </trkpt>
      <trkpt lat="47.85138" lon="7.13272">
        <ele>1078.7365723</ele>
        <time>2012-03-27T11:38:26Z</time>
      </trkpt>
      <trkpt lat="47.85138" lon="7.13272">
        <ele>1083.0622559</ele>
        <time>2012-03-27T11:38:27Z</time>
      </trkpt>
      <trkpt lat="47.85141" lon="7.13275">
        <ele>1084.5046387</ele>
        <time>2012-03-27T11:38:29Z</time>
      </trkpt>
      <trkpt lat="47.85141" lon="7.13273">
        <ele>1085.9465332</ele>
        <time>2012-03-27T11:38:31Z</time>
      </trkpt>
      <trkpt lat="47.8514" lon="7.13276">
        <ele>1088.8305664</ele>
        <time>2012-03-27T11:38:41Z</time>
      </trkpt>
      <trkpt lat="47.85137" lon="7.13268">
        <ele>1090.7529297</ele>
        <time>2012-03-27T11:38:43Z</time>
      </trkpt>
      <trkpt lat="47.85135" lon="7.13266">
        <ele>1085.9465332</ele>
        <time>2012-03-27T11:39:00Z</time>
      </trkpt>
      <trkpt lat="47.85134" lon="7.13266">
        <ele>1085.9465332</ele>
        <time>2012-03-27T11:39:01Z</time>
      </trkpt>
      <trkpt lat="47.85134" lon="7.13266">
        <ele>1089.3110352</ele>
        <time>2012-03-27T11:39:02Z</time>
      </trkpt>
      <trkpt lat="47.85134" lon="7.13265">
        <ele>1091.2336426</ele>
        <time>2012-03-27T11:39:03Z</time>
      </trkpt>
      <trkpt lat="47.85134" lon="7.13267">
        <ele>1087.3884277</ele>
        <time>2012-03-27T11:39:04Z</time>
      </trkpt>
      <trkpt lat="47.85134" lon="7.13267">
        <ele>1091.2336426</ele>
        <time>2012-03-27T11:39:08Z</time>
      </trkpt>
      <trkpt lat="47.85133" lon="7.13267">
        <ele>1087.3884277</ele>
        <time>2012-03-27T11:39:13Z</time>
      </trkpt>
      <trkpt lat="47.85133" lon="7.13267">
        <ele>1090.2724609</ele>
        <time>2012-03-27T11:39:20Z</time>
      </trkpt>
      <trkpt lat="47.85133" lon="7.13267">
        <ele>1085.9465332</ele>
        <time>2012-03-27T11:39:34Z</time>
      </trkpt>
      <trkpt lat="47.85133" lon="7.13267">
        <ele>1089.791748</ele>
        <time>2012-03-27T11:39:35Z</time>
      </trkpt>
      <trkpt lat="47.85133" lon="7.13267">
        <ele>1086.4272461</ele>
        <time>2012-03-27T11:39:36Z</time>
      </trkpt>
      <trkpt lat="47.85133" lon="7.13266">
        <ele>1089.3110352</ele>
        <time>2012-03-27T11:39:38Z</time>
      </trkpt>
      <trkpt lat="47.85133" lon="7.13266">
        <ele>1091.2336426</ele>
        <time>2012-03-27T11:40:11Z</time>
      </trkpt>
      <trkpt lat="47.85132" lon="7.13265">
        <ele>1092.1950684</ele>
        <time>2012-03-27T11:40:16Z</time>
      </trkpt>
      <trkpt lat="47.85132" lon="7.13265">
        <ele>1084.5046387</ele>
        <time>2012-03-27T11:40:54Z</time>
      </trkpt>
      <trkpt lat="47.85132" lon="7.13265">
        <ele>1085.4658203</ele>
        <time>2012-03-27T11:41:24Z</time>
      </trkpt>
      <trkpt lat="47.85132" lon="7.13265">
        <ele>1090.7529297</ele>
        <time>2012-03-27T11:41:31Z</time>
      </trkpt>
      <trkpt lat="47.85132" lon="7.13265">
        <ele>1091.7143555</ele>
        <time>2012-03-27T11:41:47Z</time>
      </trkpt>
      <trkpt lat="47.85132" lon="7.13267">
        <ele>1090.2724609</ele>
        <time>2012-03-27T11:41:50Z</time>
      </trkpt>
      <trkpt lat="47.85132" lon="7.13267">
        <ele>1089.791748</ele>
        <time>2012-03-27T11:42:07Z</time>
      </trkpt>
      <trkpt lat="47.85137" lon="7.13263">
        <ele>1092.1950684</ele>
        <time>2012-03-27T11:42:23Z</time>
      </trkpt>
      <trkpt lat="47.85129" lon="7.13263">
        <ele>1090.7529297</ele>
        <time>2012-03-27T11:42:43Z</time>
      </trkpt>
      <trkpt lat="47.85135" lon="7.13251">
        <ele>1090.2724609</ele>
        <time>2012-03-27T11:43:13Z</time>
      </trkpt>
      <trkpt lat="47.85161" lon="7.13244">
        <ele>1091.2336426</ele>
        <time>2012-03-27T11:43:17Z</time>
      </trkpt>
      <trkpt lat="47.85165" lon="7.13241">
        <ele>1091.7143555</ele>
        <time>2012-03-27T11:43:32Z</time>
      </trkpt>
      <trkpt lat="47.85172" lon="7.13214">
        <ele>1089.791748</ele>
        <time>2012-03-27T11:43:49Z</time>
      </trkpt>
      <trkpt lat="47.85173" lon="7.13194">
        <ele>1087.8691406</ele>
        <time>2012-03-27T11:43:53Z</time>
      </trkpt>
      <trkpt lat="47.85166" lon="7.13152">
        <ele>1085.9465332</ele>
        <time>2012-03-27T11:44:00Z</time>
      </trkpt>
      <trkpt lat="47.85164" lon="7.13136">
        <ele>1084.9853516</ele>
        <time>2012-03-27T11:44:15Z</time>
      </trkpt>
      <trkpt lat="47.85161" lon="7.13128">
        <ele>1084.0239258</ele>
        <time>2012-03-27T11:44:29Z</time>
      </trkpt>
      <trkpt lat="47.85157" lon="7.13105">
        <ele>1081.1398926</ele>
        <time>2012-03-27T11:44:40Z</time>
      </trkpt>
      <trkpt lat="47.85155" lon="7.13082">
        <ele>1078.2558594</ele>
        <time>2012-03-27T11:44:43Z</time>
      </trkpt>
      <trkpt lat="47.85153" lon="7.13074">
        <ele>1077.7751465</ele>
        <time>2012-03-27T11:44:46Z</time>
      </trkpt>
      <trkpt lat="47.85148" lon="7.13054">
        <ele>1076.8139648</ele>
        <time>2012-03-27T11:44:53Z</time>
      </trkpt>
      <trkpt lat="47.85143" lon="7.13028">
        <ele>1074.4106445</ele>
        <time>2012-03-27T11:45:10Z</time>
      </trkpt>
      <trkpt lat="47.85139" lon="7.13005">
        <ele>1071.5266113</ele>
        <time>2012-03-27T11:45:25Z</time>
      </trkpt>
      <trkpt lat="47.8514" lon="7.1299">
        <ele>1069.604248</ele>
        <time>2012-03-27T11:45:30Z</time>
      </trkpt>
      <trkpt lat="47.85137" lon="7.12982">
        <ele>1069.1235352</ele>
        <time>2012-03-27T11:45:47Z</time>
      </trkpt>
      <trkpt lat="47.85136" lon="7.12979">
        <ele>1067.6811523</ele>
        <time>2012-03-27T11:45:55Z</time>
      </trkpt>
      <trkpt lat="47.85136" lon="7.1296">
        <ele>1068.1621094</ele>
        <time>2012-03-27T11:46:10Z</time>
      </trkpt>
      <trkpt lat="47.85137" lon="7.12934">
        <ele>1064.7973633</ele>
        <time>2012-03-27T11:46:21Z</time>
      </trkpt>
      <trkpt lat="47.85136" lon="7.12914">
        <ele>1062.394043</ele>
        <time>2012-03-27T11:46:37Z</time>
      </trkpt>
      <trkpt lat="47.85136" lon="7.12907">
        <ele>1061.4328613</ele>
        <time>2012-03-27T11:46:45Z</time>
      </trkpt>
      <trkpt lat="47.85133" lon="7.12877">
        <ele>1058.5488281</ele>
        <time>2012-03-27T11:46:47Z</time>
      </trkpt>
      <trkpt lat="47.85132" lon="7.12863">
        <ele>1056.6262207</ele>
        <time>2012-03-27T11:46:53Z</time>
      </trkpt>
      <trkpt lat="47.85127" lon="7.12838">
        <ele>1053.7424316</ele>
        <time>2012-03-27T11:47:08Z</time>
      </trkpt>
      <trkpt lat="47.85126" lon="7.12824">
        <ele>1051.8195801</ele>
        <time>2012-03-27T11:47:30Z</time>
      </trkpt>
      <trkpt lat="47.85122" lon="7.12802">
        <ele>1049.4162598</ele>
        <time>2012-03-27T11:47:50Z</time>
      </trkpt>
      <trkpt lat="47.85123" lon="7.12791">
        <ele>1049.4162598</ele>
        <time>2012-03-27T11:47:52Z</time>
      </trkpt>
      <trkpt lat="47.8512" lon="7.1278">
        <ele>1047.9743652</ele>
        <time>2012-03-27T11:48:18Z</time>
      </trkpt>
      <trkpt lat="47.85119" lon="7.12772">
        <ele>1047.0129395</ele>
        <time>2012-03-27T11:48:42Z</time>
      </trkpt>
      <trkpt lat="47.85115" lon="7.1275">
        <ele>1043.1677246</ele>
        <time>2012-03-27T11:49:00Z</time>
      </trkpt>
      <trkpt lat="47.85105" lon="7.12716">
        <ele>1039.8032227</ele>
        <time>2012-03-27T11:49:28Z</time>
      </trkpt>
      <trkpt lat="47.85098" lon="7.12689">
        <ele>1037.8806152</ele>
        <time>2012-03-27T11:49:47Z</time>
      </trkpt>
      <trkpt lat="47.85099" lon="7.12684">
        <ele>1036.4387207</ele>
        <time>2012-03-27T11:50:06Z</time>
      </trkpt>
      <trkpt lat="47.85091" lon="7.12644">
        <ele>1033.0737305</ele>
        <time>2012-03-27T11:50:26Z</time>
      </trkpt>
      <trkpt lat="47.85083" lon="7.12603">
        <ele>1030.1899414</ele>
        <time>2012-03-27T11:50:46Z</time>
      </trkpt>
      <trkpt lat="47.85082" lon="7.12574">
        <ele>1026.8254395</ele>
        <time>2012-03-27T11:51:02Z</time>
      </trkpt>
      <trkpt lat="47.85071" lon="7.12523">
        <ele>1024.4221191</ele>
        <time>2012-03-27T11:51:18Z</time>
      </trkpt>
      <trkpt lat="47.85066" lon="7.12495">
        <ele>1022.0187988</ele>
        <time>2012-03-27T11:51:23Z</time>
      </trkpt>
      <trkpt lat="47.85066" lon="7.12471">
        <ele>1019.1347656</ele>
        <time>2012-03-27T11:51:40Z</time>
      </trkpt>
      <trkpt lat="47.8506" lon="7.12442">
        <ele>1016.2507324</ele>
        <time>2012-03-27T11:52:00Z</time>
      </trkpt>
      <trkpt lat="47.85058" lon="7.12404">
        <ele>1013.8474121</ele>
        <time>2012-03-27T11:52:24Z</time>
      </trkpt>
      <trkpt lat="47.85056" lon="7.12379">
        <ele>1010.4829102</ele>
        <time>2012-03-27T11:52:41Z</time>
      </trkpt>
      <trkpt lat="47.85055" lon="7.1235">
        <ele>1008.079834</ele>
        <time>2012-03-27T11:52:58Z</time>
      </trkpt>
      <trkpt lat="47.85059" lon="7.1234">
        <ele>1008.079834</ele>
        <time>2012-03-27T11:53:20Z</time>
      </trkpt>
      <trkpt lat="47.85063" lon="7.12321">
        <ele>1005.6765137</ele>
        <time>2012-03-27T11:53:38Z</time>
      </trkpt>
      <trkpt lat="47.85054" lon="7.12293">
        <ele>1002.3115234</ele>
        <time>2012-03-27T11:53:54Z</time>
      </trkpt>
      <trkpt lat="47.8504" lon="7.12257">
        <ele>999.4277344</ele>
        <time>2012-03-27T11:54:15Z</time>
      </trkpt>
      <trkpt lat="47.8503" lon="7.12247">
        <ele>997.0244141</ele>
        <time>2012-03-27T11:54:27Z</time>
      </trkpt>
      <trkpt lat="47.85018" lon="7.12227">
        <ele>994.6210938</ele>
        <time>2012-03-27T11:54:39Z</time>
      </trkpt>
      <trkpt lat="47.85016" lon="7.12195">
        <ele>991.7373047</ele>
        <time>2012-03-27T11:54:54Z</time>
      </trkpt>
      <trkpt lat="47.85012" lon="7.12167">
        <ele>989.3339844</ele>
        <time>2012-03-27T11:55:08Z</time>
      </trkpt>
      <trkpt lat="47.84998" lon="7.12156">
        <ele>987.4111328</ele>
        <time>2012-03-27T11:55:22Z</time>
      </trkpt>
      <trkpt lat="47.84986" lon="7.12149">
        <ele>985.4885254</ele>
        <time>2012-03-27T11:55:44Z</time>
      </trkpt>
      <trkpt lat="47.84975" lon="7.12138">
        <ele>982.6047363</ele>
        <time>2012-03-27T11:56:00Z</time>
      </trkpt>
      <trkpt lat="47.84969" lon="7.12123">
        <ele>979.2399902</ele>
        <time>2012-03-27T11:56:15Z</time>
      </trkpt>
      <trkpt lat="47.84966" lon="7.12139">
        <ele>976.3562012</ele>
        <time>2012-03-27T11:56:38Z</time>
      </trkpt>
      <trkpt lat="47.84956" lon="7.12151">
        <ele>973.9528809</ele>
        <time>2012-03-27T11:56:59Z</time>
      </trkpt>
      <trkpt lat="47.8495" lon="7.12136">
        <ele>970.5881348</ele>
        <time>2012-03-27T11:57:10Z</time>
      </trkpt>
      <trkpt lat="47.84938" lon="7.12106">
        <ele>968.1848145</ele>
        <time>2012-03-27T11:57:28Z</time>
      </trkpt>
      <trkpt lat="47.84942" lon="7.12089">
        <ele>965.7817383</ele>
        <time>2012-03-27T11:57:50Z</time>
      </trkpt>
      <trkpt lat="47.84946" lon="7.12067">
        <ele>962.8977051</ele>
        <time>2012-03-27T11:58:10Z</time>
      </trkpt>
      <trkpt lat="47.84951" lon="7.12031">
        <ele>960.4943848</ele>
        <time>2012-03-27T11:58:31Z</time>
      </trkpt>
      <trkpt lat="47.84938" lon="7.12002">
        <ele>958.0913086</ele>
        <time>2012-03-27T11:58:53Z</time>
      </trkpt>
      <trkpt lat="47.84929" lon="7.11989">
        <ele>956.168457</ele>
        <time>2012-03-27T11:59:02Z</time>
      </trkpt>
      <trkpt lat="47.84925" lon="7.11965">
        <ele>952.8037109</ele>
        <time>2012-03-27T11:59:23Z</time>
      </trkpt>
      <trkpt lat="47.8492" lon="7.11936">
        <ele>950.4006348</ele>
        <time>2012-03-27T11:59:34Z</time>
      </trkpt>
      <trkpt lat="47.84922" lon="7.11903">
        <ele>947.0358887</ele>
        <time>2012-03-27T11:59:56Z</time>
      </trkpt>
      <trkpt lat="47.84916" lon="7.11871">
        <ele>943.6713867</ele>
        <time>2012-03-27T12:00:25Z</time>
      </trkpt>
      <trkpt lat="47.84901" lon="7.1185">
        <ele>940.7873535</ele>
        <time>2012-03-27T12:00:43Z</time>
      </trkpt>
      <trkpt lat="47.84895" lon="7.11836">
        <ele>938.8647461</ele>
        <time>2012-03-27T12:00:54Z</time>
      </trkpt>
      <trkpt lat="47.84883" lon="7.11803">
        <ele>936.4614258</ele>
        <time>2012-03-27T12:01:08Z</time>
      </trkpt>
      <trkpt lat="47.84869" lon="7.11787">
        <ele>934.0581055</ele>
        <time>2012-03-27T12:01:22Z</time>
      </trkpt>
      <trkpt lat="47.84866" lon="7.11761">
        <ele>932.6162109</ele>
        <time>2012-03-27T12:01:37Z</time>
      </trkpt>
      <trkpt lat="47.84862" lon="7.11773">
        <ele>933.0966797</ele>
        <time>2012-03-27T12:01:43Z</time>
      </trkpt>
      <trkpt lat="47.84874" lon="7.11759">
        <ele>933.5773926</ele>
        <time>2012-03-27T12:02:05Z</time>
      </trkpt>
      <trkpt lat="47.84874" lon="7.11752">
        <ele>933.0966797</ele>
        <time>2012-03-27T12:02:33Z</time>
      </trkpt>
      <trkpt lat="47.84868" lon="7.11778">
        <ele>933.5773926</ele>
        <time>2012-03-27T12:03:04Z</time>
      </trkpt>
      <trkpt lat="47.84853" lon="7.11788">
        <ele>933.0966797</ele>
        <time>2012-03-27T12:03:25Z</time>
      </trkpt>
      <trkpt lat="47.84842" lon="7.1179">
        <ele>929.2514648</ele>
        <time>2012-03-27T12:03:52Z</time>
      </trkpt>
      <trkpt lat="47.84833" lon="7.11787">
        <ele>928.2902832</ele>
        <time>2012-03-27T12:03:54Z</time>
      </trkpt>
      <trkpt lat="47.84812" lon="7.11768">
        <ele>926.8483887</ele>
        <time>2012-03-27T12:04:09Z</time>
      </trkpt>
      <trkpt lat="47.84776" lon="7.11761">
        <ele>923.9641113</ele>
        <time>2012-03-27T12:04:21Z</time>
      </trkpt>
      <trkpt lat="47.84745" lon="7.1174">
        <ele>921.560791</ele>
        <time>2012-03-27T12:04:36Z</time>
      </trkpt>
      <trkpt lat="47.84728" lon="7.11718">
        <ele>921.0803223</ele>
        <time>2012-03-27T12:05:04Z</time>
      </trkpt>
      <trkpt lat="47.84703" lon="7.11695">
        <ele>920.1188965</ele>
        <time>2012-03-27T12:05:30Z</time>
      </trkpt>
      <trkpt lat="47.847" lon="7.11693">
        <ele>920.1188965</ele>
        <time>2012-03-27T12:05:46Z</time>
      </trkpt>
      <trkpt lat="47.84681" lon="7.11689">
        <ele>918.1962891</ele>
        <time>2012-03-27T12:06:03Z</time>
      </trkpt>
      <trkpt lat="47.84672" lon="7.11697">
        <ele>916.7543945</ele>
        <time>2012-03-27T12:06:19Z</time>
      </trkpt>
      <trkpt lat="47.84656" lon="7.11694">
        <ele>913.8703613</ele>
        <time>2012-03-27T12:06:41Z</time>
      </trkpt>
      <trkpt lat="47.84623" lon="7.11691">
        <ele>910.5058594</ele>
        <time>2012-03-27T12:07:04Z</time>
      </trkpt>
      <trkpt lat="47.84593" lon="7.11686">
        <ele>908.1027832</ele>
        <time>2012-03-27T12:07:25Z</time>
      </trkpt>
      <trkpt lat="47.84573" lon="7.117">
        <ele>908.1027832</ele>
        <time>2012-03-27T12:07:52Z</time>
      </trkpt>
      <trkpt lat="47.84554" lon="7.11704">
        <ele>907.1411133</ele>
        <time>2012-03-27T12:08:08Z</time>
      </trkpt>
      <trkpt lat="47.84539" lon="7.11694">
        <ele>907.1411133</ele>
        <time>2012-03-27T12:08:32Z</time>
      </trkpt>
      <trkpt lat="47.84516" lon="7.11692">
        <ele>906.6604004</ele>
        <time>2012-03-27T12:08:56Z</time>
      </trkpt>
      <trkpt lat="47.84488" lon="7.11684">
        <ele>906.1796875</ele>
        <time>2012-03-27T12:09:20Z</time>
      </trkpt>
      <trkpt lat="47.84464" lon="7.11687">
        <ele>905.2185059</ele>
        <time>2012-03-27T12:09:47Z</time>
      </trkpt>
      <trkpt lat="47.84434" lon="7.11689">
        <ele>903.2958984</ele>
        <time>2012-03-27T12:10:08Z</time>
      </trkpt>
      <trkpt lat="47.8441" lon="7.11685">
        <ele>903.2958984</ele>
        <time>2012-03-27T12:10:30Z</time>
      </trkpt>
      <trkpt lat="47.84389" lon="7.11694">
        <ele>902.8151855</ele>
        <time>2012-03-27T12:10:59Z</time>
      </trkpt>
      <trkpt lat="47.84365" lon="7.1168">
        <ele>901.8540039</ele>
        <time>2012-03-27T12:11:22Z</time>
      </trkpt>
      <trkpt lat="47.84343" lon="7.11644">
        <ele>901.373291</ele>
        <time>2012-03-27T12:11:44Z</time>
      </trkpt>
      <trkpt lat="47.84315" lon="7.1162">
        <ele>898.0087891</ele>
        <time>2012-03-27T12:12:03Z</time>
      </trkpt>
      <trkpt lat="47.84294" lon="7.11602">
        <ele>897.0473633</ele>
        <time>2012-03-27T12:12:30Z</time>
      </trkpt>
      <trkpt lat="47.84272" lon="7.11585">
        <ele>893.6828613</ele>
        <time>2012-03-27T12:12:55Z</time>
      </trkpt>
      <trkpt lat="47.84243" lon="7.1156">
        <ele>891.2792969</ele>
        <time>2012-03-27T12:13:21Z</time>
      </trkpt>
      <trkpt lat="47.84222" lon="7.11539">
        <ele>889.8374023</ele>
        <time>2012-03-27T12:13:45Z</time>
      </trkpt>
      <trkpt lat="47.84211" lon="7.11518">
        <ele>887.9147949</ele>
        <time>2012-03-27T12:14:10Z</time>
      </trkpt>
      <trkpt lat="47.84197" lon="7.11497">
        <ele>887.434082</ele>
        <time>2012-03-27T12:14:31Z</time>
      </trkpt>
      <trkpt lat="47.84169" lon="7.11474">
        <ele>885.9921875</ele>
        <time>2012-03-27T12:14:39Z</time>
      </trkpt>
      <trkpt lat="47.84146" lon="7.11455">
        <ele>884.0695801</ele>
        <time>2012-03-27T12:14:58Z</time>
      </trkpt>
      <trkpt lat="47.84121" lon="7.11446">
        <ele>882.6276855</ele>
        <time>2012-03-27T12:15:17Z</time>
      </trkpt>
      <trkpt lat="47.84096" lon="7.11455">
        <ele>881.185791</ele>
        <time>2012-03-27T12:15:40Z</time>
      </trkpt>
      <trkpt lat="47.84077" lon="7.11459">
        <ele>880.2243652</ele>
        <time>2012-03-27T12:16:01Z</time>
      </trkpt>
      <trkpt lat="47.84052" lon="7.11481">
        <ele>877.8210449</ele>
        <time>2012-03-27T12:16:17Z</time>
      </trkpt>
      <trkpt lat="47.84046" lon="7.11487">
        <ele>876.3791504</ele>
        <time>2012-03-27T12:16:39Z</time>
      </trkpt>
      <trkpt lat="47.84029" lon="7.11499">
        <ele>876.8598633</ele>
        <time>2012-03-27T12:17:00Z</time>
      </trkpt>
      <trkpt lat="47.84013" lon="7.11524">
        <ele>876.3791504</ele>
        <time>2012-03-27T12:17:20Z</time>
      </trkpt>
      <trkpt lat="47.83999" lon="7.11556">
        <ele>875.4174805</ele>
        <time>2012-03-27T12:17:41Z</time>
      </trkpt>
      <trkpt lat="47.83985" lon="7.11582">
        <ele>874.9370117</ele>
        <time>2012-03-27T12:17:56Z</time>
      </trkpt>
      <trkpt lat="47.83973" lon="7.11605">
        <ele>873.9755859</ele>
        <time>2012-03-27T12:18:08Z</time>
      </trkpt>
      <trkpt lat="47.8396" lon="7.1163">
        <ele>871.5722656</ele>
        <time>2012-03-27T12:18:23Z</time>
      </trkpt>
      <trkpt lat="47.83944" lon="7.11657">
        <ele>869.1691895</ele>
        <time>2012-03-27T12:18:43Z</time>
      </trkpt>
      <trkpt lat="47.83931" lon="7.11684">
        <ele>867.246582</ele>
        <time>2012-03-27T12:19:02Z</time>
      </trkpt>
      <trkpt lat="47.83918" lon="7.1171">
        <ele>863.4013672</ele>
        <time>2012-03-27T12:19:23Z</time>
      </trkpt>
      <trkpt lat="47.8391" lon="7.11735">
        <ele>860.9980469</ele>
        <time>2012-03-27T12:19:39Z</time>
      </trkpt>
      <trkpt lat="47.83902" lon="7.11749">
        <ele>858.1140137</ele>
        <time>2012-03-27T12:19:58Z</time>
      </trkpt>
      <trkpt lat="47.83898" lon="7.11767">
        <ele>855.7106934</ele>
        <time>2012-03-27T12:20:17Z</time>
      </trkpt>
      <trkpt lat="47.839" lon="7.11798">
        <ele>852.8266602</ele>
        <time>2012-03-27T12:20:34Z</time>
      </trkpt>
      <trkpt lat="47.83904" lon="7.11823">
        <ele>849.4621582</ele>
        <time>2012-03-27T12:20:54Z</time>
      </trkpt>
      <trkpt lat="47.83903" lon="7.1185">
        <ele>846.0976563</ele>
        <time>2012-03-27T12:21:17Z</time>
      </trkpt>
      <trkpt lat="47.839" lon="7.11872">
        <ele>843.2133789</ele>
        <time>2012-03-27T12:21:39Z</time>
      </trkpt>
      <trkpt lat="47.83894" lon="7.11896">
        <ele>840.3295898</ele>
        <time>2012-03-27T12:21:59Z</time>
      </trkpt>
      <trkpt lat="47.83885" lon="7.11924">
        <ele>836.9648438</ele>
        <time>2012-03-27T12:22:19Z</time>
      </trkpt>
      <trkpt lat="47.83872" lon="7.11945">
        <ele>833.6003418</ele>
        <time>2012-03-27T12:22:37Z</time>
      </trkpt>
      <trkpt lat="47.83859" lon="7.1195">
        <ele>830.7165527</ele>
        <time>2012-03-27T12:22:54Z</time>
      </trkpt>
      <trkpt lat="47.83823" lon="7.11954">
        <ele>828.7939453</ele>
        <time>2012-03-27T12:23:15Z</time>
      </trkpt>
      <trkpt lat="47.83795" lon="7.11959">
        <ele>827.3518066</ele>
        <time>2012-03-27T12:23:46Z</time>
      </trkpt>
      <trkpt lat="47.83774" lon="7.11957">
        <ele>826.3903809</ele>
        <time>2012-03-27T12:24:09Z</time>
      </trkpt>
      <trkpt lat="47.83759" lon="7.11937">
        <ele>823.9870605</ele>
        <time>2012-03-27T12:24:29Z</time>
      </trkpt>
      <trkpt lat="47.83752" lon="7.11909">
        <ele>823.9870605</ele>
        <time>2012-03-27T12:24:33Z</time>
      </trkpt>
      <trkpt lat="47.83747" lon="7.11885">
        <ele>823.5065918</ele>
        <time>2012-03-27T12:24:34Z</time>
      </trkpt>
      <trkpt lat="47.83738" lon="7.11865">
        <ele>822.0644531</ele>
        <time>2012-03-27T12:24:37Z</time>
      </trkpt>
      <trkpt lat="47.83742" lon="7.11862">
        <ele>822.545166</ele>
        <time>2012-03-27T12:24:38Z</time>
      </trkpt>
      <trkpt lat="47.83744" lon="7.1186">
        <ele>822.0644531</ele>
        <time>2012-03-27T12:24:47Z</time>
      </trkpt>
      <trkpt lat="47.83742" lon="7.11852">
        <ele>821.5837402</ele>
        <time>2012-03-27T12:25:06Z</time>
      </trkpt>
      <trkpt lat="47.83739" lon="7.11847">
        <ele>818.2192383</ele>
        <time>2012-03-27T12:25:26Z</time>
      </trkpt>
      <trkpt lat="47.83738" lon="7.11846">
        <ele>818.6999512</ele>
        <time>2012-03-27T12:25:43Z</time>
      </trkpt>
      <trkpt lat="47.83738" lon="7.11843">
        <ele>820.1418457</ele>
        <time>2012-03-27T12:25:58Z</time>
      </trkpt>
      <trkpt lat="47.83737" lon="7.11843">
        <ele>820.6225586</ele>
        <time>2012-03-27T12:26:10Z</time>
      </trkpt>
      <trkpt lat="47.83737" lon="7.1183">
        <ele>820.1418457</ele>
        <time>2012-03-27T12:26:31Z</time>
      </trkpt>
      <trkpt lat="47.83724" lon="7.11796">
        <ele>817.7385254</ele>
        <time>2012-03-27T12:26:52Z</time>
      </trkpt>
      <trkpt lat="47.83724" lon="7.11763">
        <ele>815.8161621</ele>
        <time>2012-03-27T12:27:05Z</time>
      </trkpt>
      <trkpt lat="47.83725" lon="7.11734">
        <ele>814.3740234</ele>
        <time>2012-03-27T12:27:19Z</time>
      </trkpt>
      <trkpt lat="47.83716" lon="7.11713">
        <ele>812.9321289</ele>
        <time>2012-03-27T12:27:33Z</time>
      </trkpt>
      <trkpt lat="47.83713" lon="7.11694">
        <ele>811.0092773</ele>
        <time>2012-03-27T12:27:46Z</time>
      </trkpt>
      <trkpt lat="47.83697" lon="7.11668">
        <ele>808.1254883</ele>
        <time>2012-03-27T12:28:19Z</time>
      </trkpt>
      <trkpt lat="47.83673" lon="7.11657">
        <ele>806.6833496</ele>
        <time>2012-03-27T12:28:29Z</time>
      </trkpt>
      <trkpt lat="47.83661" lon="7.11666">
        <ele>805.2414551</ele>
        <time>2012-03-27T12:28:32Z</time>
      </trkpt>
      <trkpt lat="47.83648" lon="7.11675">
        <ele>804.2802734</ele>
        <time>2012-03-27T12:28:46Z</time>
      </trkpt>
      <trkpt lat="47.83632" lon="7.11684">
        <ele>802.8381348</ele>
        <time>2012-03-27T12:28:59Z</time>
      </trkpt>
      <trkpt lat="47.83619" lon="7.11691">
        <ele>801.8769531</ele>
        <time>2012-03-27T12:29:11Z</time>
      </trkpt>
      <trkpt lat="47.83604" lon="7.1169">
        <ele>800.4350586</ele>
        <time>2012-03-27T12:29:26Z</time>
      </trkpt>
      <trkpt lat="47.83597" lon="7.11693">
        <ele>799.4736328</ele>
        <time>2012-03-27T12:29:35Z</time>
      </trkpt>
      <trkpt lat="47.83594" lon="7.11696">
        <ele>799.4736328</ele>
        <time>2012-03-27T12:29:50Z</time>
      </trkpt>
      <trkpt lat="47.8358" lon="7.11702">
        <ele>797.0703125</ele>
        <time>2012-03-27T12:30:08Z</time>
      </trkpt>
      <trkpt lat="47.83565" lon="7.11711">
        <ele>796.5898438</ele>
        <time>2012-03-27T12:30:33Z</time>
      </trkpt>
      <trkpt lat="47.83555" lon="7.11718">
        <ele>794.666748</ele>
        <time>2012-03-27T12:30:52Z</time>
      </trkpt>
      <trkpt lat="47.8354" lon="7.11732">
        <ele>792.7443848</ele>
        <time>2012-03-27T12:31:11Z</time>
      </trkpt>
      <trkpt lat="47.83533" lon="7.11741">
        <ele>791.782959</ele>
        <time>2012-03-27T12:32:47Z</time>
      </trkpt>
      <trkpt lat="47.83524" lon="7.1176">
        <ele>790.8215332</ele>
        <time>2012-03-27T12:33:03Z</time>
      </trkpt>
      <trkpt lat="47.83515" lon="7.11777">
        <ele>789.8603516</ele>
        <time>2012-03-27T12:33:16Z</time>
      </trkpt>
      <trkpt lat="47.83524" lon="7.11772">
        <ele>789.3796387</ele>
        <time>2012-03-27T12:33:31Z</time>
      </trkpt>
      <trkpt lat="47.83516" lon="7.1178">
        <ele>789.3796387</ele>
        <time>2012-03-27T12:33:46Z</time>
      </trkpt>
      <trkpt lat="47.8352" lon="7.11778">
        <ele>790.3410645</ele>
        <time>2012-03-27T12:33:55Z</time>
      </trkpt>
      <trkpt lat="47.83509" lon="7.1178">
        <ele>787.4570313</ele>
        <time>2012-03-27T12:34:13Z</time>
      </trkpt>
      <trkpt lat="47.83494" lon="7.11802">
        <ele>785.5344238</ele>
        <time>2012-03-27T12:34:24Z</time>
      </trkpt>
      <trkpt lat="47.83484" lon="7.1181">
        <ele>785.0539551</ele>
        <time>2012-03-27T12:34:37Z</time>
      </trkpt>
      <trkpt lat="47.83472" lon="7.11818">
        <ele>783.6118164</ele>
        <time>2012-03-27T12:34:51Z</time>
      </trkpt>
      <trkpt lat="47.83461" lon="7.11825">
        <ele>780.7280273</ele>
        <time>2012-03-27T12:35:05Z</time>
      </trkpt>
      <trkpt lat="47.83453" lon="7.1184">
        <ele>779.2856445</ele>
        <time>2012-03-27T12:35:13Z</time>
      </trkpt>
      <trkpt lat="47.83441" lon="7.11857">
        <ele>777.3632813</ele>
        <time>2012-03-27T12:35:26Z</time>
      </trkpt>
      <trkpt lat="47.83433" lon="7.11865">
        <ele>774.479248</ele>
        <time>2012-03-27T12:35:29Z</time>
      </trkpt>
      <trkpt lat="47.83427" lon="7.11878">
        <ele>771.5952148</ele>
        <time>2012-03-27T12:35:43Z</time>
      </trkpt>
      <trkpt lat="47.83417" lon="7.11897">
        <ele>770.1533203</ele>
        <time>2012-03-27T12:35:52Z</time>
      </trkpt>
      <trkpt lat="47.83407" lon="7.11916">
        <ele>766.7888184</ele>
        <time>2012-03-27T12:36:06Z</time>
      </trkpt>
      <trkpt lat="47.83405" lon="7.11924">
        <ele>765.3469238</ele>
        <time>2012-03-27T12:36:20Z</time>
      </trkpt>
      <trkpt lat="47.83395" lon="7.11945">
        <ele>763.4240723</ele>
        <time>2012-03-27T12:36:33Z</time>
      </trkpt>
      <trkpt lat="47.83392" lon="7.11948">
        <ele>762.9433594</ele>
        <time>2012-03-27T12:37:30Z</time>
      </trkpt>
      <trkpt lat="47.83385" lon="7.11966">
        <ele>762.4626465</ele>
        <time>2012-03-27T12:37:43Z</time>
      </trkpt>
      <trkpt lat="47.8338" lon="7.11975">
        <ele>761.5014648</ele>
        <time>2012-03-27T12:38:04Z</time>
      </trkpt>
      <trkpt lat="47.83367" lon="7.11986">
        <ele>758.1369629</ele>
        <time>2012-03-27T12:38:22Z</time>
      </trkpt>
      <trkpt lat="47.83359" lon="7.11997">
        <ele>755.2529297</ele>
        <time>2012-03-27T12:38:24Z</time>
      </trkpt>
      <trkpt lat="47.83355" lon="7.12">
        <ele>754.291748</ele>
        <time>2012-03-27T12:38:45Z</time>
      </trkpt>
      <trkpt lat="47.83348" lon="7.12006">
        <ele>750.927002</ele>
        <time>2012-03-27T12:38:50Z</time>
      </trkpt>
      <trkpt lat="47.83338" lon="7.12016">
        <ele>747.5622559</ele>
        <time>2012-03-27T12:39:04Z</time>
      </trkpt>
      <trkpt lat="47.83333" lon="7.12019">
        <ele>746.6010742</ele>
        <time>2012-03-27T12:39:17Z</time>
      </trkpt>
      <trkpt lat="47.83327" lon="7.12016">
        <ele>743.2363281</ele>
        <time>2012-03-27T12:39:32Z</time>
      </trkpt>
      <trkpt lat="47.83325" lon="7.12016">
        <ele>742.7558594</ele>
        <time>2012-03-27T12:39:37Z</time>
      </trkpt>
      <trkpt lat="47.83306" lon="7.11996">
        <ele>739.3911133</ele>
        <time>2012-03-27T12:39:41Z</time>
      </trkpt>
      <trkpt lat="47.83304" lon="7.11993">
        <ele>738.9106445</ele>
        <time>2012-03-27T12:39:55Z</time>
      </trkpt>
      <trkpt lat="47.83292" lon="7.11971">
        <ele>739.3911133</ele>
        <time>2012-03-27T12:40:13Z</time>
      </trkpt>
      <trkpt lat="47.83278" lon="7.11962">
        <ele>738.9106445</ele>
        <time>2012-03-27T12:40:28Z</time>
      </trkpt>
      <trkpt lat="47.83263" lon="7.11945">
        <ele>738.4299316</ele>
        <time>2012-03-27T12:40:45Z</time>
      </trkpt>
      <trkpt lat="47.83257" lon="7.11939">
        <ele>738.4299316</ele>
        <time>2012-03-27T12:40:53Z</time>
      </trkpt>
      <trkpt lat="47.83251" lon="7.11934">
        <ele>737.4685059</ele>
        <time>2012-03-27T12:41:05Z</time>
      </trkpt>
      <trkpt lat="47.83236" lon="7.11933">
        <ele>736.0266113</ele>
        <time>2012-03-27T12:41:17Z</time>
      </trkpt>
      <trkpt lat="47.83215" lon="7.11932">
        <ele>734.5847168</ele>
        <time>2012-03-27T12:41:27Z</time>
      </trkpt>
      <trkpt lat="47.83196" lon="7.11934">
        <ele>733.1425781</ele>
        <time>2012-03-27T12:41:33Z</time>
      </trkpt>
      <trkpt lat="47.83179" lon="7.11938">
        <ele>730.2585449</ele>
        <time>2012-03-27T12:41:39Z</time>
      </trkpt>
      <trkpt lat="47.83171" lon="7.1194">
        <ele>729.2971191</ele>
        <time>2012-03-27T12:41:50Z</time>
      </trkpt>
      <trkpt lat="47.83161" lon="7.11939">
        <ele>726.894043</ele>
        <time>2012-03-27T12:42:05Z</time>
      </trkpt>
      <trkpt lat="47.83147" lon="7.11934">
        <ele>726.4133301</ele>
        <time>2012-03-27T12:42:22Z</time>
      </trkpt>
      <trkpt lat="47.83138" lon="7.11931">
        <ele>724.9714355</ele>
        <time>2012-03-27T12:42:34Z</time>
      </trkpt>
      <trkpt lat="47.83131" lon="7.11932">
        <ele>724.4907227</ele>
        <time>2012-03-27T12:42:51Z</time>
      </trkpt>
      <trkpt lat="47.83124" lon="7.11932">
        <ele>723.0488281</ele>
        <time>2012-03-27T12:43:00Z</time>
      </trkpt>
      <trkpt lat="47.83113" lon="7.1193">
        <ele>722.5681152</ele>
        <time>2012-03-27T12:43:03Z</time>
      </trkpt>
      <trkpt lat="47.83097" lon="7.11926">
        <ele>720.1647949</ele>
        <time>2012-03-27T12:43:08Z</time>
      </trkpt>
      <trkpt lat="47.83076" lon="7.11916">
        <ele>718.7229004</ele>
        <time>2012-03-27T12:43:30Z</time>
      </trkpt>
      <trkpt lat="47.83065" lon="7.11902">
        <ele>716.800293</ele>
        <time>2012-03-27T12:43:48Z</time>
      </trkpt>
      <trkpt lat="47.83053" lon="7.11879">
        <ele>714.8774414</ele>
        <time>2012-03-27T12:43:52Z</time>
      </trkpt>
      <trkpt lat="47.83047" lon="7.11867">
        <ele>713.9160156</ele>
        <time>2012-03-27T12:44:08Z</time>
      </trkpt>
      <trkpt lat="47.83044" lon="7.11862">
        <ele>713.9160156</ele>
        <time>2012-03-27T12:44:14Z</time>
      </trkpt>
      <trkpt lat="47.8304" lon="7.11857">
        <ele>713.4355469</ele>
        <time>2012-03-27T12:44:19Z</time>
      </trkpt>
      <trkpt lat="47.83024" lon="7.1183">
        <ele>711.0322266</ele>
        <time>2012-03-27T12:44:32Z</time>
      </trkpt>
      <trkpt lat="47.83012" lon="7.11811">
        <ele>708.6289063</ele>
        <time>2012-03-27T12:44:38Z</time>
      </trkpt>
      <trkpt lat="47.8301" lon="7.11806">
        <ele>708.1484375</ele>
        <time>2012-03-27T12:44:53Z</time>
      </trkpt>
      <trkpt lat="47.83001" lon="7.11785">
        <ele>704.3032227</ele>
        <time>2012-03-27T12:44:54Z</time>
      </trkpt>
      <trkpt lat="47.82996" lon="7.11778">
        <ele>706.7062988</ele>
        <time>2012-03-27T12:45:05Z</time>
      </trkpt>
      <trkpt lat="47.82991" lon="7.11772">
        <ele>703.8225098</ele>
        <time>2012-03-27T12:45:09Z</time>
      </trkpt>
      <trkpt lat="47.82978" lon="7.11762">
        <ele>702.861084</ele>
        <time>2012-03-27T12:45:28Z</time>
      </trkpt>
      <trkpt lat="47.82974" lon="7.11757">
        <ele>701.8999023</ele>
        <time>2012-03-27T12:45:31Z</time>
      </trkpt>
      <trkpt lat="47.82961" lon="7.11748">
        <ele>698.0544434</ele>
        <time>2012-03-27T12:45:36Z</time>
      </trkpt>
      <trkpt lat="47.8296" lon="7.11748">
        <ele>699.9770508</ele>
        <time>2012-03-27T12:45:48Z</time>
      </trkpt>
      <trkpt lat="47.82949" lon="7.11752">
        <ele>698.5349121</ele>
        <time>2012-03-27T12:46:04Z</time>
      </trkpt>
      <trkpt lat="47.82946" lon="7.11754">
        <ele>698.0544434</ele>
        <time>2012-03-27T12:46:18Z</time>
      </trkpt>
      <trkpt lat="47.82928" lon="7.1177">
        <ele>698.0544434</ele>
        <time>2012-03-27T12:46:25Z</time>
      </trkpt>
      <trkpt lat="47.82925" lon="7.11771">
        <ele>696.6125488</ele>
        <time>2012-03-27T12:46:37Z</time>
      </trkpt>
      <trkpt lat="47.8292" lon="7.11774">
        <ele>696.1318359</ele>
        <time>2012-03-27T12:46:46Z</time>
      </trkpt>
      <trkpt lat="47.82907" lon="7.1178">
        <ele>694.6896973</ele>
        <time>2012-03-27T12:47:02Z</time>
      </trkpt>
      <trkpt lat="47.82887" lon="7.11784">
        <ele>692.767334</ele>
        <time>2012-03-27T12:47:11Z</time>
      </trkpt>
      <trkpt lat="47.82874" lon="7.11788">
        <ele>690.8444824</ele>
        <time>2012-03-27T12:47:13Z</time>
      </trkpt>
      <trkpt lat="47.82866" lon="7.11788">
        <ele>689.8833008</ele>
        <time>2012-03-27T12:47:27Z</time>
      </trkpt>
      <trkpt lat="47.82858" lon="7.11795">
        <ele>687.9606934</ele>
        <time>2012-03-27T12:47:40Z</time>
      </trkpt>
      <trkpt lat="47.82849" lon="7.11797">
        <ele>686.0380859</ele>
        <time>2012-03-27T12:47:48Z</time>
      </trkpt>
      <trkpt lat="47.82835" lon="7.1179">
        <ele>684.1154785</ele>
        <time>2012-03-27T12:48:00Z</time>
      </trkpt>
      <trkpt lat="47.82829" lon="7.11781">
        <ele>682.192627</ele>
        <time>2012-03-27T12:48:02Z</time>
      </trkpt>
      <trkpt lat="47.82827" lon="7.11778">
        <ele>684.1154785</ele>
        <time>2012-03-27T12:48:20Z</time>
      </trkpt>
      <trkpt lat="47.82818" lon="7.11765">
        <ele>682.6733398</ele>
        <time>2012-03-27T12:48:36Z</time>
      </trkpt>
      <trkpt lat="47.82812" lon="7.11751">
        <ele>680.7507324</ele>
        <time>2012-03-27T12:48:55Z</time>
      </trkpt>
      <trkpt lat="47.82806" lon="7.11741">
        <ele>679.3085938</ele>
        <time>2012-03-27T12:49:07Z</time>
      </trkpt>
      <trkpt lat="47.82797" lon="7.11732">
        <ele>676.4248047</ele>
        <time>2012-03-27T12:49:23Z</time>
      </trkpt>
      <trkpt lat="47.82796" lon="7.11728">
        <ele>675.9440918</ele>
        <time>2012-03-27T12:49:33Z</time>
      </trkpt>
      <trkpt lat="47.82785" lon="7.11698">
        <ele>674.0214844</ele>
        <time>2012-03-27T12:49:49Z</time>
      </trkpt>
      <trkpt lat="47.82773" lon="7.11678">
        <ele>671.6181641</ele>
        <time>2012-03-27T12:50:05Z</time>
      </trkpt>
      <trkpt lat="47.82752" lon="7.11663">
        <ele>668.734375</ele>
        <time>2012-03-27T12:50:16Z</time>
      </trkpt>
      <trkpt lat="47.82739" lon="7.1166">
        <ele>667.7727051</ele>
        <time>2012-03-27T12:50:32Z</time>
      </trkpt>
      <trkpt lat="47.82721" lon="7.11658">
        <ele>663.9274902</ele>
        <time>2012-03-27T12:50:37Z</time>
      </trkpt>
      <trkpt lat="47.82713" lon="7.11663">
        <ele>662.9663086</ele>
        <time>2012-03-27T12:50:52Z</time>
      </trkpt>
      <trkpt lat="47.82702" lon="7.11685">
        <ele>660.5629883</ele>
        <time>2012-03-27T12:51:04Z</time>
      </trkpt>
      <trkpt lat="47.82689" lon="7.11702">
        <ele>657.1984863</ele>
        <time>2012-03-27T12:51:18Z</time>
      </trkpt>
      <trkpt lat="47.82682" lon="7.11713">
        <ele>656.2370605</ele>
        <time>2012-03-27T12:51:33Z</time>
      </trkpt>
      <trkpt lat="47.82673" lon="7.11722">
        <ele>652.8725586</ele>
        <time>2012-03-27T12:51:46Z</time>
      </trkpt>
      <trkpt lat="47.82668" lon="7.11726">
        <ele>651.9111328</ele>
        <time>2012-03-27T12:51:52Z</time>
      </trkpt>
      <trkpt lat="47.82659" lon="7.11742">
        <ele>651.4304199</ele>
        <time>2012-03-27T12:52:06Z</time>
      </trkpt>
      <trkpt lat="47.8265" lon="7.11755">
        <ele>649.5078125</ele>
        <time>2012-03-27T12:52:13Z</time>
      </trkpt>
      <trkpt lat="47.82636" lon="7.11773">
        <ele>646.6240234</ele>
        <time>2012-03-27T12:52:24Z</time>
      </trkpt>
      <trkpt lat="47.82625" lon="7.11783">
        <ele>643.7399902</ele>
        <time>2012-03-27T12:52:30Z</time>
      </trkpt>
      <trkpt lat="47.82613" lon="7.11796">
        <ele>641.8173828</ele>
        <time>2012-03-27T12:52:42Z</time>
      </trkpt>
      <trkpt lat="47.82606" lon="7.11798">
        <ele>640.855957</ele>
        <time>2012-03-27T12:52:46Z</time>
      </trkpt>
      <trkpt lat="47.82594" lon="7.11808">
        <ele>639.8947754</ele>
        <time>2012-03-27T12:52:51Z</time>
      </trkpt>
      <trkpt lat="47.82589" lon="7.11816">
        <ele>639.8947754</ele>
        <time>2012-03-27T12:52:58Z</time>
      </trkpt>
      <trkpt lat="47.82583" lon="7.11832">
        <ele>639.4140625</ele>
        <time>2012-03-27T12:53:01Z</time>
      </trkpt>
      <trkpt lat="47.82582" lon="7.1184">
        <ele>639.4140625</ele>
        <time>2012-03-27T12:53:12Z</time>
      </trkpt>
      <trkpt lat="47.8258" lon="7.1186">
        <ele>637.972168</ele>
        <time>2012-03-27T12:53:24Z</time>
      </trkpt>
      <trkpt lat="47.82581" lon="7.11867">
        <ele>637.972168</ele>
        <time>2012-03-27T12:53:42Z</time>
      </trkpt>
      <trkpt lat="47.82584" lon="7.11874">
        <ele>637.4914551</ele>
        <time>2012-03-27T12:53:57Z</time>
      </trkpt>
      <trkpt lat="47.82589" lon="7.11882">
        <ele>636.5302734</ele>
        <time>2012-03-27T12:54:17Z</time>
      </trkpt>
      <trkpt lat="47.82591" lon="7.11887">
        <ele>637.4914551</ele>
        <time>2012-03-27T12:54:22Z</time>
      </trkpt>
      <trkpt lat="47.82599" lon="7.119">
        <ele>636.5302734</ele>
        <time>2012-03-27T12:54:29Z</time>
      </trkpt>
      <trkpt lat="47.82605" lon="7.11913">
        <ele>636.5302734</ele>
        <time>2012-03-27T12:54:32Z</time>
      </trkpt>
      <trkpt lat="47.82604" lon="7.11947">
        <ele>636.5302734</ele>
        <time>2012-03-27T12:54:40Z</time>
      </trkpt>
      <trkpt lat="47.82593" lon="7.11972">
        <ele>636.0495605</ele>
        <time>2012-03-27T12:54:44Z</time>
      </trkpt>
      <trkpt lat="47.82584" lon="7.11996">
        <ele>635.5686035</ele>
        <time>2012-03-27T12:54:50Z</time>
      </trkpt>
      <trkpt lat="47.82578" lon="7.12007">
        <ele>635.5686035</ele>
        <time>2012-03-27T12:54:55Z</time>
      </trkpt>
      <trkpt lat="47.82566" lon="7.12018">
        <ele>635.0881348</ele>
        <time>2012-03-27T12:55:10Z</time>
      </trkpt>
      <trkpt lat="47.82562" lon="7.12018">
        <ele>634.6074219</ele>
        <time>2012-03-27T12:55:16Z</time>
      </trkpt>
      <trkpt lat="47.82554" lon="7.12026">
        <ele>634.6074219</ele>
        <time>2012-03-27T12:55:24Z</time>
      </trkpt>
      <trkpt lat="47.82548" lon="7.12029">
        <ele>634.6074219</ele>
        <time>2012-03-27T12:55:44Z</time>
      </trkpt>
      <trkpt lat="47.82542" lon="7.12029">
        <ele>634.6074219</ele>
        <time>2012-03-27T12:56:00Z</time>
      </trkpt>
      <trkpt lat="47.82537" lon="7.1203">
        <ele>634.126709</ele>
        <time>2012-03-27T12:56:08Z</time>
      </trkpt>
      <trkpt lat="47.8252" lon="7.12037">
        <ele>633.1652832</ele>
        <time>2012-03-27T12:56:23Z</time>
      </trkpt>
      <trkpt lat="47.82515" lon="7.1204">
        <ele>632.6848145</ele>
        <time>2012-03-27T12:56:41Z</time>
      </trkpt>
      <trkpt lat="47.82509" lon="7.12047">
        <ele>632.2041016</ele>
        <time>2012-03-27T12:56:55Z</time>
      </trkpt>
      <trkpt lat="47.82493" lon="7.12061">
        <ele>630.2814941</ele>
        <time>2012-03-27T12:57:09Z</time>
      </trkpt>
      <trkpt lat="47.82487" lon="7.12057">
        <ele>629.8007813</ele>
        <time>2012-03-27T12:57:25Z</time>
      </trkpt>
      <trkpt lat="47.82479" lon="7.12059">
        <ele>630.2814941</ele>
        <time>2012-03-27T12:57:41Z</time>
      </trkpt>
      <trkpt lat="47.82464" lon="7.12064">
        <ele>628.3588867</ele>
        <time>2012-03-27T12:58:00Z</time>
      </trkpt>
      <trkpt lat="47.82444" lon="7.12062">
        <ele>627.3977051</ele>
        <time>2012-03-27T12:58:04Z</time>
      </trkpt>
      <trkpt lat="47.82432" lon="7.1206">
        <ele>624.032959</ele>
        <time>2012-03-27T12:58:22Z</time>
      </trkpt>
      <trkpt lat="47.82421" lon="7.12056">
        <ele>622.5910645</ele>
        <time>2012-03-27T12:58:43Z</time>
      </trkpt>
      <trkpt lat="47.82408" lon="7.12053">
        <ele>619.2263184</ele>
        <time>2012-03-27T12:59:04Z</time>
      </trkpt>
      <trkpt lat="47.82393" lon="7.12047">
        <ele>617.3037109</ele>
        <time>2012-03-27T12:59:21Z</time>
      </trkpt>
      <trkpt lat="47.82376" lon="7.12036">
        <ele>613.9389648</ele>
        <time>2012-03-27T12:59:32Z</time>
      </trkpt>
      <trkpt lat="47.82374" lon="7.12033">
        <ele>613.4584961</ele>
        <time>2012-03-27T12:59:54Z</time>
      </trkpt>
      <trkpt lat="47.8236" lon="7.12017">
        <ele>610.5744629</ele>
        <time>2012-03-27T13:00:10Z</time>
      </trkpt>
      <trkpt lat="47.8234" lon="7.12001">
        <ele>607.6906738</ele>
        <time>2012-03-27T13:00:11Z</time>
      </trkpt>
      <trkpt lat="47.8232" lon="7.1201">
        <ele>605.7680664</ele>
        <time>2012-03-27T13:00:12Z</time>
      </trkpt>
      <trkpt lat="47.82303" lon="7.12019">
        <ele>603.8452148</ele>
        <time>2012-03-27T13:00:18Z</time>
      </trkpt>
      <trkpt lat="47.82292" lon="7.12026">
        <ele>603.8452148</ele>
        <time>2012-03-27T13:00:23Z</time>
      </trkpt>
      <trkpt lat="47.82272" lon="7.12046">
        <ele>601.4418945</ele>
        <time>2012-03-27T13:00:29Z</time>
      </trkpt>
      <trkpt lat="47.82265" lon="7.12061">
        <ele>598.0773926</ele>
        <time>2012-03-27T13:00:39Z</time>
      </trkpt>
      <trkpt lat="47.82265" lon="7.12062">
        <ele>598.5578613</ele>
        <time>2012-03-27T13:00:53Z</time>
      </trkpt>
      <trkpt lat="47.82264" lon="7.12062">
        <ele>599.0385742</ele>
        <time>2012-03-27T13:01:08Z</time>
      </trkpt>
      <trkpt lat="47.82258" lon="7.12066">
        <ele>598.0773926</ele>
        <time>2012-03-27T13:01:32Z</time>
      </trkpt>
      <trkpt lat="47.82254" lon="7.12071">
        <ele>595.6740723</ele>
        <time>2012-03-27T13:01:50Z</time>
      </trkpt>
      <trkpt lat="47.82247" lon="7.12077">
        <ele>595.6740723</ele>
        <time>2012-03-27T13:02:52Z</time>
      </trkpt>
      <trkpt lat="47.82241" lon="7.12086">
        <ele>593.7514648</ele>
        <time>2012-03-27T13:02:53Z</time>
      </trkpt>
      <trkpt lat="47.82232" lon="7.12098">
        <ele>592.3095703</ele>
        <time>2012-03-27T13:03:04Z</time>
      </trkpt>
      <trkpt lat="47.82231" lon="7.12104">
        <ele>593.7514648</ele>
        <time>2012-03-27T13:03:11Z</time>
      </trkpt>
      <trkpt lat="47.8223" lon="7.12125">
        <ele>593.7514648</ele>
        <time>2012-03-27T13:03:26Z</time>
      </trkpt>
      <trkpt lat="47.82232" lon="7.12137">
        <ele>595.1933594</ele>
        <time>2012-03-27T13:03:39Z</time>
      </trkpt>
      <trkpt lat="47.82222" lon="7.12115">
        <ele>592.3095703</ele>
        <time>2012-03-27T13:03:54Z</time>
      </trkpt>
      <trkpt lat="47.82221" lon="7.12114">
        <ele>592.7902832</ele>
        <time>2012-03-27T13:04:06Z</time>
      </trkpt>
      <trkpt lat="47.82206" lon="7.12107">
        <ele>590.8674316</ele>
        <time>2012-03-27T13:04:23Z</time>
      </trkpt>
      <trkpt lat="47.82203" lon="7.12095">
        <ele>589.4255371</ele>
        <time>2012-03-27T13:04:36Z</time>
      </trkpt>
      <trkpt lat="47.82195" lon="7.12076">
        <ele>588.9450684</ele>
        <time>2012-03-27T13:04:52Z</time>
      </trkpt>
      <trkpt lat="47.82191" lon="7.1206">
        <ele>586.5415039</ele>
        <time>2012-03-27T13:05:08Z</time>
      </trkpt>
      <trkpt lat="47.82183" lon="7.12044">
        <ele>583.6574707</ele>
        <time>2012-03-27T13:05:09Z</time>
      </trkpt>
      <trkpt lat="47.82181" lon="7.1203">
        <ele>581.2543945</ele>
        <time>2012-03-27T13:05:12Z</time>
      </trkpt>
      <trkpt lat="47.82178" lon="7.12006">
        <ele>578.3703613</ele>
        <time>2012-03-27T13:05:21Z</time>
      </trkpt>
      <trkpt lat="47.82174" lon="7.11992">
        <ele>575.967041</ele>
        <time>2012-03-27T13:05:29Z</time>
      </trkpt>
      <trkpt lat="47.82171" lon="7.1197">
        <ele>572.6025391</ele>
        <time>2012-03-27T13:05:42Z</time>
      </trkpt>
      <trkpt lat="47.82168" lon="7.11949">
        <ele>569.237793</ele>
        <time>2012-03-27T13:06:01Z</time>
      </trkpt>
      <trkpt lat="47.82168" lon="7.11948">
        <ele>569.237793</ele>
        <time>2012-03-27T13:06:16Z</time>
      </trkpt>
      <trkpt lat="47.82164" lon="7.11944">
        <ele>567.7956543</ele>
        <time>2012-03-27T13:06:35Z</time>
      </trkpt>
      <trkpt lat="47.82164" lon="7.11927">
        <ele>566.8344727</ele>
        <time>2012-03-27T13:06:47Z</time>
      </trkpt>
      <trkpt lat="47.82162" lon="7.11913">
        <ele>564.9118652</ele>
        <time>2012-03-27T13:07:05Z</time>
      </trkpt>
      <trkpt lat="47.82157" lon="7.11888">
        <ele>561.5473633</ele>
        <time>2012-03-27T13:07:22Z</time>
      </trkpt>
      <trkpt lat="47.82154" lon="7.11857">
        <ele>559.144043</ele>
        <time>2012-03-27T13:07:38Z</time>
      </trkpt>
      <trkpt lat="47.82153" lon="7.11836">
        <ele>556.2600098</ele>
        <time>2012-03-27T13:07:57Z</time>
      </trkpt>
      <trkpt lat="47.82151" lon="7.11799">
        <ele>552.4145508</ele>
        <time>2012-03-27T13:08:12Z</time>
      </trkpt>
      <trkpt lat="47.82148" lon="7.11785">
        <ele>550.4921875</ele>
        <time>2012-03-27T13:08:30Z</time>
      </trkpt>
      <trkpt lat="47.82144" lon="7.11762">
        <ele>548.5693359</ele>
        <time>2012-03-27T13:08:42Z</time>
      </trkpt>
      <trkpt lat="47.82147" lon="7.11761">
        <ele>546.1662598</ele>
        <time>2012-03-27T13:08:55Z</time>
      </trkpt>
      <trkpt lat="47.82169" lon="7.11773">
        <ele>543.7628174</ele>
        <time>2012-03-27T13:09:11Z</time>
      </trkpt>
      <trkpt lat="47.82187" lon="7.11804">
        <ele>540.8789063</ele>
        <time>2012-03-27T13:09:25Z</time>
      </trkpt>
      <trkpt lat="47.82187" lon="7.11823">
        <ele>537.9949951</ele>
        <time>2012-03-27T13:09:41Z</time>
      </trkpt>
      <trkpt lat="47.82199" lon="7.11842">
        <ele>535.5915527</ele>
        <time>2012-03-27T13:09:46Z</time>
      </trkpt>
      <trkpt lat="47.82192" lon="7.11818">
        <ele>532.2270508</ele>
        <time>2012-03-27T13:09:58Z</time>
      </trkpt>
      <trkpt lat="47.82201" lon="7.11798">
        <ele>529.8237305</ele>
        <time>2012-03-27T13:10:11Z</time>
      </trkpt>
      <trkpt lat="47.822" lon="7.11773">
        <ele>528.3818359</ele>
        <time>2012-03-27T13:10:28Z</time>
      </trkpt>
      <trkpt lat="47.82205" lon="7.11751">
        <ele>527.4204102</ele>
        <time>2012-03-27T13:10:42Z</time>
      </trkpt>
      <trkpt lat="47.822" lon="7.11731">
        <ele>524.0557861</ele>
        <time>2012-03-27T13:10:58Z</time>
      </trkpt>
      <trkpt lat="47.82197" lon="7.11724">
        <ele>524.536499</ele>
        <time>2012-03-27T13:11:15Z</time>
      </trkpt>
      <trkpt lat="47.82187" lon="7.11702">
        <ele>522.6138916</ele>
        <time>2012-03-27T13:11:32Z</time>
      </trkpt>
      <trkpt lat="47.82186" lon="7.11684">
        <ele>519.2492676</ele>
        <time>2012-03-27T13:11:49Z</time>
      </trkpt>
      <trkpt lat="47.82183" lon="7.1166">
        <ele>516.8459473</ele>
        <time>2012-03-27T13:11:54Z</time>
      </trkpt>
      <trkpt lat="47.82188" lon="7.1167">
        <ele>513.9620361</ele>
        <time>2012-03-27T13:12:12Z</time>
      </trkpt>
      <trkpt lat="47.82204" lon="7.11691">
        <ele>513.0007324</ele>
        <time>2012-03-27T13:12:15Z</time>
      </trkpt>
      <trkpt lat="47.82222" lon="7.11714">
        <ele>512.0394287</ele>
        <time>2012-03-27T13:12:22Z</time>
      </trkpt>
      <trkpt lat="47.8223" lon="7.11733">
        <ele>509.1553955</ele>
        <time>2012-03-27T13:12:24Z</time>
      </trkpt>
      <trkpt lat="47.82245" lon="7.11742">
        <ele>505.7908936</ele>
        <time>2012-03-27T13:12:34Z</time>
      </trkpt>
      <trkpt lat="47.82241" lon="7.11738">
        <ele>504.8294678</ele>
        <time>2012-03-27T13:12:49Z</time>
      </trkpt>
      <trkpt lat="47.82239" lon="7.11708">
        <ele>502.4261475</ele>
        <time>2012-03-27T13:13:04Z</time>
      </trkpt>
      <trkpt lat="47.82239" lon="7.11705">
        <ele>501.9455566</ele>
        <time>2012-03-27T13:13:08Z</time>
      </trkpt>
      <trkpt lat="47.8224" lon="7.11688">
        <ele>501.4648438</ele>
        <time>2012-03-27T13:13:27Z</time>
      </trkpt>
      <trkpt lat="47.8224" lon="7.11686">
        <ele>500.9841309</ele>
        <time>2012-03-27T13:13:37Z</time>
      </trkpt>
      <trkpt lat="47.82246" lon="7.11672">
        <ele>500.0229492</ele>
        <time>2012-03-27T13:13:51Z</time>
      </trkpt>
      <trkpt lat="47.82249" lon="7.11647">
        <ele>497.138916</ele>
        <time>2012-03-27T13:14:05Z</time>
      </trkpt>
      <trkpt lat="47.82255" lon="7.11638">
        <ele>497.6196289</ele>
        <time>2012-03-27T13:14:20Z</time>
      </trkpt>
      <trkpt lat="47.82252" lon="7.11635">
        <ele>497.6196289</ele>
        <time>2012-03-27T13:14:32Z</time>
      </trkpt>
      <trkpt lat="47.82239" lon="7.11611">
        <ele>495.6968994</ele>
        <time>2012-03-27T13:14:49Z</time>
      </trkpt>
      <trkpt lat="47.82238" lon="7.11598">
        <ele>494.2550049</ele>
        <time>2012-03-27T13:15:05Z</time>
      </trkpt>
      <trkpt lat="47.82236" lon="7.11579">
        <ele>490.8903809</ele>
        <time>2012-03-27T13:15:22Z</time>
      </trkpt>
      <trkpt lat="47.82237" lon="7.11555">
        <ele>489.4483643</ele>
        <time>2012-03-27T13:15:44Z</time>
      </trkpt>
      <trkpt lat="47.82227" lon="7.11537">
        <ele>486.5644531</ele>
        <time>2012-03-27T13:15:59Z</time>
      </trkpt>
      <trkpt lat="47.82224" lon="7.11523">
        <ele>485.1224365</ele>
        <time>2012-03-27T13:16:13Z</time>
      </trkpt>
      <trkpt lat="47.82218" lon="7.11502">
        <ele>483.6804199</ele>
        <time>2012-03-27T13:16:30Z</time>
      </trkpt>
      <trkpt lat="47.82208" lon="7.11487">
        <ele>481.2772217</ele>
        <time>2012-03-27T13:16:43Z</time>
      </trkpt>
      <trkpt lat="47.82198" lon="7.11465">
        <ele>478.8739014</ele>
        <time>2012-03-27T13:16:44Z</time>
      </trkpt>
      <trkpt lat="47.82186" lon="7.11443">
        <ele>475.9898682</ele>
        <time>2012-03-27T13:16:54Z</time>
      </trkpt>
      <trkpt lat="47.82175" lon="7.11429">
        <ele>474.0672607</ele>
        <time>2012-03-27T13:17:07Z</time>
      </trkpt>
      <trkpt lat="47.82166" lon="7.1141">
        <ele>472.1446533</ele>
        <time>2012-03-27T13:17:20Z</time>
      </trkpt>
      <trkpt lat="47.82161" lon="7.11388">
        <ele>468.7800293</ele>
        <time>2012-03-27T13:17:35Z</time>
      </trkpt>
      <trkpt lat="47.82165" lon="7.11388">
        <ele>465.4155273</ele>
        <time>2012-03-27T13:17:51Z</time>
      </trkpt>
      <trkpt lat="47.82166" lon="7.11388">
        <ele>465.4155273</ele>
        <time>2012-03-27T13:18:07Z</time>
      </trkpt>
      <trkpt lat="47.82176" lon="7.11388">
        <ele>462.5313721</ele>
        <time>2012-03-27T13:18:12Z</time>
      </trkpt>
      <trkpt lat="47.82199" lon="7.11381">
        <ele>459.647583</ele>
        <time>2012-03-27T13:18:28Z</time>
      </trkpt>
      <trkpt lat="47.82213" lon="7.11377">
        <ele>456.282959</ele>
        <time>2012-03-27T13:18:39Z</time>
      </trkpt>
      <trkpt lat="47.82224" lon="7.11371">
        <ele>453.8796387</ele>
        <time>2012-03-27T13:18:45Z</time>
      </trkpt>
      <trkpt lat="47.82214" lon="7.11349">
        <ele>451.4763184</ele>
        <time>2012-03-27T13:19:00Z</time>
      </trkpt>
      <trkpt lat="47.82207" lon="7.11331">
        <ele>448.5924072</ele>
        <time>2012-03-27T13:19:12Z</time>
      </trkpt>
      <trkpt lat="47.82205" lon="7.11325">
        <ele>446.6696777</ele>
        <time>2012-03-27T13:19:27Z</time>
      </trkpt>
      <trkpt lat="47.82214" lon="7.11322">
        <ele>444.7470703</ele>
        <time>2012-03-27T13:19:38Z</time>
      </trkpt>
      <trkpt lat="47.8222" lon="7.11315">
        <ele>441.8631592</ele>
        <time>2012-03-27T13:19:40Z</time>
      </trkpt>
      <trkpt lat="47.82217" lon="7.1131">
        <ele>441.3824463</ele>
        <time>2012-03-27T13:19:51Z</time>
      </trkpt>
      <trkpt lat="47.822" lon="7.11302">
        <ele>438.4985352</ele>
        <time>2012-03-27T13:19:54Z</time>
      </trkpt>
      <trkpt lat="47.82194" lon="7.11288">
        <ele>437.0565186</ele>
        <time>2012-03-27T13:20:08Z</time>
      </trkpt>
      <trkpt lat="47.82181" lon="7.11268">
        <ele>434.6533203</ele>
        <time>2012-03-27T13:20:11Z</time>
      </trkpt>
      <trkpt lat="47.82169" lon="7.11255">
        <ele>432.25</ele>
        <time>2012-03-27T13:20:13Z</time>
      </trkpt>
      <trkpt lat="47.82168" lon="7.11252">
        <ele>431.769165</ele>
        <time>2012-03-27T13:20:17Z</time>
      </trkpt>
      <trkpt lat="47.82157" lon="7.1124">
        <ele>430.3272705</ele>
        <time>2012-03-27T13:20:37Z</time>
      </trkpt>
      <trkpt lat="47.82156" lon="7.11234">
        <ele>429.3659668</ele>
        <time>2012-03-27T13:20:45Z</time>
      </trkpt>
      <trkpt lat="47.82149" lon="7.11217">
        <ele>427.4433594</ele>
        <time>2012-03-27T13:21:00Z</time>
      </trkpt>
      <trkpt lat="47.82148" lon="7.11212">
        <ele>427.4433594</ele>
        <time>2012-03-27T13:21:07Z</time>
      </trkpt>
      <trkpt lat="47.82147" lon="7.11209">
        <ele>427.4433594</ele>
        <time>2012-03-27T13:21:19Z</time>
      </trkpt>
      <trkpt lat="47.82149" lon="7.11203">
        <ele>426.0013428</ele>
        <time>2012-03-27T13:21:39Z</time>
      </trkpt>
      <trkpt lat="47.82163" lon="7.1118">
        <ele>424.0787354</ele>
        <time>2012-03-27T13:21:45Z</time>
      </trkpt>
      <trkpt lat="47.82166" lon="7.1118">
        <ele>424.0787354</ele>
        <time>2012-03-27T13:22:04Z</time>
      </trkpt>
      <trkpt lat="47.82156" lon="7.11158">
        <ele>420.7141113</ele>
        <time>2012-03-27T13:22:23Z</time>
      </trkpt>
      <trkpt lat="47.82152" lon="7.1115">
        <ele>418.310791</ele>
        <time>2012-03-27T13:22:31Z</time>
      </trkpt>
      <trkpt lat="47.82147" lon="7.11134">
        <ele>416.3881836</ele>
        <time>2012-03-27T13:22:35Z</time>
      </trkpt>
      <trkpt lat="47.82127" lon="7.11112">
        <ele>412.5428467</ele>
        <time>2012-03-27T13:22:43Z</time>
      </trkpt>
      <trkpt lat="47.82121" lon="7.11105">
        <ele>412.0622559</ele>
        <time>2012-03-27T13:22:46Z</time>
      </trkpt>
      <trkpt lat="47.82105" lon="7.11098">
        <ele>410.1396484</ele>
        <time>2012-03-27T13:22:52Z</time>
      </trkpt>
      <trkpt lat="47.82087" lon="7.11089">
        <ele>408.6976318</ele>
        <time>2012-03-27T13:23:17Z</time>
      </trkpt>
      <trkpt lat="47.82078" lon="7.11086">
        <ele>407.2556152</ele>
        <time>2012-03-27T13:23:18Z</time>
      </trkpt>
      <trkpt lat="47.82075" lon="7.11082">
        <ele>407.2556152</ele>
        <time>2012-03-27T13:23:26Z</time>
      </trkpt>
      <trkpt lat="47.82067" lon="7.11079">
        <ele>406.2943115</ele>
        <time>2012-03-27T13:23:42Z</time>
      </trkpt>
      <trkpt lat="47.82063" lon="7.11078">
        <ele>405.8137207</ele>
        <time>2012-03-27T13:24:03Z</time>
      </trkpt>
      <trkpt lat="47.82058" lon="7.11077">
        <ele>405.3330078</ele>
        <time>2012-03-27T13:24:17Z</time>
      </trkpt>
      <trkpt lat="47.82035" lon="7.11075">
        <ele>403.4104004</ele>
        <time>2012-03-27T13:24:18Z</time>
      </trkpt>
      <trkpt lat="47.82034" lon="7.11075">
        <ele>403.4104004</ele>
        <time>2012-03-27T13:24:23Z</time>
      </trkpt>
      <trkpt lat="47.82026" lon="7.11076">
        <ele>403.4104004</ele>
        <time>2012-03-27T13:24:37Z</time>
      </trkpt>
      <trkpt lat="47.82013" lon="7.11065">
        <ele>402.4490967</ele>
        <time>2012-03-27T13:24:55Z</time>
      </trkpt>
      <trkpt lat="47.82017" lon="7.11072">
        <ele>401.9685059</ele>
        <time>2012-03-27T13:25:13Z</time>
      </trkpt>
      <trkpt lat="47.82004" lon="7.1107">
        <ele>400.5264893</ele>
        <time>2012-03-27T13:25:18Z</time>
      </trkpt>
      <trkpt lat="47.82004" lon="7.1107">
        <ele>400.5264893</ele>
        <time>2012-03-27T13:25:37Z</time>
      </trkpt>
      <trkpt lat="47.81998" lon="7.11072">
        <ele>401.0070801</ele>
        <time>2012-03-27T13:25:48Z</time>
      </trkpt>
      <trkpt lat="47.81983" lon="7.11069">
        <ele>400.0458984</ele>
        <time>2012-03-27T13:26:04Z</time>
      </trkpt>
      <trkpt lat="47.81965" lon="7.11065">
        <ele>399.0843506</ele>
        <time>2012-03-27T13:26:06Z</time>
      </trkpt>
      <trkpt lat="47.81946" lon="7.11062">
        <ele>399.5650635</ele>
        <time>2012-03-27T13:26:22Z</time>
      </trkpt>
      <trkpt lat="47.81943" lon="7.11057">
        <ele>398.6037598</ele>
        <time>2012-03-27T13:26:40Z</time>
      </trkpt>
      <trkpt lat="47.81924" lon="7.11049">
        <ele>397.6424561</ele>
        <time>2012-03-27T13:26:41Z</time>
      </trkpt>
      <trkpt lat="47.8191" lon="7.11045">
        <ele>397.1617432</ele>
        <time>2012-03-27T13:27:00Z</time>
      </trkpt>
      <trkpt lat="47.81893" lon="7.11034">
        <ele>396.2005615</ele>
        <time>2012-03-27T13:27:23Z</time>
      </trkpt>
      <trkpt lat="47.81891" lon="7.11032">
        <ele>396.2005615</ele>
        <time>2012-03-27T13:27:31Z</time>
      </trkpt>
      <trkpt lat="47.81875" lon="7.11021">
        <ele>394.7585449</ele>
        <time>2012-03-27T13:27:40Z</time>
      </trkpt>
      <trkpt lat="47.81857" lon="7.11005">
        <ele>393.7972412</ele>
        <time>2012-03-27T13:27:43Z</time>
      </trkpt>
      <trkpt lat="47.81856" lon="7.11004">
        <ele>393.7972412</ele>
        <time>2012-03-27T13:27:51Z</time>
      </trkpt>
      <trkpt lat="47.81841" lon="7.10981">
        <ele>393.3165283</ele>
        <time>2012-03-27T13:28:02Z</time>
      </trkpt>
      <trkpt lat="47.81819" lon="7.10958">
        <ele>391.3937988</ele>
        <time>2012-03-27T13:28:21Z</time>
      </trkpt>
      <trkpt lat="47.81814" lon="7.1095">
        <ele>390.913208</ele>
        <time>2012-03-27T13:28:50Z</time>
      </trkpt>
      <trkpt lat="47.81807" lon="7.10939">
        <ele>390.4326172</ele>
        <time>2012-03-27T13:29:08Z</time>
      </trkpt>
      <trkpt lat="47.81806" lon="7.10937">
        <ele>389.9519043</ele>
        <time>2012-03-27T13:29:30Z</time>
      </trkpt>
      <trkpt lat="47.818" lon="7.1093">
        <ele>389.9519043</ele>
        <time>2012-03-27T13:29:53Z</time>
      </trkpt>
      <trkpt lat="47.81789" lon="7.10921">
        <ele>389.4711914</ele>
        <time>2012-03-27T13:30:15Z</time>
      </trkpt>
      <trkpt lat="47.81787" lon="7.10921">
        <ele>388.9906006</ele>
        <time>2012-03-27T13:30:30Z</time>
      </trkpt>
      <trkpt lat="47.81793" lon="7.1093">
        <ele>388.9906006</ele>
        <time>2012-03-27T13:30:50Z</time>
      </trkpt>
      <trkpt lat="47.81776" lon="7.10917">
        <ele>388.5100098</ele>
        <time>2012-03-27T13:31:09Z</time>
      </trkpt>
      <trkpt lat="47.81751" lon="7.10895">
        <ele>387.0679932</ele>
        <time>2012-03-27T13:31:30Z</time>
      </trkpt>
      <trkpt lat="47.81729" lon="7.1087">
        <ele>385.6259766</ele>
        <time>2012-03-27T13:31:45Z</time>
      </trkpt>
      <trkpt lat="47.81712" lon="7.10846">
        <ele>384.184082</ele>
        <time>2012-03-27T13:31:47Z</time>
      </trkpt>
      <trkpt lat="47.81705" lon="7.10826">
        <ele>383.2226563</ele>
        <time>2012-03-27T13:32:02Z</time>
      </trkpt>
      <trkpt lat="47.81698" lon="7.108">
        <ele>381.7806396</ele>
        <time>2012-03-27T13:32:09Z</time>
      </trkpt>
      <trkpt lat="47.81694" lon="7.10788">
        <ele>378.8968506</ele>
        <time>2012-03-27T13:32:23Z</time>
      </trkpt>
      <trkpt lat="47.81699" lon="7.10785">
        <ele>376.0128174</ele>
        <time>2012-03-27T13:32:46Z</time>
      </trkpt>
      <trkpt lat="47.81699" lon="7.10787">
        <ele>379.8580322</ele>
        <time>2012-03-27T13:32:53Z</time>
      </trkpt>
      <trkpt lat="47.81697" lon="7.10785">
        <ele>380.3387451</ele>
        <time>2012-03-27T13:32:55Z</time>
      </trkpt>
      <trkpt lat="47.81686" lon="7.10768">
        <ele>378.4161377</ele>
        <time>2012-03-27T13:32:58Z</time>
      </trkpt>
      <trkpt lat="47.8168" lon="7.10761">
        <ele>378.4161377</ele>
        <time>2012-03-27T13:33:16Z</time>
      </trkpt>
      <trkpt lat="47.81669" lon="7.10749">
        <ele>376.9742432</ele>
        <time>2012-03-27T13:33:28Z</time>
      </trkpt>
      <trkpt lat="47.81652" lon="7.10721">
        <ele>375.0515137</ele>
        <time>2012-03-27T13:33:43Z</time>
      </trkpt>
      <trkpt lat="47.81647" lon="7.10712">
        <ele>375.0515137</ele>
        <time>2012-03-27T13:33:47Z</time>
      </trkpt>
      <trkpt lat="47.81646" lon="7.10711">
        <ele>374.5708008</ele>
        <time>2012-03-27T13:34:04Z</time>
      </trkpt>
      <trkpt lat="47.81645" lon="7.10706">
        <ele>374.5708008</ele>
        <time>2012-03-27T13:34:20Z</time>
      </trkpt>
      <trkpt lat="47.81625" lon="7.10683">
        <ele>373.6094971</ele>
        <time>2012-03-27T13:34:32Z</time>
      </trkpt>
      <trkpt lat="47.81613" lon="7.10664">
        <ele>373.1289063</ele>
        <time>2012-03-27T13:34:57Z</time>
      </trkpt>
      <trkpt lat="47.816" lon="7.10644">
        <ele>372.1674805</ele>
        <time>2012-03-27T13:35:09Z</time>
      </trkpt>
      <trkpt lat="47.81597" lon="7.10641">
        <ele>372.1674805</ele>
        <time>2012-03-27T13:35:19Z</time>
      </trkpt>
      <trkpt lat="47.81584" lon="7.1062">
        <ele>371.2062988</ele>
        <time>2012-03-27T13:35:41Z</time>
      </trkpt>
      <trkpt lat="47.81574" lon="7.10596">
        <ele>370.7255859</ele>
        <time>2012-03-27T13:35:52Z</time>
      </trkpt>
      <trkpt lat="47.81563" lon="7.10583">
        <ele>369.7642822</ele>
        <time>2012-03-27T13:36:06Z</time>
      </trkpt>
      <trkpt lat="47.81543" lon="7.10553">
        <ele>368.3222656</ele>
        <time>2012-03-27T13:36:31Z</time>
      </trkpt>
      <trkpt lat="47.81534" lon="7.10541">
        <ele>367.8415527</ele>
        <time>2012-03-27T13:36:55Z</time>
      </trkpt>
      <trkpt lat="47.81525" lon="7.10533">
        <ele>366.880249</ele>
        <time>2012-03-27T13:37:14Z</time>
      </trkpt>
      <trkpt lat="47.81505" lon="7.10515">
        <ele>365.4383545</ele>
        <time>2012-03-27T13:37:34Z</time>
      </trkpt>
      <trkpt lat="47.81494" lon="7.10508">
        <ele>364.4769287</ele>
        <time>2012-03-27T13:37:40Z</time>
      </trkpt>
      <trkpt lat="47.81484" lon="7.10505">
        <ele>363.9963379</ele>
        <time>2012-03-27T13:37:50Z</time>
      </trkpt>
      <trkpt lat="47.81454" lon="7.10496">
        <ele>363.0350342</ele>
        <time>2012-03-27T13:37:54Z</time>
      </trkpt>
      <trkpt lat="47.81428" lon="7.10482">
        <ele>362.5543213</ele>
        <time>2012-03-27T13:38:08Z</time>
      </trkpt>
      <trkpt lat="47.8141" lon="7.10467">
        <ele>360.151123</ele>
        <time>2012-03-27T13:38:26Z</time>
      </trkpt>
      <trkpt lat="47.81394" lon="7.10454">
        <ele>359.1896973</ele>
        <time>2012-03-27T13:38:30Z</time>
      </trkpt>
      <trkpt lat="47.8139" lon="7.10458">
        <ele>359.6704102</ele>
        <time>2012-03-27T13:38:38Z</time>
      </trkpt>
      <trkpt lat="47.81382" lon="7.10464">
        <ele>358.7089844</ele>
        <time>2012-03-27T13:38:42Z</time>
      </trkpt>
      <trkpt lat="47.8138" lon="7.10459">
        <ele>358.7089844</ele>
        <time>2012-03-27T13:38:47Z</time>
      </trkpt>
      <trkpt lat="47.81359" lon="7.10449">
        <ele>359.1896973</ele>
        <time>2012-03-27T13:39:03Z</time>
      </trkpt>
      <trkpt lat="47.81365" lon="7.10446">
        <ele>357.7478027</ele>
        <time>2012-03-27T13:39:09Z</time>
      </trkpt>
      <trkpt lat="47.81364" lon="7.10436">
        <ele>358.7089844</ele>
        <time>2012-03-27T13:39:13Z</time>
      </trkpt>
      <trkpt lat="47.81353" lon="7.10427">
        <ele>358.7089844</ele>
        <time>2012-03-27T13:39:25Z</time>
      </trkpt>
      <trkpt lat="47.81347" lon="7.10433">
        <ele>358.2283936</ele>
        <time>2012-03-27T13:39:46Z</time>
      </trkpt>
      <trkpt lat="47.81343" lon="7.10438">
        <ele>357.7478027</ele>
        <time>2012-03-27T13:39:52Z</time>
      </trkpt>
      <trkpt lat="47.8133" lon="7.10446">
        <ele>356.786377</ele>
        <time>2012-03-27T13:39:56Z</time>
      </trkpt>
      <trkpt lat="47.81325" lon="7.10454">
        <ele>355.8251953</ele>
        <time>2012-03-27T13:40:03Z</time>
      </trkpt>
      <trkpt lat="47.81322" lon="7.10461">
        <ele>355.3444824</ele>
        <time>2012-03-27T13:40:22Z</time>
      </trkpt>
      <trkpt lat="47.81313" lon="7.10483">
        <ele>354.3831787</ele>
        <time>2012-03-27T13:40:44Z</time>
      </trkpt>
      <trkpt lat="47.813" lon="7.10499">
        <ele>353.421875</ele>
        <time>2012-03-27T13:40:50Z</time>
      </trkpt>
      <trkpt lat="47.8129" lon="7.10496">
        <ele>353.421875</ele>
        <time>2012-03-27T13:41:00Z</time>
      </trkpt>
      <trkpt lat="47.81285" lon="7.10497">
        <ele>352.4605713</ele>
        <time>2012-03-27T13:41:21Z</time>
      </trkpt>
      <trkpt lat="47.81278" lon="7.10502">
        <ele>352.9411621</ele>
        <time>2012-03-27T13:41:42Z</time>
      </trkpt>
      <trkpt lat="47.81254" lon="7.10498">
        <ele>352.9411621</ele>
        <time>2012-03-27T13:42:02Z</time>
      </trkpt>
      <trkpt lat="47.81229" lon="7.10492">
        <ele>352.4605713</ele>
        <time>2012-03-27T13:42:25Z</time>
      </trkpt>
      <trkpt lat="47.81222" lon="7.10489">
        <ele>352.4605713</ele>
        <time>2012-03-27T13:42:38Z</time>
      </trkpt>
      <trkpt lat="47.81221" lon="7.10478">
        <ele>352.4605713</ele>
        <time>2012-03-27T13:42:57Z</time>
      </trkpt>
      <trkpt lat="47.81198" lon="7.10469">
        <ele>352.4605713</ele>
        <time>2012-03-27T13:43:01Z</time>
      </trkpt>
      <trkpt lat="47.81177" lon="7.10465">
        <ele>351.9798584</ele>
        <time>2012-03-27T13:43:17Z</time>
      </trkpt>
      <trkpt lat="47.81156" lon="7.10467">
        <ele>350.5378418</ele>
        <time>2012-03-27T13:43:35Z</time>
      </trkpt>
      <trkpt lat="47.81131" lon="7.10458">
        <ele>349.0958252</ele>
        <time>2012-03-27T13:43:39Z</time>
      </trkpt>
      <trkpt lat="47.81116" lon="7.10449">
        <ele>349.0958252</ele>
        <time>2012-03-27T13:43:44Z</time>
      </trkpt>
      <trkpt lat="47.81101" lon="7.10462">
        <ele>348.6152344</ele>
        <time>2012-03-27T13:43:54Z</time>
      </trkpt>
      <trkpt lat="47.81098" lon="7.10465">
        <ele>349.0958252</ele>
        <time>2012-03-27T13:44:04Z</time>
      </trkpt>
      <trkpt lat="47.8108" lon="7.10461">
        <ele>349.0958252</ele>
        <time>2012-03-27T13:44:18Z</time>
      </trkpt>
      <trkpt lat="47.81059" lon="7.10458">
        <ele>349.0958252</ele>
        <time>2012-03-27T13:44:24Z</time>
      </trkpt>
      <trkpt lat="47.81056" lon="7.10459">
        <ele>348.6152344</ele>
        <time>2012-03-27T13:44:32Z</time>
      </trkpt>
      <trkpt lat="47.81052" lon="7.10462">
        <ele>348.6152344</ele>
        <time>2012-03-27T13:44:46Z</time>
      </trkpt>
      <trkpt lat="47.81045" lon="7.10472">
        <ele>348.6152344</ele>
        <time>2012-03-27T13:44:59Z</time>
      </trkpt>
      <trkpt lat="47.81036" lon="7.10464">
        <ele>348.6152344</ele>
        <time>2012-03-27T13:45:28Z</time>
      </trkpt>
      <trkpt lat="47.81026" lon="7.10443">
        <ele>348.1346436</ele>
      </trkpt>
      <trkpt lat="47.81019" lon="7.1044">
        <ele>349.5765381</ele>
      </trkpt>
      <trkpt lat="47.81013" lon="7.10434">
        <ele>350.057251</ele>
      </trkpt>
      <trkpt lat="47.81005" lon="7.10422">
        <ele>349.5765381</ele>
      </trkpt>
      <trkpt lat="47.80994" lon="7.10407">
        <ele>350.5378418</ele>
      </trkpt>
      <trkpt lat="47.80987" lon="7.10386">
        <ele>350.5378418</ele>
      </trkpt>
      <trkpt lat="47.80977" lon="7.10374">
        <ele>336.3</ele>
      </trkpt>
      <trkpt lat="47.80973" lon="7.10364">
        <ele>336.4</ele>
      </trkpt>
      <trkpt lat="47.80948" lon="7.10327">
        <ele>338.4</ele>
      </trkpt>
      <trkpt lat="47.80937" lon="7.10312">
        <ele>338.7</ele>
      </trkpt>
      <trkpt lat="47.80929" lon="7.103">
        <ele>338.8</ele>
      </trkpt>
      <trkpt lat="47.80921" lon="7.10286">
        <ele>339.2</ele>
      </trkpt>
      <trkpt lat="47.8091" lon="7.10274">
        <ele>341</ele>
      </trkpt>
      <trkpt lat="47.80899" lon="7.10264">
        <ele>341.1</ele>
      </trkpt>
      <trkpt lat="47.8089" lon="7.10251">
        <ele>341.3</ele>
      </trkpt>
      <trkpt lat="47.80882" lon="7.10236">
        <ele>342.3</ele>
      </trkpt>
      <trkpt lat="47.80843" lon="7.102">
        <ele>342.5</ele>
      </trkpt>
      <trkpt lat="47.80836" lon="7.10182">
        <ele>342</ele>
      </trkpt>
      <trkpt lat="47.80803" lon="7.10166">
        <ele>342</ele>
      </trkpt>
      <trkpt lat="47.80782" lon="7.10122">
        <ele>342.7</ele>
      </trkpt>
    </trkseg>
  </trk>
</gpx>